[[{"header":{"parameterUnit":"m.s-1","parameterCategory":1,"la1":30.6,"la2":28.766,"lo1":-90.7593,"lo2":-88.6598,"dy":0.0162,"dx":0.0183,"nx":116,"ny":114,"refTime":"2023-08-04T06:00:00:Z","depth":0,"parameterNumber":2,"parameterNumberName":"U-component_of_WINDS"},"data":[0.0,0.0,0.0,0.0,0.0,0.0,0.0,0.0,0.0,0.0,0.0,0.0,0.0,0.0,0.0,0.0,0.0,0.0,0.0,0.0,0.0,0.0,0.0,0.0,0.0,0.0,0.0,0.0,0.0,0.0,0.0,0.0,0.0,0.0,0.0,0.0,0.0,0.0,0.0,0.0,0.0,0.0,0.0,0.0,0.0,0.0,0.0,0.0,0.0,0.0,0.0,0.0,0.0,0.0,0.0,0.0,0.0,0.0,0.0,0.0,0.0,0.0,0.0,0.0,0.0,0.0,0.0,0.0,0.0,0.0,0.0,0.0,0.0,0.0,0.0,0.0,0.0,0.0,0.0,0.0,0.0,0.0,0.0,0.0,0.0,0.0,0.0,0.0,0.0,0.0,0.0,0.0,0.0,0.0,0.0,0.0,0.0,0.0,0.0,0.0,0.0,0.0,0.0,0.0,0.0,0.0,0.0,0.0,0.0,0.0,0.0,0.0,0.0,0.0,0.0,0.0,0.0,0.0,0.0,0.0,0.0,0.0,0.0,0.0,0.0,0.0,0.0,0.0,0.0,0.0,0.0,0.0,0.0,0.0,0.0,0.0,0.0,0.0,0.0,0.0,0.0,0.0,0.0,0.0,0.0,0.0,0.0,0.0,0.0,0.0,0.0,0.0,0.0,0.0,0.0,0.0,0.0,0.0,0.0,0.0,0.0,0.0,0.0,0.0,0.0,0.0,0.0,0.0,0.0,0.0,0.0,0.0,0.0,0.0,0.0,0.0,0.0,0.0,0.0,0.0,0.0,0.0,0.0,0.0,0.0,0.0,0.0,0.0,0.0,0.0,0.0,0.0,0.0,0.0,0.0,0.0,0.0,0.0,0.0,0.0,0.0,0.0,0.0,0.0,0.0,0.0,0.0,0.0,0.0,0.0,0.0,0.0,0.0,0.0,0.0,0.0,0.0,0.0,0.0,0.0,0.0,0.0,0.0,0.0,0.0,0.0,0.0,0.0,0.0,0.0,0.0,0.0,0.0,0.0,0.0,0.0,0.0,0.0,0.0,0.0,0.0,0.0,0.0,0.0,0.0,0.0,0.0,0.0,0.0,0.0,0.0,0.0,0.0,0.0,0.0,0.0,0.0,0.0,0.0,0.0,0.0,0.0,0.0,0.0,0.0,0.0,0.0,0.0,0.0,0.0,0.0,0.0,0.0,0.0,0.0,0.0,0.0,0.0,0.0,0.0,0.0,0.0,0.0,0.0,0.0,0.0,0.0,0.0,0.0,0.0,0.0,0.0,0.0,0.0,0.0,0.0,0.0,0.0,0.0,0.0,0.0,0.0,0.0,0.0,0.0,0.0,0.0,0.0,0.0,0.0,0.0,0.0,0.0,0.0,0.0,0.0,0.0,0.0,0.0,0.0,0.0,0.0,0.0,0.0,0.0,0.0,0.0,0.0,0.0,0.0,0.0,0.0,0.0,0.0,0.0,0.0,0.0,0.0,0.0,0.0,0.0,0.0,0.0,0.0,0.0,0.0,0.0,0.0,0.0,0.0,0.0,0.0,0.0,0.0,0.0,0.0,0.0,0.0,0.0,0.0,0.0,0.0,0.0,0.0,0.0,0.0,0.0,0.0,0.0,0.0,0.0,0.0,0.0,0.0,0.0,0.0,0.0,0.0,0.0,0.0,0.0,0.0,0.0,0.0,0.0,0.0,0.0,0.0,0.0,0.0,0.0,0.0,0.0,0.0,0.0,0.0,0.0,0.0,0.0,0.0,0.0,0.0,0.0,0.0,0.0,0.0,0.0,0.0,0.0,0.0,0.0,0.0,0.0,0.0,0.0,0.0,0.0,0.0,0.0,0.0,0.0,0.0,0.0,0.0,0.0,0.0,0.0,0.0,0.0,0.0,0.0,0.0,0.0,0.0,0.0,0.0,0.0,0.0,0.0,0.0,0.0,0.0,0.0,0.0,0.0,0.0,0.0,0.0,0.0,0.0,0.0,0.0,0.0,0.0,0.0,0.0,0.0,0.0,0.0,0.0,0.0,0.0,0.0,0.0,0.0,0.0,0.0,0.0,0.0,0.0,0.0,0.0,0.0,0.0,0.0,0.0,0.0,0.0,0.0,0.0,0.0,0.0,0.0,0.0,0.0,0.0,0.0,0.0,0.0,0.0,0.0,0.0,0.0,0.0,0.0,0.0,0.0,0.0,0.0,0.0,0.0,0.0,0.0,0.0,0.0,0.0,0.0,0.0,0.0,0.0,0.0,0.0,0.0,0.0,0.0,0.0,0.0,0.0,0.0,0.0,0.0,0.0,0.0,0.0,0.0,0.0,0.0,0.0,0.0,0.0,0.0,0.0,0.0,0.0,0.0,0.0,0.0,0.0,0.0,0.0,0.0,0.0,0.0,0.0,0.0,0.0,0.0,0.0,0.0,0.0,0.0,0.0,0.0,0.0,0.0,0.0,0.0,0.0,0.0,0.0,0.0,0.0,0.0,0.0,0.0,0.0,0.0,0.0,0.0,0.0,0.0,0.0,0.0,0.0,0.0,0.0,0.0,0.0,0.0,0.0,0.0,0.0,0.0,0.0,0.0,0.0,0.0,0.0,0.0,0.0,0.0,0.0,0.0,0.0,0.0,0.0,0.0,0.0,0.0,0.0,0.0,0.0,0.0,0.0,0.0,0.0,0.0,0.0,0.0,0.0,0.0,0.0,0.0,0.0,0.0,0.0,0.0,0.0,0.0,0.0,0.0,0.0,0.0,0.0,0.0,0.0,0.0,0.0,0.0,0.0,0.0,0.0,0.0,0.0,0.0,0.0,0.0,0.0,0.0,0.0,0.0,0.0,0.0,0.0,0.0,0.0,0.0,0.0,0.0,0.0,0.0,0.0,0.0,0.0,0.0,0.0,0.0,0.0,0.0,0.0,0.0,0.0,0.0,0.0,0.0,0.0,0.0,0.0,0.0,0.0,0.0,0.0,0.0,0.0,0.0,0.0,0.0,0.0,0.0,0.0,0.0,0.0,0.0,0.0,0.0,0.0,0.0,0.0,0.0,0.0,0.0,0.0,0.0,0.0,0.0,0.0,0.0,0.0,0.0,0.0,0.0,0.0,0.0,0.0,0.0,0.0,0.0,0.0,0.0,0.0,0.0,0.0,0.0,0.0,0.0,0.0,0.0,0.0,0.0,0.0,0.0,0.0,0.0,0.0,0.0,0.0,0.0,0.0,0.0,0.0,0.0,0.0,0.0,0.0,0.0,0.0,0.0,0.0,0.0,0.0,0.0,0.0,0.0,0.0,0.0,0.0,0.0,0.0,0.0,0.0,0.0,0.0,0.0,0.0,0.0,0.0,0.0,0.0,0.0,0.0,0.0,0.0,0.0,0.0,0.0,0.0,0.0,0.0,0.0,0.0,0.0,0.0,0.0,0.0,0.0,0.0,0.0,0.0,0.0,0.0,0.0,0.0,0.0,0.0,0.0,0.0,0.0,0.0,0.0,0.0,0.0,0.0,0.0,0.0,0.0,0.0,0.0,0.0,0.0,0.0,0.0,0.0,0.0,0.0,0.0,0.0,0.0,0.0,0.0,0.0,0.0,0.0,0.0,0.0,0.0,0.0,0.0,0.0,0.0,0.0,0.0,0.0,0.0,0.0,0.0,0.0,0.0,0.0,0.0,0.0,0.0,0.0,0.0,0.0,0.0,0.0,0.0,0.0,0.0,0.0,0.0,0.0,0.0,0.0,0.0,0.0,0.0,0.0,0.0,0.0,0.0,0.0,0.0,0.0,0.0,0.0,0.0,0.0,0.0,0.0,0.0,0.0,0.0,0.0,0.0,0.0,0.0,0.0,0.0,0.0,0.0,0.0,0.0,0.0,0.0,0.0,0.0,0.0,0.0,0.0,0.0,0.0,0.0,0.0,0.0,0.0,0.0,0.0,0.0,0.0,0.0,0.0,0.0,0.0,0.0,0.0,0.0,0.0,0.0,0.0,0.0,0.0,0.0,0.0,0.0,0.0,0.0,0.0,0.0,0.0,0.0,0.0,0.0,0.0,0.0,0.0,0.0,0.0,0.0,0.0,0.0,0.0,0.0,0.0,0.0,0.0,0.0,0.0,0.0,0.0,0.0,0.0,0.0,0.0,0.0,0.0,0.0,0.0,0.0,0.0,0.0,0.0,0.0,0.0,0.0,0.0,0.0,0.0,0.0,0.0,0.0,0.0,0.0,0.0,0.0,0.0,0.0,0.0,0.0,0.0,0.0,0.0,0.0,0.0,0.0,0.0,0.0,0.0,0.0,0.0,0.0,0.0,0.0,0.0,0.0,0.0,0.0,0.0,0.0,0.0,0.0,0.0,0.0,0.0,0.0,0.0,0.0,0.0,0.0,0.0,0.0,0.0,0.0,0.0,0.0,0.0,0.0,0.0,0.0,0.0,0.0,0.0,0.0,0.0,0.0,0.0,0.0,0.0,0.0,0.0,0.0,0.0,0.0,0.0,0.0,0.0,0.0,0.0,0.0,0.0,0.0,0.0,0.0,0.0,0.0,0.0,0.0,0.0,0.0,0.0,0.0,0.0,0.0,0.0,0.0,0.0,0.0,0.0,0.0,0.0,0.0,0.0,0.0,0.0,0.0,0.0,0.0,0.0,0.0,0.0,0.0,0.0,0.0,0.0,0.0,0.0,0.0,0.0,0.0,0.0,0.0,0.0,0.0,0.0,0.0,0.0,0.0,0.0,0.0,0.0,0.0,0.0,0.0,0.0,0.0,0.0,0.0,0.0,0.0,0.0,0.0,0.0,0.0,0.0,0.0,0.0,0.0,0.0,0.0,0.0,0.0,0.0,0.0,0.0,0.0,0.0,0.0,0.0,0.0,0.0,0.0,0.0,0.0,0.0,0.0,0.0,0.0,0.0,0.0,0.0,0.0,0.0,0.0,0.0,0.0,0.0,0.0,0.0,0.0,0.0,0.0,0.0,0.0,0.0,0.0,0.0,0.0,0.0,0.0,0.0,0.0,0.0,0.0,0.0,0.0,0.0,0.0,0.0,0.0,0.0,0.0,0.0,0.0,0.0,0.0,0.0,0.0,0.0,0.0,0.0,0.0,0.0,0.0,0.0,0.0,0.0,0.0,0.0,0.0,0.0,0.0,0.0,0.0,0.0,0.0,0.0,0.0,0.0,0.0,0.0,0.0,0.0,0.0,0.0,0.0,0.0,0.0,0.0,0.0,0.0,0.0,0.0,0.0,0.0,0.0,0.0,0.0,0.0,0.0,0.0,0.0,0.0,0.0,0.0,0.0,0.0,0.0,0.0,0.0,0.0,0.0,0.0,0.0,0.0,0.0,0.0,0.0,0.0,0.0,0.0,0.0,0.0,0.0,0.0,0.0,0.0,0.0,0.0,0.0,0.0,0.0,0.0,0.0,0.0,0.0,0.0,0.0,0.0,0.0,0.0,0.0,0.0,0.0,0.0,0.0,0.0,0.0,0.0,0.0,0.0,0.0,0.0,0.0,0.0,0.0,0.0,0.0,0.0,0.0,0.0,0.0,0.0,0.0,0.0,0.0,0.0,0.0,0.0,0.0,0.0,0.0,0.0,0.0,0.0,0.0,0.0,0.0,0.0,0.0,0.0,0.0,0.0,0.0,0.0,0.0,0.0,0.0,0.0,0.0,0.0,0.0,0.0,0.0,0.0,0.0,0.0,0.0,0.0,0.0,0.0,0.0,0.0,0.0,0.0,0.0,0.0,0.0,0.0,0.0,0.0,0.0,0.0,0.0,0.0,0.0,0.0,0.0,0.0,0.0,0.0,0.0,0.0,0.0,0.0,0.0,0.0,0.0,0.0,0.0,0.0,0.0,0.0,0.0,0.0,0.0,0.0,0.0,0.0,0.0,0.0,0.0,0.0,0.0,0.0,0.0,0.0,0.0,0.0,0.0,0.0,0.0,0.0,0.0,0.0,0.0,0.0,0.0,0.0,0.0,0.0,0.0,0.0,0.0,0.0,0.0,0.0,0.0,0.0,0.0,0.0,0.0,0.0,0.0,0.0,0.0,0.0,0.0,0.0,0.0,0.0,0.0,0.0,0.0,0.0,0.0,0.0,0.0,0.0,0.0,0.0,0.7346,0.0,0.0,0.0,0.0,0.0,0.0,0.0,0.0,0.0,0.0,0.0,0.0,0.0,0.0,0.0,0.0,0.0,0.0,0.0,0.0,0.0,0.0,0.0,0.0,0.0,0.0,0.0,0.0,0.0,0.0,0.0,0.0,0.0,0.0,0.0,0.0,0.0,0.0,0.0,0.0,0.0,0.0,0.0,0.0,0.0,0.0,0.0,0.0,0.0,0.0,0.0,0.0,0.0,0.0,0.0,0.0,0.0,0.0,0.0,0.0,0.0,0.0,0.0,0.0,0.0,0.0,0.0,0.0,0.0,0.0,0.0,0.0,0.0,0.0,0.0,0.0,0.0,0.0,0.0,0.0,0.0,0.0,0.0,0.0,0.0,0.0,0.0,0.0,0.0,0.0,0.0,0.0,0.0,0.0,0.0,0.0,0.0,0.0,0.0,0.0,0.0,0.0,0.0,0.0,0.0,0.0,0.0,0.0,0.0,0.0,0.0,0.0,0.0,0.0,0.0,0.0,0.7106,0.0,0.0,0.0,0.0,0.0,0.0,0.0,0.0,0.0,0.0,0.0,0.0,0.0,0.0,0.0,0.0,0.0,0.0,0.0,0.0,0.0,0.0,0.0,0.0,0.0,0.0,0.0,0.0,0.0,0.0,0.0,0.0,0.0,0.0,0.0,0.0,0.0,0.0,0.0,0.0,0.0,0.0,0.0,0.0,0.0,0.0,0.0,0.0,0.0,0.0,0.0,0.0,0.0,0.0,0.0,0.0,0.0,0.0,0.0,0.0,0.0,0.0,0.0,0.0,0.0,0.0,0.0,0.0,0.0,0.0,0.0,0.0,0.0,0.0,0.0,0.0,0.0,0.0,0.0,0.0,0.0,0.0,0.0,0.0,0.0,0.0,0.0,0.0,0.0,0.0,0.0,0.0,0.0,0.0,0.0,0.0,0.0,0.0,0.0,0.0,0.0,0.0,0.0,0.0,0.0,0.0,0.0,0.0,0.7354,0.7051,0.7143,0.717,0.7115,0.6993,0.7673,0.7339,0.6346,0.0,0.0,0.0,0.0,0.0,0.0,0.0,0.0,0.0,0.0,0.0,0.0,0.0,0.0,0.0,0.0,0.0,0.0,0.0,0.0,0.0,0.0,0.0,0.0,0.0,0.0,0.0,0.0,0.0,0.0,0.0,0.0,0.0,0.0,0.0,0.0,0.0,0.0,0.0,0.4431,0.1607,0.0271,0.0276,0.0,0.0,0.0,0.0,0.0,0.0,0.0,0.0,0.0,0.0,0.0,0.0,0.0,0.0,0.0,0.0,0.0,0.0,0.0,0.0,0.0,0.0,0.0,0.0,0.0,0.0,0.0,0.0,0.0,0.0,0.0,0.0,0.0,0.0,0.0,0.0,0.0,0.0,0.0,0.0,0.0,0.0,0.0,0.0,0.5379,0.5515,0.0,0.0,0.0,0.0,0.0,0.0,0.0,0.0,0.0,0.0,0.0,0.0,0.0,0.681,0.6975,0.719,0.7282,0.7257,0.7327,0.7251,0.7146,0.7278,0.7329,0.7319,0.759,0.0,0.6634,0.6519,0.0,0.0,0.0,0.0,0.0,0.0,0.0,0.0,0.0,0.0,0.0,0.0,0.0,0.0,0.0,0.0,0.0,0.0,0.0,0.0,0.0,0.0,0.0,0.0,0.0,0.0,0.0,0.0,0.0,0.0,0.0,0.0,0.0,0.0,0.0,0.0,0.4822,0.3969,0.1959,0.0626,-0.0,-0.0,-0.0,-0.0,-0.0,-0.0,0.0,0.0,0.0,0.0,0.0,0.0,0.0,0.0,0.0,0.0,0.0,0.0,0.0,0.0,0.0,0.0,0.0,0.0,0.0,0.0,0.0,0.0,0.0,0.0,0.0,0.0,0.0,0.0,0.0,0.0,0.0,0.0,0.0,0.0,0.0,0.0,0.0,0.0,0.0,0.5406,0.5542,0.5352,0.5555,0.5667,0.0,0.0,0.0,0.0,0.0,0.0,0.0,0.0,0.0,0.6722,0.6936,0.701,0.6929,0.7224,0.7421,0.7519,0.7672,0.7797,0.7896,0.7963,0.7994,0.7997,0.8065,0.7899,0.755,0.7146,0.6966,0.6943,0.0,0.0,0.0,0.0,0.6892,0.6949,0.0,0.0,0.0,0.0,0.0,0.0,0.0,0.0,0.0,0.0,0.0,0.0,0.0,0.0,0.0,-0.0,0.0,0.0,0.0,0.0,0.0,0.0,0.0,0.0,0.0,0.0,0.0,0.0,0.377,0.2667,-0.0,-0.0,-0.0,-0.0,-0.0,-0.0,-0.0,-0.0,-0.0,0.0,0.0,0.0,0.0,0.0,0.0,0.0,0.0,0.0,0.0,0.0,0.0,0.0,0.0,0.0,0.0,0.0,0.0,0.0,0.0,0.0,0.0,0.0,0.0,0.0,0.0,0.0,0.0,0.0,0.0,0.0,0.0,0.0,0.0,0.0,0.0,0.0,0.0,0.5603,0.5735,0.5399,0.5755,0.5915,0.0,0.0,0.0,0.0,0.0,0.0,0.6851,0.6909,0.7,0.7149,0.7333,0.738,0.7272,0.7529,0.7767,0.7984,0.8099,0.8269,0.8482,0.8523,0.852,0.8482,0.8523,0.8459,0.8286,0.776,0.7475,0.7366,0.7326,0.7336,0.7366,0.7326,0.7336,0.738,0.0,0.0,0.0,0.0,0.0,0.0,0.0,0.0,0.0,0.0,0.0,0.0,0.0,0.0,-0.0,-0.0,-0.0,-0.0,0.0,0.0,0.0,0.0,0.0,0.0,0.0,0.0,0.0,0.0201,0.0277,0.0146,-0.0,-0.0,-0.0,-0.0,-0.0,-0.0,-0.0,-0.0,-0.0,-0.0,0.0,0.0,0.0,0.0,0.0,0.0,0.0,0.0,0.0,0.0,0.0,0.0,0.0,0.0,0.0,0.0,0.0,0.0,0.0,0.0,0.0,0.0,0.0,0.0,0.0,0.0,0.0,0.0,0.0,0.0,0.0,0.0,0.0,0.0,0.0,0.0,0.0,0.0,0.0,0.5986,0.638,0.0,0.0,0.0,0.0,0.6644,0.6797,0.7017,0.7322,0.7475,0.7617,0.776,0.8058,0.8211,0.8204,0.835,0.8435,0.8448,0.8455,0.8469,0.8486,0.8632,0.8618,0.8489,0.8635,0.8611,0.8445,0.8136,0.8001,0.798,0.7834,0.7865,0.7977,0.7831,0.7868,0.7974,0.0,0.0,0.0,0.0,0.0,0.0,0.0,0.0,0.0,0.0,0.0,0.0,0.0,-0.0,-0.0,-0.0,-0.0,-0.0,-0.0,0.0,0.0,0.0,0.0,0.0,0.0,0.0,0.2338,-0.0,-0.0,-0.0,-0.0,-0.0,-0.0,-0.0,-0.0,-0.0,0.0171,0.3272,0.4401,0.394,0.2373,0.2509,0.0,0.0,0.0,0.0,0.0,0.0,0.0,0.0,0.0,0.0,0.0,0.0,0.0,0.0,0.0,0.0,0.0,0.0,0.0,0.0,0.0,0.0,0.0,0.0,0.0,0.0,0.0,0.0,0.0,0.0,0.0,0.0,0.0,0.0,0.0,0.0,0.0,0.6325,0.6712,0.0,0.6573,0.6759,0.6966,0.7122,0.736,0.7631,0.7933,0.8004,0.814,0.8384,0.8496,0.8554,0.8554,0.8703,0.8726,0.8628,0.873,0.8774,0.8777,0.8832,0.8828,0.8784,0.893,0.8964,0.8913,0.8906,0.8672,0.8319,0.8265,0.8275,0.8316,0.8262,0.8275,0.8316,0.0,0.0,0.0,0.0,0.0,0.0,0.0,0.0,0.0,0.0,0.0,-0.0,-0.0,-0.0,-0.0,-0.0,-0.0,0.0489,0.1736,0.0,0.0,0.0,0.0,0.0,0.0,0.4951,0.3398,-0.0,-0.0,-0.0,-0.0,-0.0,-0.0,-0.0,-0.0,-0.0,0.0366,0.5267,0.7168,0.6727,0.481,0.4072,0.4296,0.0,0.0,0.0,0.0,0.0,0.0,0.0,0.0,0.0,0.0,0.0,0.0,0.0,0.0,0.0,0.0,0.0,0.0,0.0,0.0,0.0,0.0,0.0,0.0,0.0,0.0,0.0,0.0,0.0,0.0,0.0,0.0,0.0,0.0,0.0,0.6946,0.6793,0.7217,0.7404,0.7105,0.7346,0.7584,0.7733,0.7977,0.8248,0.8554,0.857,0.8682,0.893,0.8937,0.8937,0.8937,0.9035,0.9035,0.8937,0.9039,0.9086,0.9086,0.9086,0.9059,0.9015,0.9113,0.9154,0.9161,0.9262,0.91,0.8781,0.873,0.8679,0.8635,0.8635,0.8635,0.8635,0.0,0.0,0.0,0.0,0.0,0.0,0.0,0.0,0.0,0.0,-0.0,-0.0,-0.0,-0.0,-0.0,-0.0,-0.0,0.1511,0.4974,0.536,0.0,0.0,0.0,0.0,0.4537,0.439,0.2917,-0.0,-0.0,-0.0,-0.0,-0.0,-0.0,-0.0,-0.0,-0.0,0.0382,0.5561,0.7823,0.7827,0.7013,0.6833,0.7012,0.0,0.0,0.0,0.0,0.0,0.0,0.0,0.0,0.0,0.0,0.0,0.0,0.0,0.0,0.0,0.0,0.0,0.0,0.0,0.0,0.0,0.0,0.0,0.0,0.0,0.0,0.0,0.0,0.0,0.0,0.0,0.0,0.0,0.6502,0.7139,0.7553,0.7414,0.7919,0.816,0.7868,0.8113,0.835,0.8492,0.8645,0.8859,0.9144,0.9161,0.9228,0.9384,0.9388,0.9388,0.9388,0.9395,0.9391,0.9381,0.9388,0.9388,0.9381,0.9381,0.93,0.9161,0.9164,0.9167,0.9167,0.9167,0.9252,0.9367,0.9218,0.9072,0.8947,0.8947,0.8944,0.894,0.0,0.0,0.0,0.0,0.0,0.0,0.0,0.0,0.0,0.0,-0.0,-0.0,-0.0,-0.0,-0.0,-0.0,-0.0,0.0428,0.1394,0.0,0.0,0.0,0.0,0.0,0.5076,0.2565,0.086,-0.0,-0.0,-0.0,-0.0,-0.0,-0.0,-0.0,-0.0,-0.0,0.0099,0.1588,0.3339,0.5202,0.6796,0.7182,0.6767,0.0,0.0,0.0,0.0,0.0,0.0,0.0,0.0,0.0,0.0,0.0,0.0,0.0,0.0,0.0,0.0,0.0,0.0,0.0,0.0,0.0,0.0,0.0,0.0,0.0,0.0,0.0,0.0,0.0,0.0,0.0,0.0,0.7251,0.7139,0.7489,0.7821,0.8004,0.8258,0.8435,0.8459,0.8638,0.8815,0.8957,0.911,0.9232,0.9313,0.9317,0.9388,0.9544,0.9547,0.9547,0.9547,0.9649,0.9591,0.9384,0.9493,0.949,0.9381,0.9381,0.9357,0.9323,0.9435,0.9486,0.9486,0.9486,0.9442,0.9378,0.9337,0.9225,0.9093,0.9093,0.9028,0.894,0.0,0.0,0.0,0.0,0.0,0.0,0.0,0.0,0.0,0.0,-0.0,-0.0,-0.0,-0.0,-0.0,-0.0,-0.0,0.0355,0.1227,0.0,0.0,0.0,0.0,0.0972,0.3066,0.1055,-0.0,-0.0,-0.0,-0.0,-0.0,-0.0,-0.0,-0.0,-0.0,-0.0,-0.0,-0.0,0.1509,0.4209,0.6825,0.7629,0.7234,0.7139,0.7024,0.6554,0.3946,0.2394,0.1516,0.0417,0.0,0.0,0.0,0.0,0.0,0.0,0.0,0.0,0.0,0.0,0.0,0.0,0.0,0.0,0.0,0.0,0.0,0.0,0.0,0.0,0.0,0.0,0.0,0.0,0.7475,0.7841,0.8004,0.8177,0.835,0.853,0.8733,0.8893,0.8981,0.9072,0.9184,0.9334,0.9425,0.9503,0.9561,0.9564,0.9605,0.9696,0.9696,0.9696,0.9696,0.9781,0.9734,0.9564,0.9656,0.9652,0.9564,0.9503,0.9476,0.0,0.9435,0.9456,0.951,0.9445,0.9405,0.0,0.0,0.0,0.0,0.0,0.9011,0.894,0.0,0.0,0.0,0.0,0.0,0.0,0.0,0.0,0.0,0.0,0.0,-0.0,-0.0,0.0391,0.0607,0.0609,0.0607,0.1352,0.0,0.0,0.0,0.4665,0.2119,0.0512,-0.0,-0.0,-0.0,-0.0,-0.0,-0.0,-0.0,-0.0,-0.0,-0.0,-0.0,-0.0,-0.0,-0.0,0.1421,0.3853,0.6796,0.7979,0.7974,0.7573,0.7502,0.7674,0.7299,0.5944,0.4059,0.1707,0.0,0.0,0.0,0.0,0.0,0.0,0.0,0.0,0.0,0.0,0.0,0.0,0.0,0.0,0.0,0.0,0.0,0.0,0.0,0.0,0.0,0.0,0.0,0.0,0.796,0.8357,0.891,0.9005,0.9008,0.8991,0.9222,0.9388,0.9405,0.9408,0.9469,0.9622,0.9649,0.9713,0.9839,0.0,0.0,0.0,0.0,0.9829,0.9846,0.9829,0.9829,0.9846,0.9829,0.9822,0.9819,0.969,0.9625,0.9595,0.932,0.9273,0.9367,0.9215,0.9235,0.9344,0.9205,0.9076,0.896,0.8944,0.894,0.894,0.0,0.0,0.0,0.0,0.0,0.0,0.0,0.0,0.0,-0.0,-0.0,-0.0,-0.0,0.2613,0.4376,0.4389,0.4376,0.4122,0.0,0.0,0.708,0.6937,0.6124,0.3939,0.0091,-0.0,-0.0,-0.0,-0.0,-0.0,-0.0,-0.0,-0.0,-0.0,-0.0,-0.0,-0.0,-0.0,0.0316,0.1155,0.6031,0.8032,0.7973,0.7767,0.7675,0.758,0.7597,0.7316,0.6905,0.6608,0.5239,0.3605,0.3295,0.0,0.0,0.0,0.0,0.0,0.0,0.0,0.0,0.0,0.0,0.0,0.0,0.0,0.0,0.0,0.0,0.0,0.0,0.0,0.0,0.8228,0.8662,0.9022,0.9262,0.9401,0.9432,0.931,0.9347,0.9432,0.9554,0.9564,0.9625,0.9771,0.9893,0.9975,1.0005,1.0005,1.0005,1.0005,0.9886,0.988,1.0005,0.9883,0.9883,1.0005,0.0,0.0,0.9819,0.9791,0.9717,0.9605,0.9547,0.9466,0.9367,0.9215,0.9171,0.9195,0.9164,0.9133,0.9096,0.8981,0.894,0.894,0.0,0.0,0.0,0.0,0.0,0.0,0.0,0.0,0.0,0.0,-0.0,0.0603,0.2116,0.3854,0.4942,0.4929,0.5322,0.0,0.0,0.6125,0.7071,0.7282,0.7276,0.5585,0.1842,0.0666,-0.0,-0.0,-0.0,-0.0,-0.0,-0.0,-0.0,-0.0,-0.0,-0.0,-0.0,-0.0,-0.0,0.0213,0.2951,0.5617,0.7998,0.7899,0.7819,0.7848,0.7882,0.7801,0.7851,0.8192,0.7413,0.6432,0.6418,0.6158,0.5686,0.0,0.0,0.0,0.0,0.0,0.0,0.0,0.0,0.0,0.0,0.0,0.0,0.0,0.0,0.6805,0.0,0.0,0.7907,0.8764,0.9086,0.9215,0.9476,0.969,0.9747,0.952,0.9557,0.9659,0.9815,0.9761,0.9808,1.0036,0.9978,0.9968,1.0046,1.0049,1.0049,1.0049,1.0049,1.0086,1.0164,1.009,1.0049,1.0046,0.9971,0.9893,0.9819,0.9747,0.9717,0.9707,0.9557,0.9496,0.9483,0.933,0.9222,0.9154,0.9154,0.9154,0.9144,0.9072,0.9001,0.894,0.0,0.0,0.0,0.0,0.0,0.0,0.0,0.0,0.0,0.0,-0.0,0.0941,0.3346,0.4168,0.4505,0.0,0.0,0.0,0.0,0.65,0.6905,0.7,0.7175,0.6377,0.4422,0.1528,-0.0,-0.0,-0.0,-0.0,-0.0,-0.0,-0.0,-0.0,-0.0,-0.0,-0.0,-0.0,-0.0,-0.0,-0.0,0.2573,0.6465,0.7061,0.7188,0.7261,0.7235,0.7324,0.7505,0.8208,0.8289,0.8289,0.8672,0.8538,0.7994,0.7458,0.7424,0.0,0.0,0.0,0.0,0.0,0.0,0.0,0.0,0.0,0.6939,0.736,0.7198,0.7252,0.7808,0.7937,0.8291,0.9131,0.9319,0.9453,0.968,0.99,0.9961,0.9724,0.9822,0.9958,1.008,0.9981,1.0002,1.0219,1.0032,0.9964,1.009,1.0093,1.0107,1.0134,1.0229,1.0293,1.0321,1.0293,1.0232,1.0134,1.0107,1.0029,0.9907,0.9761,0.9741,0.9805,0.951,0.9435,0.9513,0.9418,0.931,0.9201,0.9228,0.9205,0.915,0.912,0.9039,0.894,0.0,0.0,0.0,0.0,0.0,0.0,0.0,0.0,0.0,0.0,0.0,0.0,0.0,0.0,0.0,0.0,0.0,0.0,0.5979,0.6652,0.7192,0.7299,0.7187,0.7122,0.6936,0.2356,-0.0,-0.0,-0.0,-0.0,-0.0,-0.0,-0.0,-0.0,-0.0,-0.0,-0.0,-0.0,-0.0,-0.0,-0.0,0.033,0.1111,0.3557,0.4418,0.4431,0.4459,0.4724,0.5468,0.7394,0.8075,0.8089,0.846,0.8618,0.8509,0.8072,0.0,0.7675,0.7238,0.7051,0.7068,0.7434,0.7305,0.7336,0.0,0.0,0.8157,0.8472,0.8551,0.8675,0.8746,0.8984,0.9272,0.97,0.988,0.9861,0.9998,1.0029,1.0036,1.0002,1.0134,1.0236,1.0253,1.0239,1.0185,1.0083,1.0171,1.0236,1.0253,1.0253,1.031,1.0439,1.0337,1.0341,1.0466,1.0344,1.0334,1.0439,1.0314,1.0246,1.0226,1.007,0.9934,0.9805,0.951,0.9313,0.9211,0.9334,0.9371,0.9367,0.9507,0.9391,0.9137,0.9011,0.8954,0.894,0.0,0.0,0.0,0.0,0.0,0.0,0.0,0.0,0.0,0.0,0.0,0.0,0.0,0.0,0.0,0.0,0.0,0.0,0.3801,0.5698,0.6955,0.7214,0.7143,0.7183,0.7188,0.5332,0.2847,-0.0,-0.0,-0.0,-0.0,-0.0,-0.0,-0.0,-0.0,-0.0,-0.0,-0.0,-0.0,-0.0,-0.0,0.1884,0.4416,0.2477,0.251,0.3555,0.222,0.2767,0.0,0.0,0.7756,0.8092,0.8387,0.8408,0.8282,0.8096,0.7994,0.0,0.7716,0.7556,0.0,0.0,0.776,0.7936,0.8459,0.855,0.8635,0.9022,0.9232,0.9285,0.9453,0.9667,0.9981,0.0,1.0164,1.0202,1.0185,1.0185,1.0151,1.0059,1.0185,1.028,1.028,1.0198,1.0192,1.03,1.029,1.0317,1.0399,1.0405,1.0429,1.049,1.0521,1.0565,1.0622,1.0565,1.0521,1.049,1.0432,1.0314,1.0144,1.008,0.9964,0.9815,0.969,0.9602,0.9547,0.9608,0.9588,0.952,0.9585,0.9476,0.9279,0.9218,0.9086,0.894,0.0,0.0,0.0,0.0,0.0,0.0,0.0,0.0,0.0,0.0,0.0,0.0,0.0,0.0,0.0,0.0,0.0,0.0,0.0,0.3869,0.5203,0.6057,0.6129,0.0,0.7122,0.7359,0.5705,0.2089,0.148,0.0704,-0.0,-0.0,-0.0,-0.0,-0.0,-0.0,0.0115,0.1724,0.2413,0.2409,0.1458,0.3424,0.6557,0.3291,0.2673,0.3295,0.2303,0.3042,0.0,0.0,0.7381,0.7902,0.8157,0.8147,0.8038,0.8038,0.8011,0.7977,0.7977,0.0,0.0,0.7974,0.8228,0.8503,0.8689,0.8849,0.9072,0.9479,0.9632,0.9647,0.9774,1.0015,1.0226,1.0297,1.027,1.0253,1.0276,1.0209,1.0114,1.0002,1.0012,1.0063,1.0148,1.0131,1.0202,1.0419,1.0337,1.0341,1.0483,1.049,1.051,1.0555,1.0663,1.0721,1.0721,1.0721,1.0663,1.0555,1.0555,1.0422,1.0168,1.0086,0.9944,0.9764,0.9802,0.9798,0.9768,0.9805,0.9737,0.9612,0.9652,0.9551,0.9388,0.9429,0.9256,0.8998,0.0,0.0,0.0,0.0,0.0,0.0,0.0,0.0,0.0,0.0,0.0,0.0,0.0,0.0,0.0,0.0,0.0,0.0,0.0,0.094,0.1235,0.3564,0.3725,0.4769,0.7042,0.7414,0.7543,0.7426,0.5031,0.251,-0.0,-0.0,-0.0,-0.0,-0.0,-0.0,0.0345,0.6221,0.867,0.8406,0.5204,0.3921,0.4334,0.6508,0.5591,0.3424,0.601,0.0,0.0,0.0,0.7224,0.7417,0.7577,0.7818,0.0,0.8038,0.7933,0.0,0.0,0.0,0.8102,0.8391,0.8693,0.8994,0.9286,0.9473,0.9666,0.9968,0.9917,0.9863,1.0022,0.9934,0.9934,1.0232,1.0154,1.011,1.0259,1.0022,0.9832,0.9829,0.9581,0.952,0.0,1.01,1.0276,1.0287,1.0283,1.0341,1.0483,1.049,1.0561,1.0707,1.0717,1.0721,1.0721,1.0721,1.0717,1.0714,1.0714,1.0629,1.047,1.0181,0.989,0.9625,0.9761,0.9744,0.9629,0.9764,0.9737,0.9625,0.9761,0.9635,0.9398,0.9547,0.9408,0.9147,0.0,0.0,0.0,0.0,0.0,0.0,0.0,0.0,0.0,0.0,0.0,0.0,0.0,0.0,0.0,0.0,0.0,0.0,0.0,0.027,0.0359,0.1206,0.1187,0.1561,0.2368,0.5617,0.7342,0.7641,0.694,0.6166,0.524,0.3504,0.2606,0.2615,0.2867,0.2932,0.3159,0.4854,0.6989,0.9103,0.7598,0.7028,0.7045,0.7229,0.6699,0.5994,0.0,0.0,0.0,0.0,0.0,0.0,0.7248,0.0,0.7319,0.7414,0.7553,0.7712,0.0,0.0,0.8404,0.871,0.9011,0.9286,0.9486,0.9646,0.9805,1.0008,0.9852,0.9727,0.9869,0.9778,0.9744,0.9944,1.0015,1.0103,1.0259,1.0103,0.99,0.9703,0.9595,0.0,0.0,0.0,0.0,1.0263,1.0368,1.0487,1.0636,1.0643,1.0666,1.0717,1.0721,1.0721,1.0721,1.0721,1.0721,1.0717,1.0521,1.0402,1.0341,1.0036,0.9842,0.9751,0.9798,0.9795,0.9754,0.9802,0.9791,0.9754,0.9802,0.9761,0.968,0.973,0.9625,0.9442,0.0,0.0,0.0,0.0,0.0,0.0,0.0,0.0,0.0,0.0,0.0,0.0,0.0,0.0,0.0,0.0,0.0,0.0,0.0,0.0,-0.0,-0.0,-0.0,-0.0,-0.0,0.3669,0.6097,0.7238,0.7519,0.7701,0.787,0.62,0.5392,0.5444,0.5708,0.5847,0.5877,0.558,0.6707,0.8686,0.8307,0.8093,0.8022,0.7308,0.709,0.0,0.0,0.0,0.0,0.0,0.0,0.0,0.0,0.6827,0.6956,0.7099,0.7434,0.7834,0.8184,0.8496,0.8794,0.9103,0.9367,0.9574,0.9673,0.9768,0.9859,0.9834,0.9617,0.9554,0.9646,0.9459,0.9351,0.9551,0.9574,0.9683,0.9995,0.9859,0.97,0.9618,0.9561,0.951,0.0,0.0,0.0,1.0175,1.028,1.0422,1.0626,1.0639,1.0663,1.0717,1.0721,1.0721,1.0721,1.0721,1.0694,1.0636,1.0341,1.0198,1.0188,0.9934,0.9822,0.9822,0.9822,0.9822,0.9822,0.9822,0.9822,0.9822,0.9822,0.9822,0.9822,0.9822,0.9764,0.9663,0.0,0.0,0.0,0.0,0.0,0.0,0.0,0.0,0.0,0.0,0.0,0.0,0.0,0.0,0.0,0.0,0.0,0.0,0.0,0.0,0.0,-0.0,-0.0,-0.0,-0.0,0.1669,0.3859,0.6561,0.6773,0.7177,0.762,0.7897,0.7997,0.7959,0.7927,0.8127,0.8467,0.8059,0.7759,0.7419,0.7512,0.7411,0.7146,0.698,0.0,0.0,0.0,0.0,0.0,0.0,0.0,0.0,0.0,0.6468,0.697,0.7129,0.759,0.815,0.8608,0.895,0.9249,0.9551,0.9744,0.9731,0.9599,0.9589,0.9582,0.9451,0.9439,0.9334,0.0,0.0,0.8784,0.9083,0.8906,0.894,0.9537,0.9371,0.9296,0.0,0.0,0.0,0.0,0.0,0.0,1.0039,0.0,1.0192,1.0487,1.0504,1.0571,1.0714,1.0721,1.0717,1.0707,1.07,1.0626,1.0477,1.0188,1.0049,1.0042,0.989,0.9822,0.9822,0.9822,0.9822,0.9822,0.9822,0.9822,0.9822,0.9822,0.9822,0.9822,0.9822,0.9822,0.9802,0.0,0.0,0.0,0.0,0.0,0.0,0.0,0.0,0.0,0.0,0.0,0.0,0.0,0.0,0.0,0.0,0.0,0.0,0.0,0.0,0.0,0.0,0.0,0.0,0.0,0.0,0.0,0.0,0.0,0.6619,0.6929,0.717,0.7288,0.7148,0.7326,0.7486,0.762,0.7426,0.751,0.7644,0.0,0.7346,0.7431,0.0,0.0,0.0,0.0,0.0,0.0,0.0,0.0,0.0,0.0,0.6787,0.716,0.7529,0.7913,0.8336,0.8686,0.9168,0.9449,0.9657,0.9741,0.9114,0.6668,0.6581,0.7447,0.8904,0.9011,0.8679,0.0,0.0,0.0,0.8774,0.8947,0.0,0.9696,0.97,0.0,0.9758,0.0,0.9768,0.9924,0.9836,0.0,0.0,1.0222,1.0351,1.0646,1.0663,1.068,1.0717,1.0721,1.0666,1.0551,1.0446,1.0375,1.0331,1.0141,1.0049,1.0042,0.989,0.9822,0.9822,0.9822,0.9822,0.9822,0.9822,0.9822,0.9822,0.9822,0.9822,0.9822,0.9822,0.9822,0.9815,0.0,0.0,0.0,0.0,0.0,0.0,0.0,0.0,0.0,0.0,0.0,0.0,0.0,0.0,0.0,0.0,0.0,0.0,0.0,0.0,0.0,0.0,0.0,0.0,0.0,0.0,0.0,0.0,0.0,0.0,0.0,0.6437,0.6592,0.6843,0.6987,0.701,0.6893,0.0,0.0,0.0,0.0,0.0,0.0,0.0,0.0,0.0,0.0,0.0,0.0,0.0,0.0,0.6936,0.698,0.7244,0.7611,0.7994,0.0,0.8764,0.902,0.9436,0.9268,0.8,0.8607,0.9131,0.7,0.6899,0.7464,0.8417,0.8471,0.0,0.0,0.0,0.0,0.0,0.0,0.0,0.9445,0.9527,0.9602,0.0,0.988,0.0,1.0039,1.0032,1.012,0.0,1.0253,1.0307,1.0605,1.0619,1.0649,1.0717,1.0721,1.0646,1.0493,1.0351,1.0246,1.0178,1.0022,0.9947,0.9944,0.9859,0.9822,0.9822,0.0,0.9822,0.9822,0.9822,0.9822,0.9822,0.9822,0.9822,0.9822,0.9822,0.9822,0.9822,0.0,0.0,0.0,0.0,0.0,0.0,0.0,0.0,0.0,0.0,0.0,0.0,0.0,0.0,0.0,0.0,0.0,0.0,0.0,0.0,0.0,0.0,0.0,0.0,0.0,0.0,0.0,0.0,0.0,0.0,0.0,0.0,0.0,0.0,0.0,0.0,0.0,0.0,0.0,0.0,0.0,0.0,0.0,0.0,0.0,0.0,0.0,0.0,0.0,0.0,0.6902,0.7122,0.738,0.7767,0.8191,0.8509,0.8876,0.9256,0.9463,0.9392,0.8366,0.5039,0.6812,0.909,0.8456,0.8542,0.8546,0.7823,0.0,0.8069,0.7804,0.7668,0.7702,0.8018,0.0,0.833,0.9079,0.9184,0.934,0.9771,0.9958,1.0059,1.0076,1.0202,1.0331,1.0456,1.0243,1.0229,1.0507,1.0521,1.0582,1.0717,1.068,1.0599,1.0466,1.03,1.0154,1.0019,0.9883,0.9822,0.9822,0.9822,0.9822,0.9822,0.9822,0.0,0.9822,0.9822,0.9822,0.9822,0.9822,0.9822,0.9822,0.9822,0.9822,0.9822,0.0,0.0,0.0,0.0,0.0,0.0,0.0,0.0,0.0,0.0,-0.0,-0.0,0.0,0.0,0.0,0.0,0.0,0.0,0.0,0.0,0.0,0.0,0.0,0.0,0.0,0.0,0.0,0.0,0.0,0.0,0.0,0.0,0.0,0.0,0.0,0.0,0.0,0.0,0.0,0.0,0.0,0.0,0.0,0.0,0.0,0.0,0.0,0.0,0.0,0.0,0.7411,0.7855,0.7906,0.8231,0.8676,0.91,0.9279,0.9412,0.973,0.7736,0.4916,0.1721,0.4584,0.8122,0.7519,0.7559,0.0,0.0,0.0,0.7509,0.7458,0.7533,0.0,0.816,0.0,0.0,0.0,0.0,0.9459,0.0,0.0,0.0,0.0,0.0,0.0,0.0,0.0,1.0493,1.067,1.068,1.0694,1.0721,1.0483,1.0344,1.0317,1.0039,0.9886,0.9859,0.9832,0.9822,0.9822,0.9822,0.9822,0.9822,0.9822,0.0,0.9822,0.9822,0.9822,0.9822,0.9822,0.9822,0.9822,0.9822,0.9822,0.9822,0.0,0.0,0.0,0.0,0.0,0.0,0.0,0.0,-0.0,-0.0,-0.0,-0.0,-0.0,-0.0,0.0,0.0,0.0,0.0,0.0,0.0,0.0,0.0,0.0,0.0,0.0,0.0,0.0,0.0,0.0,0.0,0.0,0.0,0.0,0.0,0.0,0.0,0.0,0.0,0.0,0.0,0.0,0.0,0.0,0.0,0.0,0.0,0.0,0.0,0.0,0.0,0.736,0.7946,0.8109,0.8469,0.8886,0.9178,0.9374,0.9551,0.9791,0.8616,0.6625,0.3162,0.5463,0.8277,0.7539,0.0,0.0,0.0,0.7265,0.7231,0.7156,0.0,0.0,0.0,0.0,0.0,0.0,0.0,0.0,0.0,0.0,0.0,0.0,0.0,0.0,0.0,0.0,1.0524,1.0599,1.0677,1.0721,1.0721,1.0582,1.0436,1.0283,1.0134,0.9981,0.9822,0.9822,0.9822,0.9822,0.9822,0.9822,0.9822,0.9822,0.0,0.9822,0.9822,0.9822,0.9822,0.9822,0.9822,0.9822,0.9822,0.9822,0.9822,0.0,0.0,0.0,0.0,0.0,0.0,0.0,-0.0,-0.0,-0.0,-0.0,-0.0,-0.0,-0.0,-0.0,0.0,0.0,0.0,0.0,0.0,0.0,0.0,0.0,0.0,0.0,0.0,0.0,0.0,0.0,0.0,0.0,0.0,0.0,0.0,0.0,0.0,0.0,0.0,0.0,0.0,0.0,0.0,0.0,0.0,0.0,0.0,0.0,0.0,0.0,0.0,0.7061,0.7621,0.7896,0.8401,0.8913,0.9025,0.9296,0.9595,0.9758,0.9829,0.9083,0.6295,0.7277,0.866,0.7932,0.7717,0.0,0.0,0.7115,0.7061,0.6949,0.0,0.0,0.0,0.0,0.0,0.0,0.0,0.0,0.0,0.0,0.0,0.0,0.0,0.0,0.0,0.0,0.0,1.0538,1.0656,1.0721,1.0721,1.066,1.0514,1.0283,1.0215,1.0063,0.9822,0.9822,0.9822,0.9822,0.9822,0.9822,0.9822,0.9822,0.0,0.0,0.9822,0.9822,0.9822,0.9822,0.9802,0.9774,0.9774,0.9754,0.973,0.0,0.0,0.0,0.0,0.0,0.0,0.0,-0.0,-0.0,-0.0,-0.0,-0.0,-0.0,-0.0,-0.0,0.0,0.0,0.0,0.0,0.0,0.0,0.0,0.0,0.0,0.0,0.0,0.0,-0.0,-0.0,0.0,0.0,0.0,0.0,0.0,0.0,0.0,0.0,0.0,0.0,0.0,0.0,0.0,0.0,0.0,0.0,0.0,0.0,0.0,0.0,0.0,0.0,0.6834,0.7,0.7824,0.8733,0.8747,0.0,0.0,0.9591,0.9741,0.9731,0.9342,0.8936,0.8566,0.8027,0.0,0.0,0.7177,0.7037,0.6946,0.6929,0.7054,0.0,0.0,0.0,0.0,0.0,0.0,0.0,0.0,0.0,0.0,0.0,0.0,0.0,0.0,0.0,0.0,1.0683,1.0714,1.0721,1.0721,1.046,1.0307,1.028,1.0002,0.9849,0.9822,0.9822,0.9822,0.9822,0.9822,0.9822,0.9822,0.9822,0.0,0.0,0.9822,0.9822,0.9822,0.9822,0.9741,0.9629,0.9629,0.954,0.9442,0.0,0.0,0.0,0.0,0.0,0.0,0.0,-0.0,-0.0,-0.0,-0.0,-0.0,-0.0,-0.0,-0.0,0.0,0.0,0.0,0.0,0.0,0.0,0.0,0.0,0.0,0.0,0.0,0.0,-0.0,-0.0,0.0,0.0,0.0,0.0,0.0,0.0,0.0,0.0,0.0,0.0,0.0,0.0,0.0,0.0,0.0,0.0,0.0,0.0,0.0,0.0,0.0,0.0,0.0,0.6454,0.7021,0.0,0.0,0.856,0.8933,0.9357,0.9588,0.9686,0.9595,0.9141,0.8603,0.8127,0.0,0.0,0.7173,0.7027,0.6929,0.6929,0.7044,0.7132,0.0,0.0,0.0,0.0,0.0,0.0,0.0,0.0,0.0,0.0,0.0,0.0,0.0,0.0,0.0,1.0443,1.0622,1.0677,1.0585,1.047,1.0321,1.0144,1.0019,0.9914,0.9822,0.9822,0.9822,0.9822,0.9822,0.9822,0.9822,0.9822,0.0,0.0,0.9822,0.9822,0.9822,0.9822,0.9734,0.9608,0.9608,0.9513,0.9401,0.0,0.0,0.0,0.0,0.0,-0.0,-0.0,-0.0,-0.0,-0.0,-0.0,-0.0,-0.0,-0.0,-0.0,-0.0,0.0,0.0,0.0,0.0,0.0,0.0,0.0,0.0,0.0,0.0,-0.0,-0.0,-0.0,-0.0,0.0,0.0,-0.0,0.0118,0.0,0.0,0.0,0.0,0.0,0.0,0.0,0.0,0.0,0.0,0.0,0.0,0.0,0.0,0.0,0.0,0.0,0.0,0.0,0.0,0.0,0.0,0.8014,0.8462,0.8974,0.9289,0.9459,0.9398,0.9089,0.8682,0.0,0.0,0.0,0.7173,0.7061,0.6976,0.6936,0.7044,0.7095,0.0,0.0,0.0,0.0,0.0,0.0,0.0,0.0,0.0,0.0,0.0,0.0,0.0,0.0,0.0,0.0,1.0477,1.0541,1.0432,1.0429,1.0307,1.0049,1.0005,0.9927,0.9822,0.9822,0.9822,0.9822,0.9822,0.9822,0.9822,0.9822,0.0,0.0,0.9822,0.9822,0.9819,0.9774,0.9696,0.9605,0.9557,0.9445,0.9344,0.0,0.0,0.0,0.0,0.0,0.0,0.0,-0.0,-0.0,-0.0,-0.0,-0.0,-0.0,-0.0,-0.0,-0.0,0.0,0.0,0.0,0.0,0.0,0.0,0.0,0.0,0.0,0.0,-0.0,-0.0,-0.0,-0.0,-0.0,-0.0,-0.0,0.0118,0.0,0.0,0.0,0.0,0.0,0.0,0.0,0.0,0.0,0.0,0.0,0.0,0.0,0.0,0.0,0.0,0.0,0.0,0.0,0.0,0.0,0.0,0.7465,0.8109,0.8408,0.8818,0.9195,0.9344,0.893,0.8448,0.0,0.0,0.7326,0.7173,0.7139,0.7095,0.6956,0.7044,0.7095,0.6953,0.7048,0.0,0.0,0.0,0.0,0.0,0.0,0.0,0.0,0.0,0.0,0.0,0.0,0.0,0.0,1.0283,1.0283,1.0283,1.0283,1.0209,1.0049,0.9897,0.9822,0.9822,0.9822,0.9822,0.9822,0.9822,0.9822,0.0,0.0,0.0,0.0,0.9822,0.9822,0.9805,0.9666,0.9612,0.9591,0.9439,0.9286,0.9198,0.0,0.0,0.0,0.0,0.0,0.0,0.0,-0.0,-0.0,-0.0,-0.0,-0.0,-0.0,-0.0,-0.0,-0.0,0.0,0.0,0.0,0.0,0.0,0.0,0.0,0.0,0.0,0.0,-0.0,-0.0,-0.0,-0.0,-0.0,-0.0,-0.0,0.0061,0.0994,0.0,0.0,0.0,0.0,0.0,0.0,0.0,0.0,0.0,0.0,0.0,0.0,0.0,0.0,0.0,0.0,0.0,0.0,0.0,0.0,0.0,0.0,0.0,0.777,0.8052,0.8248,0.8296,0.8163,0.796,0.7712,0.0,0.7326,0.7173,0.7139,0.7126,0.7082,0.7109,0.716,0.7221,0.7268,0.0,0.0,0.0,0.0,0.0,0.0,0.0,0.0,0.0,0.0,0.0,0.0,0.0,0.0,1.0066,1.012,1.012,1.012,1.0049,0.9893,0.9846,0.9822,0.9822,0.9822,0.9822,0.9822,0.9822,0.9822,0.0,0.0,0.0,0.0,0.9822,0.9764,0.9683,0.9734,0.9632,0.9449,0.9398,0.9286,0.9167,0.0,0.0,0.0,0.0,0.0,0.0,0.0,-0.0,-0.0,-0.0,-0.0,-0.0,-0.0,-0.0,-0.0,-0.0,0.0,0.0,0.0,0.0,0.0,0.0,0.0,0.0,0.0,-0.0,-0.0,-0.0,-0.0,-0.0,-0.0,-0.0,-0.0,-0.0,-0.0,0.0,0.0,0.0,0.0,0.0,0.0,0.0,-0.0,0.0,0.0,0.0,0.0,0.0,0.0,0.0,0.0,0.0,0.0,0.0,0.0,0.0,0.6207,0.0,0.0,0.7492,0.7658,0.7719,0.7645,0.0,0.0,0.0,0.7109,0.7068,0.7061,0.7078,0.7129,0.7139,0.7173,0.7268,0.7285,0.0,0.0,0.0,0.0,0.0,0.0,0.0,0.0,0.0,0.0,0.0,0.0,0.0,0.0,0.991,0.9964,0.9964,1.0019,0.9975,0.9822,0.9822,0.9822,0.9822,0.9822,0.9822,0.9822,0.9822,0.9822,0.0,0.0,0.0,0.0,0.97,0.9639,0.9605,0.9581,0.9493,0.9374,0.9317,0.9235,0.9161,0.0,0.0,0.0,0.0,0.0,0.0,0.0,0.0,0.0,-0.0,-0.0,-0.0,-0.0,-0.0,-0.0,-0.0,0.0,0.0,0.0,0.0,0.0,0.0,0.0,0.0,0.0,-0.0,-0.0,-0.0,-0.0,-0.0,-0.0,-0.0,-0.0,-0.0,-0.0,0.0,0.0,0.0,0.0,0.0,0.0,0.0,0.0,0.0,0.0,0.0,0.0,0.0,0.0,0.0,0.0,0.0,0.0,0.0,0.0,0.0,0.0,0.0,0.0,0.0,0.0,0.0,0.0,0.0,0.0,0.0,0.0,0.6881,0.6922,0.6973,0.7112,0.7139,0.7146,0.717,0.0,0.0,0.0,0.0,0.0,0.0,0.0,0.0,0.0,0.0,0.0,0.0,0.0,0.0,0.9822,0.9822,0.9822,0.9822,0.9961,0.9964,0.9822,0.9822,0.9822,0.9822,0.9822,0.9822,0.9822,0.9822,0.9822,0.0,0.0,0.0,0.0,0.9513,0.9473,0.9564,0.9279,0.9249,0.9347,0.9205,0.9154,0.9171,0.0,0.0,0.0,0.0,0.0,0.0,0.0,0.0,0.0,0.0,-0.0,-0.0,-0.0,-0.0,-0.0,0.0,0.0,0.0,0.0,0.0,0.0,0.0,0.0,0.0,0.0,-0.0,-0.0,-0.0,-0.0,-0.0,-0.0,-0.0,-0.0,-0.0,-0.0,-0.0,0.0,0.0,0.0,0.0,0.0,0.0,0.0,0.0,0.0,0.0,0.3165,0.3496,0.0,0.0,0.0,0.0,0.0,0.0,0.0,0.0,0.5647,0.5834,0.6165,0.0,0.6383,0.6536,0.6522,0.0,0.0,0.0,0.0,0.0,0.0,0.0,0.0,0.0,0.0,0.0,0.0,0.0,0.0,0.0,0.0,0.0,0.0,0.0,0.0,0.0,0.0,0.0,0.0,0.0,0.9822,0.9822,0.9822,0.9822,0.9856,0.9859,0.9822,0.9822,0.9822,0.9822,0.9822,0.9822,0.9822,0.9822,0.9822,0.0,0.0,0.0,0.9805,0.9629,0.9507,0.9429,0.9354,0.9276,0.9201,0.9167,0.9154,0.9144,0.0,0.0,0.0,0.0,0.0,0.0,0.0,0.0,0.0,0.0,0.0,0.0,0.0,0.0,0.0,0.0,0.0,0.0,0.0,0.0,0.0,0.0,0.0,0.0,-0.0,-0.0,-0.0,-0.0,-0.0,-0.0,-0.0,-0.0,-0.0,-0.0,-0.0,-0.0,0.0,0.0,0.0,0.0,0.4364,0.0,0.0,0.0,0.0,0.0,0.3424,0.3995,0.0,0.5017,0.5325,0.5267,0.0,0.0,0.0,0.0,0.5607,0.5686,0.5768,0.595,0.6136,0.6142,0.6213,0.6281,0.0,0.0,0.0,0.0,0.0,0.0,0.0,0.0,0.0,0.0,0.0,0.0,0.0,0.0,0.0,0.0,0.0,0.0,0.0,0.0,0.0,0.0,0.0,0.9822,0.9822,0.9822,0.9822,0.9822,0.9822,0.9822,0.9822,0.9754,0.9724,0.9724,0.9724,0.9686,0.9622,0.9693,0.9686,0.0,0.0,0.0,0.9602,0.9388,0.9293,0.9269,0.9205,0.9127,0.9055,0.9055,0.9055,0.9045,0.0,0.0,0.0,0.0,0.0,0.0,0.0,0.0,0.0,0.0,0.0,0.0,0.0,0.0,0.0,0.0,0.0,0.0,0.0,0.0,0.0,0.0,0.0,-0.0,-0.0,-0.0,-0.0,-0.0,-0.0,-0.0,-0.0,-0.0,-0.0,-0.0,0.0564,0.085,0.0,0.0,0.0,0.0,0.5382,0.0,0.0,0.0,0.0,0.0,0.0,0.0,0.0,0.5328,0.5267,0.5159,0.5315,0.0,0.0,0.0,0.0,0.0,0.5559,0.5946,0.6275,0.6017,0.6118,0.6227,0.0,0.0,0.0,0.0,0.0,0.0,0.0,0.0,0.0,0.0,0.0,0.0,0.0,0.0,0.0,0.0,0.0,0.0,0.0,0.0,0.0,0.0,0.0,0.9788,0.9788,0.9768,0.9764,0.9788,0.9768,0.9764,0.9788,0.9669,0.9598,0.9574,0.9574,0.9507,0.9388,0.9513,0.9503,0.9374,0.0,0.0,0.9361,0.9083,0.9042,0.9137,0.8994,0.894,0.894,0.894,0.894,0.894,0.0,0.0,0.0,0.0,0.0,0.0,0.0,0.0,0.0,0.0,0.0,0.0,0.0,0.0,0.0,0.0,0.0,0.0,0.0,0.0,0.0,0.0,-0.0,-0.0,-0.0,-0.0,-0.0,-0.0,-0.0,-0.0,-0.0,-0.0,-0.0,0.0123,0.3226,0.4571,0.459,0.4843,0.5176,0.5382,0.5369,0.0,0.0,0.0,0.0,0.0,0.0,0.0,0.0,0.5328,0.5267,0.5159,0.5325,0.0,0.0,0.0,0.0,0.0,0.541,0.5867,0.6243,0.5874,0.5952,0.6064,0.0,0.0,0.0,0.0,0.0,0.0,0.0,0.0,0.0,0.0,0.0,0.0,0.0,0.0,0.0,0.0,0.0,0.0,0.0,0.0,0.0,0.0,0.0,0.0,0.9642,0.9517,0.9507,0.9639,0.9517,0.951,0.9642,0.9618,0.9544,0.9415,0.9415,0.9405,0.9381,0.9405,0.9405,0.9381,0.0,0.9361,0.9367,0.9191,0.9133,0.9137,0.8994,0.894,0.894,0.894,0.894,0.894,0.0,0.0,0.0,0.0,0.0,0.0,0.0,0.0,0.0,0.0,0.0,0.0,0.0,0.0,0.0,0.0,0.0,0.0,0.0,0.0,0.0,-0.0,-0.0,-0.0,-0.0,-0.0,-0.0,-0.0,-0.0,-0.0,-0.0,-0.0,0.1045,0.2968,0.4658,0.5396,0.5403,0.5386,0.5379,0.5376,0.0,0.0,0.0,0.0,0.0,0.0,0.0,0.0,0.0,0.0,0.4699,0.4296,0.5101,0.0,0.0,0.0,0.0,0.0,0.5369,0.5652,0.5858,0.5708,0.5979,0.6227,0.0,0.0,0.0,0.0,0.0,0.0,0.0,0.0,0.0,0.0,0.0,0.0,0.0,0.0,0.0,0.0,0.0,0.0,0.0,0.0,0.0,0.0,0.0,0.0,0.9608,0.9462,0.9412,0.9483,0.9418,0.9374,0.9364,0.9364,0.9327,0.9259,0.9259,0.9218,0.9144,0.9222,0.9215,0.9144,0.0,0.9144,0.9137,0.9066,0.9035,0.9028,0.8964,0.894,0.894,0.894,0.894,0.894,0.0,0.0,0.0,0.0,0.0,0.0,0.0,0.0,0.0,0.0,0.0,0.0,0.0,0.0,0.0,0.0,0.0,0.0,0.0,0.0,-0.0,-0.0,-0.0,-0.0,-0.0,-0.0,-0.0,-0.0,-0.0,-0.0,-0.0,0.0854,0.2716,0.542,0.5384,0.5417,0.5389,0.5379,0.5376,0.5376,0.0,0.0,0.0,0.0,0.0,0.0,0.0,0.0,0.0,0.0,0.0,0.0,0.0,0.0,0.0,0.5428,0.5428,0.5428,0.5428,0.5498,0.5623,0.5552,0.0,0.0,0.0,0.0,0.0,0.0,0.0,0.0,0.0,0.0,0.0,0.0,0.0,0.0,0.0,0.0,0.0,0.0,0.0,0.0,0.0,0.0,0.0,0.0,0.0,0.0,0.9503,0.9361,0.9293,0.9327,0.9293,0.9235,0.9154,0.912,0.9103,0.9103,0.9103,0.9045,0.8944,0.9052,0.9042,0.894,0.894,0.894,0.894,0.894,0.894,0.894,0.894,0.894,0.894,0.894,0.894,0.894,0.0,0.0,0.0,0.0,0.0,0.0,0.0,0.0,0.0,0.0,0.0,0.0,0.0,0.0,0.0,0.0,0.0,0.0,0.0,0.0,-0.0,-0.0,-0.0,-0.0,-0.0,-0.0,-0.0,-0.0,-0.0,-0.0,0.0056,0.3411,0.5142,0.5424,0.5413,0.5427,0.5379,0.5369,0.5369,0.5432,0.542,0.0,0.0,0.0,0.0,0.0,0.0,0.0,0.0,0.0,0.0,0.0,0.0,0.0,0.5428,0.5428,0.5428,0.5428,0.5428,0.5569,0.5722,0.5447,0.0,0.0,0.0,0.0,0.0,0.0,0.0,0.0,0.0,0.0,0.0,0.0,0.0,0.0,0.0,0.0,0.0,0.0,0.0,0.0,0.0,0.0,0.0,0.0,0.0,0.0,0.9195,0.9049,0.9032,0.9164,0.9039,0.9028,0.915,0.9022,0.8954,0.8954,0.8954,0.895,0.894,0.895,0.8947,0.894,0.894,0.894,0.894,0.894,0.894,0.894,0.894,0.894,0.894,0.894,0.894,0.894,0.0,0.0,0.0,0.0,0.0,0.0,0.0,0.0,0.0,0.0,0.0,0.0,0.0,0.0,0.0,0.0,0.0,0.0,0.0,0.0,-0.0,-0.0,-0.0,-0.0,-0.0,-0.0,-0.0,-0.0,0.1906,0.301,0.3367,0.362,0.4348,0.5409,0.5392,0.531,0.523,0.5332,0.5318,0.5107,0.4145,0.3724,0.0,0.0,0.0,0.0,0.0,0.0,0.0,0.0,0.453,0.503,0.0,0.5294,0.5428,0.5428,0.5428,0.5428,0.5428,0.5511,0.5644,0.5532,0.0,0.0,0.0,0.0,0.0,0.0,0.0,0.0,0.0,0.0,0.0,0.0,0.0,0.0,0.0,0.0,0.0,0.0,0.0,0.0,0.0,0.0,0.0,0.0,0.0,0.0,0.9157,0.9018,0.892,0.8879,0.8916,0.892,0.8879,0.8916,0.8893,0.8798,0.8893,0.894,0.894,0.894,0.894,0.894,0.894,0.894,0.894,0.894,0.894,0.894,0.894,0.9482,1.0131,0.9265,0.894,0.894,0.0,0.0,0.0,0.0,0.0,0.0,0.0,0.0,0.0,0.0,0.0,0.0,0.0,0.0,0.0,0.0,0.0,0.0,0.0,-0.0,-0.0,-0.0,-0.0,0.0449,0.1403,0.1402,0.1401,0.1401,0.2974,0.4213,0.5085,0.3926,0.4028,0.5202,0.5251,0.5203,0.514,0.5257,0.5277,0.5105,0.3975,0.2874,0.0,0.0,0.0,0.0,0.0,0.0,0.0,0.0,0.4827,0.0,0.0,0.0,0.5428,0.5428,0.5328,0.5298,0.5415,0.5403,0.5467,0.0,0.0,0.0,0.0,0.0,0.0,0.0,0.0,0.0,0.0,0.0,0.0,0.0,0.0,0.0,0.0,0.0,0.0,0.0,0.0,0.0,0.0,0.0,0.0,0.0,0.0,0.0,0.0,0.8991,0.8869,0.8716,0.8811,0.8794,0.8638,0.8743,0.8743,0.8638,0.8743,0.8818,0.8869,0.8916,0.894,0.894,0.894,0.891,0.8869,0.892,0.9154,0.9585,0.9534,1.0405,1.1647,1.0131,0.9915,1.0241,0.0,0.0,0.0,0.0,0.0,0.0,0.0,0.0,0.0,0.0,0.0,0.0,0.0,0.0,0.0,0.0,0.0,0.0,-0.0,-0.0,-0.0,-0.0,-0.0,0.1403,0.4416,0.4518,0.4514,0.4514,0.2965,0.3019,0.4501,0.47,0.4827,0.4779,0.4857,0.4989,0.5125,0.5064,0.5168,0.5382,0.5355,0.3219,-0.0,0.0,0.0,0.0,0.0,0.0,0.0,0.0,0.5036,0.4972,0.0,0.0,0.0,0.5428,0.5254,0.5165,0.5321,0.525,0.0,0.0,0.0,0.0,0.0,0.0,0.0,0.0,0.0,0.0,0.0,0.0,0.0,0.0,0.0,0.0,0.0,0.0,0.0,0.0,0.0,0.0,0.0,0.0,0.0,0.0,0.0,0.0,0.0,0.8933,0.8866,0.871,0.8706,0.8635,0.8482,0.8482,0.8479,0.8479,0.8479,0.856,0.8713,0.8866,0.8933,0.8933,0.8933,0.8849,0.872,0.8872,0.9805,1.1084,1.1001,1.1893,1.3156,1.1642,1.2073,1.3043,0.0,0.0,0.0,0.0,0.0,0.0,0.0,0.0,0.0,0.0,0.0,0.0,0.0,0.0,0.0,0.0,0.0,0.0,-0.0,-0.0,-0.0,-0.0,-0.0,0.0898,0.2815,0.394,0.4501,0.4501,0.4033,0.4135,0.4707,0.4738,0.4755,0.4857,0.4901,0.486,0.4772,0.4143,0.3787,0.3698,0.3581,0.2071,0.0123,0.0,0.0,0.0,0.0,0.0,0.0,0.0,0.0,0.0,0.0,0.0,0.0,0.5428,0.5328,0.5304,0.5415,0.5406,0.0,0.0,0.0,0.0,0.0,0.0,0.0,0.0,0.0,0.0,0.0,0.0,0.0,0.0,0.0,0.0,0.0,0.0,0.0,0.0,0.0,0.0,0.0,0.0,0.0,0.0,0.0,0.0,0.0,0.8618,0.855,0.8408,0.8499,0.8479,0.8333,0.8431,0.8942,0.9638,0.8841,0.8506,0.855,0.8598,0.8618,0.8618,0.8618,0.8591,0.8659,0.9542,1.1525,1.3752,1.2477,1.3044,1.4284,1.2651,1.2375,1.2901,0.0,0.0,0.0,0.0,0.0,0.0,0.0,0.0,0.0,0.0,0.0,0.0,0.0,0.0,0.0,0.0,0.0,0.0,0.0,0.0,-0.0,-0.0,-0.0,0.0672,0.2184,0.3702,0.449,0.4484,0.4477,0.4577,0.467,0.4659,0.465,0.4738,0.4738,0.4687,0.4555,0.3995,0.3746,0.3722,0.3618,0.3026,0.219,0.0,0.0,0.0,0.0,0.0,0.0,0.0,0.0,0.0,0.0,0.0,0.0,0.5287,0.523,0.5199,0.5254,0.0,0.0,0.0,0.0,0.0,0.0,0.0,0.0,0.0,0.0,0.0,0.0,0.0,0.0,0.0,0.0,0.0,0.0,0.0,0.0,0.0,0.0,0.0,0.0,0.0,0.0,0.0,0.0,0.0,0.0,0.8482,0.8418,0.8275,0.8353,0.8326,0.818,0.8769,0.9466,1.0158,0.9973,0.9623,0.9123,0.8633,0.8793,0.9201,0.9239,0.9246,0.9298,1.0489,1.2521,1.4647,1.3576,1.4146,1.5487,1.3885,1.3718,1.4132,0.0,0.0,0.0,0.0,0.0,0.0,0.0,0.0,0.0,0.0,0.0,0.0,0.0,0.0,0.0,0.0,0.0,0.0,0.0,0.0,-0.0,-0.0,-0.0,0.0671,0.2176,0.3699,0.4487,0.4522,0.4519,0.4519,0.4519,0.4519,0.4519,0.4519,0.4519,0.4522,0.448,0.4494,0.4667,0.487,0.4897,0.5113,0.5165,0.353,0.0,0.0,0.0,0.0,0.0,0.0,0.0,0.0,0.5318,0.5428,0.5332,0.5192,0.505,0.4969,0.0,0.0,0.0,0.0,0.0,0.0,0.0,0.0,0.0,0.0,0.0,0.0,0.0,0.0,0.0,0.0,0.0,0.0,0.0,0.0,0.0,0.0,0.0,0.0,0.0,0.0,0.0,0.0,0.0,0.0,0.0,0.865,0.8588,0.8656,0.8653,0.8581,0.8336,0.9608,1.0194,1.0386,1.1365,1.1458,1.0498,0.9233,0.9161,1.0178,1.0213,1.0344,1.0699,1.1623,1.3084,1.469,1.4523,1.5388,1.646,1.5099,1.5413,1.6147,0.0,0.0,0.0,0.0,0.0,0.0,0.0,0.0,0.0,0.0,0.0,0.0,0.0,0.0,0.0,0.0,0.0,0.0,0.0,0.0,-0.0,-0.0,-0.0,0.0672,0.2181,0.3708,0.4504,0.449,0.4525,0.4519,0.4519,0.4519,0.4519,0.4519,0.4519,0.4519,0.4529,0.4596,0.4684,0.4769,0.4999,0.5118,0.5152,0.475,0.4868,0.0,0.0,0.0,0.0,0.0,0.0,0.0,0.5418,0.5428,0.5422,0.5321,0.5203,0.5118,0.0,0.0,0.0,0.0,0.0,0.0,0.0,0.0,0.0,0.0,0.0,0.0,0.0,0.0,0.0,0.0,0.0,0.0,0.0,0.0,0.0,0.0,0.0,0.0,0.0,0.0,0.0,0.0,0.0,0.0,0.9622,0.9721,1.0099,1.1142,1.1138,1.1114,1.1072,1.1361,1.2042,0.0,1.2231,1.2818,1.4472,1.1157,0.9226,0.8528,0.9577,1.0757,1.2028,1.303,1.4461,1.5836,1.5544,1.5803,1.6339,1.5706,1.5265,1.4708,0.0,0.0,0.0,0.0,0.0,0.0,0.0,0.0,0.0,0.0,0.0,0.0,0.0,0.0,0.0,0.0,0.0,0.0,0.0,0.0,0.0,-0.0,-0.0,0.0336,0.1118,0.337,0.4163,0.3413,0.3405,0.0,0.0,0.0,0.0,0.4525,0.4525,0.4563,0.4575,0.4657,0.4772,0.4914,0.5067,0.5179,0.525,0.5243,0.5294,0.5359,0.5274,0.0,0.0,0.0,0.0,0.0,0.0,0.0,0.5415,0.5274,0.5196,0.5135,0.0,0.0,0.0,0.0,0.0,0.0,0.0,0.0,0.0,0.0,0.0,0.0,0.0,0.0,0.0,0.0,0.0,0.0,0.0,0.0,0.0,0.0,0.0,0.0,0.0,0.0,0.0,0.0,0.0,0.9509,1.0877,1.0877,1.1165,1.1853,1.1945,1.1945,1.1945,1.2528,1.3199,1.3878,1.3788,1.3788,1.3884,1.1848,0.9801,0.8038,0.941,1.0448,1.1321,1.2478,1.3477,1.4175,1.4033,1.4455,1.5049,1.4226,1.3966,1.3957,0.0,0.0,0.0,0.0,0.0,0.0,0.0,0.0,0.0,0.0,0.0,0.0,0.0,0.0,0.0,0.0,0.0,0.0,0.0,0.0,0.0,-0.0,-0.0,-0.0,-0.0,0.2467,0.32,0.2178,0.0,0.0,0.0,0.0,0.0,0.4287,0.4462,0.4599,0.4731,0.4755,0.4908,0.5131,0.5159,0.5247,0.5428,0.5428,0.5428,0.5428,0.5428,0.5428,0.5428,0.5428,0.0,0.0,0.0,0.0,0.5332,0.5176,0.5111,0.5067,0.0,0.0,0.0,0.0,0.0,0.0,0.0,0.0,0.0,0.0,0.0,0.0,0.0,0.0,0.0,0.0,0.0,0.0,0.0,0.0,0.0,0.0,0.0,0.0,0.0,0.0,0.0,0.0,0.0,1.0877,1.2139,1.2237,1.2334,1.2528,1.2528,1.2528,1.2528,1.3686,1.4262,1.4262,1.5337,1.4472,1.1945,1.1945,1.0485,0.8038,0.941,0.9998,1.0096,1.1365,1.1945,1.1945,1.1945,1.2624,1.3392,1.2334,1.2431,1.2909,0.0,0.0,0.0,0.0,0.0,0.0,0.0,0.0,0.0,0.0,0.0,0.0,0.0,0.0,0.0,0.0,0.0,0.0,-0.0,0.0,0.0,-0.0,-0.0,-0.0,-0.0,0.0392,0.1121,0.2189,0.0,0.0,0.0,0.0,0.0,0.3493,0.0,0.0,0.4897,0.502,0.5094,0.5142,0.5277,0.5345,0.5428,0.5428,0.5428,0.5428,0.5428,0.5428,0.5428,0.5428,0.5428,0.0,0.0,0.0,0.5332,0.5176,0.5043,0.0,0.0,0.0,0.0,0.0,0.0,0.0,0.0,0.0,0.0,0.0,0.0,0.0,0.0,0.0,0.0,0.0,0.0,0.0,0.0,0.0,0.0,0.0,0.0,0.0,0.0,0.0,0.0,0.0,1.1658,1.2237,1.3584,1.3584,1.4172,1.5248,1.5248,1.5248,1.5248,1.5439,1.554,1.554,1.573,1.4472,1.1945,1.1945,1.0485,0.8038,0.941,0.9998,1.0096,1.1365,1.1945,1.1945,1.1945,1.2042,1.2139,1.1945,1.1263,1.0485,0.0,0.0,0.0,0.0,0.0,0.0,0.0,0.0,0.0,0.0,0.0,0.0,0.0,0.0,0.0,-0.0,-0.0,-0.0,-0.0,-0.0,-0.0,-0.0,-0.0,-0.0,-0.0,-0.0,0.0336,0.0,0.0,0.0,0.0,0.0985,0.1694,0.0,0.0,0.0,0.0,0.5104,0.5179,0.5267,0.5335,0.5311,0.524,0.5328,0.5308,0.5243,0.5328,0.5428,0.5428,0.5428,0.5304,0.5233,0.5233,0.0,0.0,0.0,0.0,0.0,0.0,0.0,0.0,0.0,0.0,0.0,0.0,0.0,0.0,0.0,0.0,0.0,0.0,0.0,0.0,0.0,0.0,0.0,0.0,0.0,0.0,0.0,0.0,0.0,0.0,0.0,0.0,0.0,1.3006,1.3527,1.4728,1.4861,1.5171,1.5591,1.5745,1.5832,1.5832,1.5832,1.5832,1.5832,1.5832,1.4472,1.1945,1.1945,1.0485,0.8038,0.941,0.9998,1.0096,1.1365,1.1458,1.0877,1.0877,1.1268,1.1848,1.1072,1.1458,1.1935,0.0,0.0,0.0,0.0,0.0,0.0,0.0,0.0,0.0,0.0,0.0,0.0,0.0,0.0,0.0,0.0,-0.0,-0.0,-0.0,-0.0,-0.0,-0.0,-0.0,-0.0,-0.0,-0.0,0.0,0.0,0.0,0.0,0.1119,0.1306,0.2058,0.0,0.4752,0.0,0.0,0.0,0.0,0.5425,0.5318,0.5233,0.5138,0.5216,0.5176,0.5098,0.5247,0.5304,0.5308,0.5415,0.5257,0.5131,0.5131,0.5104,0.0,0.0,0.0,0.0,0.0,0.0,0.0,0.0,0.0,0.0,0.0,0.0,0.0,0.0,0.0,0.0,0.0,0.0,0.0,0.0,0.0,0.0,0.0,0.0,0.0,0.0,0.0,0.0,0.0,0.0,0.0,0.0,1.4224,1.4534,1.5297,1.5491,1.5511,1.5291,1.5498,1.5417,1.513,1.5201,1.5468,1.5832,1.5832,1.4472,1.1945,1.1945,1.0485,0.8038,0.941,0.9998,1.0096,1.1072,1.0877,0.9998,0.9608,1.0092,1.0872,1.0194,1.1258,1.2716,0.0,0.0,0.0,0.0,0.0,0.0,0.0,0.0,0.0,0.0,0.0,0.0,-0.0,-0.0,-0.0,-0.0,-0.0,-0.0,-0.0,-0.0,-0.0,-0.0,-0.0,0.0,-0.0,-0.0,0.0,0.0,0.0,0.0,0.4265,0.483,0.5088,0.5008,0.5283,0.5363,0.5415,0.0,0.0,0.0,0.0,0.5138,0.0,0.0,0.4938,0.0,0.0,0.5142,0.5165,0.5311,0.5257,0.5131,0.5131,0.504,0.4901,0.0,0.0,0.0,0.0,0.0,0.0,0.0,0.0,0.0,0.0,0.0,0.0,0.0,0.0,0.0,0.0,0.0,0.0,0.0,0.0,0.0,0.0,0.0,0.0,0.0,0.0,0.0,0.0,0.0,0.0,0.0,1.5172,1.5199,1.5003,1.4997,1.5003,1.4983,1.4997,1.4456,1.335,1.3692,1.4509,1.5832,1.5832,1.4472,1.1945,1.1945,1.0485,0.8038,0.941,0.9998,0.9998,1.0096,1.0096,0.9899,0.8627,0.8137,0.8333,0.9509,1.0096,1.0386,0.0,0.0,0.0,0.0,0.0,0.0,0.0,0.0,0.0,0.0,0.0,0.0,0.0,-0.0,-0.0,-0.0,-0.0,-0.0,-0.0,-0.0,-0.0,-0.0,-0.0,-0.0,-0.0,-0.0,0.0,0.0,0.0,0.3431,0.4503,0.473,0.4935,0.5088,0.5322,0.5391,0.5428,0.5428,0.0,0.0,0.0,0.0,0.0,0.0,0.0,0.0,0.0,0.0,0.0,0.5952,0.5704,0.5114,0.5023,0.5023,0.5026,0.0,0.0,0.0,0.0,0.0,0.0,0.0,0.0,0.0,0.0,0.0,0.0,0.0,0.0,0.0,0.0,0.0,0.0,0.0,0.0,0.0,0.0,0.0,0.0,0.0,0.0,0.0,0.0,0.0,0.0,0.0,0.0,1.3876,1.3597,1.3758,1.4142,1.4683,1.4129,1.3302,1.2102,1.2189,1.2923,1.4149,1.3461,1.2585,1.1632,1.1007,0.9702,0.8038,0.941,0.9998,1.0096,1.0877,1.0779,0.9998,0.9509,0.9316,0.9312,0.9801,1.0485,1.1165,0.0,0.0,0.0,0.0,0.0,0.0,0.0,0.0,0.0,0.0,0.0,0.0,0.0,0.0,0.0559,0.0056,-0.0,-0.0,-0.0,-0.0,-0.0,-0.0,-0.0,-0.0,-0.0,-0.0,0.0,0.0,0.0,0.0,0.0,0.4581,0.4756,0.5003,0.5155,0.5277,0.0,0.0,0.0,0.5415,0.0,0.0,0.4986,0.0,0.0,0.0,0.0,0.0,0.0,0.0,0.0,0.0,0.0,0.0,0.0,0.0,0.0,0.0,0.0,0.0,0.0,0.0,0.0,0.0,0.0,0.0,0.0,0.0,0.0,0.0,0.0,0.0,0.0,0.0,0.0,0.0,0.0,0.0,0.0,0.0,0.0,0.0,0.0,0.0,0.0,0.0,0.0,0.0,1.3225,1.3027,1.2957,1.3225,1.2231,1.1637,1.1343,1.098,1.1384,1.266,1.1982,1.1343,1.0944,1.0228,0.9257,0.8038,0.892,0.9608,1.0096,1.0877,1.0779,0.9998,0.9509,0.9316,0.941,0.9801,1.0583,1.1165,0.0,0.0,0.0,0.0,0.0,0.0,0.0,0.0,0.0,0.0,0.0,0.0,0.0,0.0,0.0,0.0112,-0.0,-0.0,-0.0,-0.0,-0.0,-0.0,-0.0,-0.0,-0.0,-0.0,0.0,0.0,0.0,0.0,0.0,0.0,0.4759,0.4697,0.485,0.5077,0.5415,0.0,0.5422,0.5342,0.0,0.5131,0.5114,0.0,0.0,0.0,0.5077,0.5128,0.0,0.5373,0.0,0.0,0.0,0.0,0.0,0.0,0.0,0.0,0.0,0.0,0.0,0.0,0.0,0.0,0.0,0.0,0.0,0.0,0.0,0.0,0.0,0.0,0.0,0.0,0.0,0.0,0.0,0.0,0.0,0.0,0.0,0.0,0.0,0.0,0.0,0.0,1.423,1.4269,1.4075,1.2917,1.1792,1.059,0.9474,0.9574,1.0924,0.9768,0.9958,1.1436,1.1349,1.0822,0.9801,0.9706,0.9142,0.8038,0.8035,0.8722,0.9899,0.9899,0.9899,0.9805,0.8528,0.8038,0.8137,0.9509,0.9899,1.0096,0.0,0.0,0.0,0.0,0.0,0.0,0.0,0.0,0.0,0.0,0.0,0.0,0.0,0.411,0.2802,0.0223,-0.0,-0.0,-0.0,-0.0,-0.0,-0.0,-0.0,-0.0,-0.0,-0.0,0.0,0.0,0.0,0.0,0.0,0.0,0.0,0.0,0.485,0.4965,0.5047,0.5152,0.0,0.0,0.5148,0.5131,0.0,0.0,0.0,0.0,0.0,0.5635,0.5343,0.0,0.6404,0.5247,0.0,0.0,0.0,0.0,0.0,0.0,0.5734,0.0,0.0,0.0,0.0,0.0,0.0,0.0,0.0,0.0,0.0,0.0,0.0,0.0,0.0,0.0,0.0,0.0,0.0,0.0,0.0,0.0,0.0,0.0,0.0,0.0,0.0,0.0,1.2267,1.2273,1.2201,1.195,1.0958,0.9054,0.8721,0.84,0.808,0.7737,0.8253,0.9571,0.8906,0.8878,0.9422,0.8589,0.8179,0.8031,0.7923,0.8129,0.8528,0.8528,0.8528,0.8531,0.8137,0.8038,0.8038,0.8432,0.8528,0.8627,0.0,0.0,0.0,0.0,0.0,0.0,0.0,0.0,0.0,0.0,0.0,0.0,0.0,0.0,0.3769,0.2015,0.0728,-0.0,-0.0,-0.0,-0.0,-0.0,-0.0,-0.0,-0.0,-0.0,0.0,0.0,0.0,0.0,0.0,0.0,0.0,0.0,0.0,0.0,0.0,0.0,0.0,0.0,0.5508,0.0,0.0,0.5572,0.566,0.0,0.0,0.0,0.6514,0.7593,0.7051,0.0,0.0,0.0,0.0,0.0,0.0,0.0,0.0,0.0,0.0,0.0,0.0,0.0,0.7265,0.7706,0.0,0.0,0.0,0.0,0.0,0.0,0.0,0.0,0.0,0.0,0.0,0.0,0.0,0.0,0.0,0.0,0.0,1.3233,1.2883,1.2221,1.2221,1.1816,1.0911,1.0514,0.9543,0.7753,0.7671,0.7398,0.6834,0.6898,0.7314,0.8092,0.7556,0.7713,0.8502,0.7777,0.7665,0.794,0.7848,0.7896,0.8038,0.8038,0.8038,0.8038,0.8038,0.8038,0.8038,0.8038,0.8038,0.8038,0.0,0.0,0.0,0.0,0.0,0.0,0.0,0.0,0.0,0.0,0.0,0.0,0.0,0.0,0.0,0.4514,0.1738,-0.0,-0.0,0.0336,0.0505,0.0505,0.0336,0.0224,0.0224,0.0224,0.0,0.0,0.0,0.0,0.0,0.0,0.0,0.0,0.0,0.0,0.0,0.0,0.0,0.5269,0.6057,0.6117,0.0,0.0,0.685,0.685,0.685,0.7372,0.8027,0.8027,0.7567,0.0,0.0,0.0,0.0,0.0,0.5895,0.0,0.0,0.0,0.0,0.0,0.0,0.0,0.7677,0.7654,0.7854,0.0,0.0,0.0,0.0,0.0,0.0,0.0,0.0,0.0,0.0,0.0,0.0,0.0,0.0,0.0,1.2775,1.2946,1.31,1.3066,1.3093,1.2201,1.0072,0.9052,0.7927,0.6788,0.6723,0.6661,0.6675,0.681,0.6895,0.6929,0.7054,0.7207,0.737,0.7353,0.7506,0.7787,0.777,0.7848,0.7991,0.8007,0.8024,0.8038,0.8038,0.8038,0.8038,0.8038,0.8038,0.8038,0.0755,0.0,0.0,0.0,0.0,0.0,0.0,0.0,0.0,0.0,0.0,0.0,0.0,0.0,0.0,0.4514,0.1738,-0.0,-0.0,0.23,0.3602,0.3602,0.2406,0.1786,0.1786,0.1786,0.0,0.0,0.0,0.0,0.0,0.0,0.0,0.0,0.0,0.0,0.0,0.0,0.0,0.573,0.6203,0.0,0.7507,0.7702,0.7762,0.7762,0.7762,0.7827,0.8027,0.8027,0.8355,0.8672,0.0,0.0,0.0,0.0,0.0,0.0,0.0,0.0,0.0,0.0,0.0,0.0,0.8294,0.8235,0.8354,0.0,0.0,0.0,0.0,0.0,0.0,0.0,0.0,0.0,0.0,0.0,0.0,0.0,0.0,0.0,1.2385,1.2445,1.2385,1.2151,1.2345,1.1845,1.0341,0.9549,0.8498,0.7203,0.6662,0.64,0.6515,0.6546,0.6685,0.6929,0.6956,0.7112,0.7366,0.7241,0.7353,0.7634,0.7509,0.7543,0.7695,0.7811,0.7929,0.8038,0.8038,0.8038,0.8038,0.8038,0.8038,0.8038,-0.0,0.0,0.0,0.0,0.0,0.0,0.0,0.0,0.0,0.0,0.0,0.0,0.0,0.0,0.0,0.0,0.0,0.0617,0.2132,0.3658,0.4511,0.4504,0.3758,0.3357,0.3357,0.3357,0.3357,0.0,0.0,0.0,0.0,0.0,0.0,0.0,0.0,0.0,0.0,0.0,0.6369,0.6676,0.6726,0.0,0.7795,0.8233,0.8504,0.8613,0.8613,0.8935,0.932,0.932,0.9326,0.0,0.0,0.8027,0.7242,0.0,0.7168,0.7756,0.0,0.0,0.0,0.9394,0.0,0.0,0.0,0.8786,0.8757,0.0,0.0,0.0,0.0,0.0,0.0,0.0,0.0,0.0,0.0,0.0,0.0,0.0,0.0,0.0,1.2071,1.2084,1.188,1.1299,1.09,1.0344,0.9515,0.8679,0.7892,0.7211,0.6869,0.6514,0.6135,0.6291,0.6444,0.6597,0.6746,0.6932,0.7149,0.7071,0.72,0.7482,0.7404,0.7458,0.7604,0.7678,0.7794,0.7933,0.8011,0.8038,0.8038,0.8038,0.8038,0.8038,-0.0,0.0,0.0,0.0,0.0,0.0,0.0,0.0,0.0,0.0,0.0,0.0,0.0,0.0,0.0,0.0,0.0,0.0,0.0,0.0,0.0,0.4494,0.449,0.449,0.449,0.449,0.449,0.0,0.0,0.0,0.0,0.0,0.0,0.0,0.0,0.0,0.0,0.0,0.0,0.7512,0.0,0.7618,0.8188,0.8877,0.9325,0.953,0.953,0.9977,1.0624,1.0624,1.011,0.953,0.953,0.8941,0.0,0.0,0.0,0.0,0.0,0.0,0.0,0.0,0.0,0.9254,0.0,0.0,0.0,0.0,0.0,0.0,0.0,0.0,0.0,0.0,0.0,0.0,0.0,0.0,0.0,0.0,0.0,0.0,0.0,1.1784,1.154,1.0996,1.0153,0.9509,0.913,0.8202,0.7624,0.7588,0.7274,0.6797,0.6086,0.6149,0.623,0.6264,0.6529,0.6753,0.6929,0.6929,0.7075,0.7326,0.7326,0.7397,0.7512,0.7543,0.7624,0.7743,0.7926,0.8014,0.8038,0.8038,0.8038,0.8038,-0.0,-0.0,0.0,0.0,0.0,0.0,0.0,0.0,0.0,0.0,0.0,0.0,0.0,0.0,0.0,0.0,0.0,0.0,0.4458,0.0,0.0,0.448,0.4525,0.4522,0.4522,0.4522,0.4522,0.4522,0.0,0.0,0.0,0.0,0.0,0.0,0.5878,0.0,0.0,0.0,0.7591,0.0,0.7973,0.8971,0.0,1.0375,1.0401,1.0434,1.0434,1.0498,1.0624,0.0,1.0561,1.0434,0.0,0.9849,0.9005,0.8091,0.0,0.0,0.0,0.0,0.0,0.0,0.9869,0.0,0.0,0.0,0.9992,1.0053,0.0,0.0,0.0,0.0,0.0,0.0,0.0,0.0,0.0,0.0,0.0,0.0,0.0,0.0,0.0,1.1476,1.162,1.2065,1.1795,1.1449,1.1086,1.0158,0.9496,0.9215,0.7827,0.7078,0.6936,0.6334,0.6125,0.6342,0.6424,0.6651,0.6929,0.6929,0.7014,0.7166,0.7166,0.7177,0.7204,0.7339,0.7407,0.7448,0.7729,0.7919,0.8038,0.8038,0.8038,0.8038,-0.0,-0.0,0.0,0.0,0.0,0.0,0.0,0.0,0.0,0.0,0.0,0.0,0.0,0.0,0.0,0.0,0.0,0.3532,0.0,0.0,0.0,0.0,0.4525,0.4522,0.4473,0.4522,0.4519,0.4519,0.4519,0.0,0.0,0.0,0.0,0.0,0.5991,0.0,0.5655,0.0,0.8423,0.0,0.0,0.0,0.0,1.0367,1.0408,1.0624,1.0624,1.0624,1.0624,0.0,1.0624,0.0,0.0,0.0,0.0,0.0,0.0,0.0,0.0,0.0,0.0,0.0,0.0,0.0,1.0665,0.0,1.0374,0.0,0.0,0.0,0.0,0.0,0.0,0.0,0.8236,0.0,0.0,0.0,0.0,0.0,0.0,0.0,0.0,0.0,0.0,0.0,1.066,1.0479,1.0205,0.979,0.9268,0.8624,0.7989,0.7166,0.6089,0.599,0.5928,0.5996,0.6237,0.6461,0.6664,0.6664,0.6746,0.6892,0.698,0.7017,0.7031,0.7177,0.7288,0.7383,0.7506,0.7648,0.7794,0.7875,0.7909,0.7919,-0.0,0.0,0.0,0.0,0.0,0.0,0.0,0.0,0.0,0.0,0.0,0.0,0.1121,0.3203,0.0,0.0,0.3471,0.3294,0.0,0.0,0.4477,0.448,0.4525,0.0,0.0,0.0,0.4522,0.4519,0.0,0.0,0.0,0.0,0.0,0.0,0.0,0.6421,0.6258,0.0,0.0,0.8718,0.9603,1.0174,1.0421,1.0287,1.0374,1.0624,1.0624,1.0624,1.0624,1.0624,1.0624,0.0,1.0624,0.0,0.0,0.0,0.0,0.0,0.6408,0.0,0.0,0.0,0.0,0.0,0.0,0.0,0.0,0.0,0.0,0.0,0.0,0.0,0.0,0.0,0.0,0.7506,0.0,0.0,0.0,0.0,0.0,0.0,0.0,0.0,0.0,1.0134,1.0055,0.9939,0.967,0.9658,0.9396,0.8737,0.8221,0.7377,0.6145,0.593,0.58,0.5803,0.6115,0.6335,0.6471,0.6471,0.6556,0.6709,0.6817,0.6865,0.6878,0.7021,0.7149,0.7255,0.7292,0.7377,0.7499,0.7685,0.7753,0.777,-0.0,-0.0,0.0,0.0,0.0,0.0,0.0,0.0,0.0,0.0,0.0,0.0,0.0,0.0,0.0,0.0,0.0,0.4421,0.448,0.0,0.4522,0.448,0.448,0.448,0.0,0.0,0.0,0.0,0.0,0.0,0.0,0.0,0.0,0.0,0.0,0.6966,0.767,0.8493,0.8824,0.8831,0.9466,0.9873,1.016,0.0,1.0618,1.0624,1.0624,0.0,0.0,1.0624,1.0624,0.0,0.0,0.0,0.0,0.0,0.0,0.0,0.0,0.0,0.0,0.7887,0.0,0.0,0.0,0.0,1.0364,0.0,0.0,0.0,0.0,0.0,0.0,0.0,0.0,0.0,0.0,0.0,0.0,0.0,0.0,0.0,0.0,0.0,1.1002,1.0989,1.0989,1.0862,1.0575,1.0561,1.0561,1.0491,0.8865,0.7962,0.7897,0.6479,0.58,0.5803,0.6115,0.6335,0.6471,0.6471,0.6556,0.6702,0.6705,0.6709,0.6719,0.6871,0.6939,0.6956,0.7095,0.7149,0.719,0.7495,0.7607,0.7607,0.0,0.0,0.0,0.0,0.0,0.0,0.0,-0.0,0.0,0.0,0.0,0.0,0.0,0.4721,0.4531,0.0,0.0,0.4522,0.4522,0.4558,0.0,0.0,0.0,0.468,0.0,0.0,0.0,0.0,0.0,0.0,0.0,0.0,0.0,0.0,0.0,0.675,0.0,0.0,0.0,0.0,0.0,0.974,0.986,0.0,1.0267,1.0294,1.0488,1.0624,0.0,1.0624,1.0624,1.0624,1.0624,0.9977,0.9139,0.8285,0.7424,0.6568,0.0,0.0,0.7211,0.7225,0.0,0.0,0.0,0.0,0.0,0.0,0.0,0.0,0.0,0.0,0.0,0.0,0.0,0.0,0.0,0.0,0.0,0.0,0.0,0.0,0.0,0.0,0.0,0.8799,0.872,0.8845,0.9246,0.9475,0.9501,0.9432,0.9041,0.8549,0.8027,0.7039,0.6549,0.6553,0.6254,0.6132,0.6183,0.6285,0.6363,0.6417,0.6508,0.6549,0.6563,0.6715,0.6776,0.6793,0.6943,0.7,0.7037,0.7336,0.7448,0.7478,-0.3188,0.0,0.0,0.0,0.0,0.0,0.0,0.0,0.0,0.0,-0.0,0.0,0.3208,0.0,0.4802,0.0,0.4691,0.4623,0.4623,0.4718,0.0,0.4707,0.4823,0.0,0.0,0.0,0.0,0.0,0.0,0.4599,0.0,0.0,0.0,0.0,0.0,0.0,0.6652,0.0,0.8251,0.0,0.0,0.9086,0.0,0.0,0.996,1.0,0.0,1.0401,1.0421,1.0584,1.0624,1.0561,1.0238,0.9524,0.8683,0.7767,0.6968,0.6179,0.5698,0.6135,0.0,0.6846,0.7583,0.0,0.8155,0.0,0.824,0.0,0.0,0.0,0.0,0.0,0.0,0.0,0.0,0.0,0.0,0.5947,0.0,0.0,0.0,0.0,0.0,0.0,0.7644,0.7568,0.7495,0.78,0.0,0.8807,0.9058,0.9236,0.9259,0.9011,0.8484,0.7449,0.6869,0.6873,0.6259,0.5976,0.6034,0.6132,0.621,0.6345,0.6359,0.6396,0.641,0.6559,0.6651,0.6715,0.6868,0.6959,0.7027,0.7217,0.7288,0.7333,0.0,0.0,0.0,0.0,-0.0,0.0,0.0,0.0,-0.0,0.0,-0.0,0.0062,0.0124,0.3219,0.516,0.4822,0.4874,0.4925,0.4918,0.4925,0.0,0.0,0.4945,0.4884,0.505,0.0,0.0,0.0,0.0,0.0,0.0,0.0,0.0,0.0,0.5483,0.0,0.6534,0.6588,0.6642,0.6696,0.7402,0.7924,0.8347,0.9259,0.9601,0.9641,1.0027,1.008,1.0119,1.0398,1.0498,1.0301,0.9524,0.8683,0.7832,0.6981,0.619,0.5617,0.5476,0.5583,0.598,0.6652,0.6962,0.0,0.0,0.0,0.7922,0.0,0.0,0.0,0.0,0.0,0.0,0.0,0.0,0.0,0.0,0.0,0.0,0.0,0.0,0.0,0.0,0.7171,0.7461,0.7171,0.7289,0.0,0.0,0.8592,0.9303,0.9992,0.958,0.9338,0.9274,0.7774,0.6924,0.6856,0.6139,0.5867,0.601,0.6023,0.6108,0.6251,0.6335,0.6338,0.6271,0.6407,0.6552,0.6705,0.6858,0.7007,0.7139,0.7139,0.7139,0.7183,-0.4268,-0.4504,-0.354,0.0,-0.0,-0.0,0.0,0.0,0.0,0.0,-0.0,0.0514,0.183,0.3017,0.4035,0.4961,0.5014,0.0,0.0,0.0,0.0,0.4824,0.5074,0.5098,0.4821,0.4969,0.0,0.4918,0.0,0.0,0.4691,0.0,0.0,0.0,0.0,0.0,0.5814,0.6367,0.6912,0.745,0.7616,0.8086,0.8622,0.0,0.8363,0.8567,0.9991,1.0065,0.9503,0.9633,0.9198,0.8608,0.8415,0.8156,0.7832,0.6981,0.656,0.6289,0.5712,0.5664,0.5861,0.6033,0.6309,0.6528,0.0,0.0,0.0,0.0,0.0,0.0,0.0,0.0,0.0,0.0,0.0,0.0,0.0,0.0,0.0,0.5064,0.0,0.0,0.0,0.5653,0.5636,0.5405,0.5501,0.0,0.0,0.0,0.8365,0.9108,0.9888,0.9983,0.9338,0.8218,0.7386,0.673,0.5975,0.5664,0.5708,0.5928,0.6051,0.6095,0.621,0.6338,0.6264,0.6298,0.64,0.6546,0.6698,0.6915,0.7139,0.7139,0.7139,0.7183,-0.4324,0.0,0.0,-0.2288,0.0,0.0,-0.0,0.0,0.0,-0.0,-0.0,0.0,0.3626,0.4005,0.4403,0.5178,0.524,0.0,0.5125,0.0,0.0,0.5006,0.5105,0.5115,0.4996,0.5023,0.0,0.5111,0.0,0.0,0.4858,0.0,0.0,0.0,0.0,0.5066,0.0,0.55,0.5927,0.6387,0.6618,0.7009,0.0,0.7548,0.7621,0.7819,0.9015,0.9058,0.854,0.8709,0.842,0.7962,0.7567,0.7437,0.7242,0.64,0.6137,0.6028,0.5599,0.5644,0.58,0.58,0.6034,0.6213,0.604,0.6084,0.6129,0.0,0.5962,0.5922,0.0,0.0,0.0,0.0,0.0,0.0,0.0,0.0,0.0,0.0,0.5189,0.0,0.0,0.5074,0.4969,0.4802,0.4809,0.0,0.0,0.0,0.7618,0.8795,0.9748,1.0103,0.9856,0.8712,0.7856,0.7242,0.6045,0.5525,0.5596,0.5827,0.5966,0.6037,0.6193,0.6338,0.6338,0.6338,0.6383,0.6593,0.681,0.6993,0.7139,0.7139,0.7139,0.7183,0.0,0.0,0.0,0.0,0.0,0.0,0.0,-0.0298,0.0,-0.0,0.0,0.117,0.4324,0.5087,0.5423,0.541,0.0,0.5333,0.504,0.5046,0.5043,0.5027,0.4696,0.4742,0.5252,0.506,0.506,0.0,0.0,0.0,0.0,0.0,0.0,0.0,0.0,0.0,0.0,0.4543,0.4615,0.4819,0.5337,0.5555,0.578,0.6784,0.7131,0.7205,0.7555,0.7516,0.7448,0.7698,0.7767,0.7507,0.6789,0.6523,0.6396,0.562,0.5428,0.5428,0.5428,0.5576,0.58,0.58,0.6034,0.6338,0.6338,0.6156,0.6098,0.6234,0.6047,0.5939,0.0,0.0,0.0,0.0,0.0,0.0,0.0,0.0,0.0,0.0,0.0,0.0,0.0,0.0,0.0,0.0,0.0,0.0,0.0,0.0,0.7077,0.8471,0.9162,0.9706,1.0091,0.8827,0.8031,0.7681,0.6156,0.5433,0.5566,0.5728,0.5874,0.601,0.6183,0.6338,0.6264,0.6281,0.6464,0.6759,0.7034,0.7139,0.7139,0.7139,0.7139,0.718,0.0,0.0,0.0,0.0,0.0,-0.0988,-0.4006,-0.1908,-0.0,-0.0,-0.0,0.027,0.0893,0.3611,0.5382,0.5369,0.5583,0.0,0.0,0.0,0.0,0.318,0.3091,0.3566,0.4646,0.5102,0.5223,0.0,0.0,0.0,0.0,0.0,0.0,0.0,0.0,0.0,0.4487,0.4602,0.0,0.5368,0.5445,0.5963,0.6648,0.6316,0.6319,0.6354,0.6005,0.6248,0.6872,0.6902,0.6465,0.5818,0.5686,0.562,0.5624,0.5428,0.5428,0.5428,0.5428,0.5576,0.58,0.58,0.6034,0.6338,0.6338,0.624,0.623,0.6254,0.6217,0.6159,0.6084,0.0,0.0,0.0,0.0,0.0,0.0,0.0,0.0,0.0,0.0,0.5491,0.0,0.0,0.0,0.0,0.0,0.0,0.0,0.0,0.6578,0.0,0.7847,0.0,0.0,0.0,0.6635,0.6021,0.5621,0.5442,0.541,0.5681,0.5817,0.5857,0.6139,0.6338,0.6349,0.6386,0.6614,0.6905,0.7075,0.7139,0.7139,0.7139,0.7139,0.7166,0.0,0.0,0.0,0.0,0.0,0.0,0.0,-0.3331,0.0,-0.1546,-0.1432,-0.1055,-0.0133,0.1014,0.1909,0.2523,0.2727,0.2781,0.2679,0.1806,0.1332,0.1318,0.1277,0.0,0.2142,0.3188,0.3756,0.3727,0.0,0.0,0.0,0.0,0.0,0.0,0.0,0.3128,0.0,0.0,0.0,0.5148,0.5039,0.5258,0.5644,0.5555,0.5571,0.5597,0.5436,0.5686,0.6009,0.6009,0.5752,0.5428,0.5428,0.5428,0.5428,0.5428,0.5428,0.5428,0.5428,0.5525,0.5691,0.5691,0.5857,0.6044,0.6122,0.6142,0.6162,0.6244,0.6338,0.6213,0.6057,0.5905,0.0,0.0,0.0,0.0,0.0,0.0,0.0,0.0,0.0,0.0,0.0,0.0,0.0,0.0,0.0,0.0,0.0,0.0,0.6025,0.0,0.0,0.0,0.755,0.0,0.6699,0.6394,0.5738,0.5443,0.5593,0.5735,0.5844,0.5932,0.6162,0.6338,0.6271,0.6413,0.6607,0.6824,0.6973,0.7075,0.7139,0.7139,0.719,0.7272,0.0,-0.1653,0.0,0.0,-0.513,0.0,-0.3501,-0.4504,-0.4872,-0.3445,-0.3305,-0.2725,-0.1303,-0.1651,-0.1737,-0.1209,-0.1137,-0.0533,0.0868,0.0335,-0.0,-0.0,-0.0,-0.0,-0.0,0.1166,0.1861,0.0,0.0,0.0,0.0,0.0,0.0,0.0,0.0,0.0,0.0,0.0,0.4454,0.4235,0.4063,0.4021,0.4071,0.454,0.4906,0.5213,0.5321,0.5428,0.5428,0.5428,0.5428,0.5428,0.5428,0.5428,0.5428,0.5428,0.5428,0.5428,0.5428,0.5474,0.5596,0.5627,0.5742,0.5888,0.6044,0.6078,0.6112,0.6237,0.6338,0.6213,0.6057,0.5932,0.0,0.0,0.0,0.0,0.0,0.0,0.0,0.0,0.0,0.0,0.5545,0.0,0.0,0.0,0.0,0.0,0.5125,0.0,0.0,0.0,0.0,0.7043,0.7623,0.0,0.6814,0.6738,0.5859,0.5532,0.5755,0.5786,0.5884,0.6037,0.6193,0.6295,0.6363,0.6474,0.6627,0.6807,0.6926,0.7041,0.7139,0.7139,0.7217,0.7322,0.0,0.0,0.0,0.0,0.0,0.0,-0.5156,-0.5302,-0.5309,-0.5169,-0.5169,-0.5081,-0.493,-0.3533,-0.3248,-0.4737,-0.4925,-0.4791,-0.4654,-0.1749,-0.0,-0.0,-0.0,-0.0,-0.0,0.0114,0.0229,0.0,0.0,0.0298,0.0,0.0,0.0,0.0,0.0,0.0,0.0,0.486,0.3917,0.2461,0.2404,0.2387,0.2518,0.3227,0.424,0.5359,0.5425,0.5428,0.5428,0.5428,0.5428,0.5428,0.5428,0.5428,0.5428,0.5428,0.5428,0.5428,0.5428,0.5474,0.5623,0.5749,0.5895,0.6051,0.6203,0.624,0.6244,0.6335,0.6338,0.6213,0.6057,0.6017,0.5962,0.0,0.0,0.0,0.0,0.0,0.5844,0.5985,0.0,0.0,0.0,0.5422,0.0,0.0,0.5077,0.0,0.0,0.0,0.0,0.5488,0.5572,0.5649,0.5862,0.5793,0.5731,0.5745,0.5648,0.5583,0.5613,0.5742,0.5884,0.6037,0.6193,0.6413,0.6661,0.6675,0.6844,0.7099,0.7115,0.7129,0.7139,0.7139,0.7149,0.7163,0.0,0.0,0.0,0.0,0.0,0.0,0.0,-0.5369,-0.5369,-0.5376,-0.5294,-0.5298,-0.5389,-0.4656,-0.4495,-0.5332,-0.543,-0.5396,-0.541,-0.4056,-0.2289,-0.0065,-0.0,-0.0,-0.0,-0.0,-0.0,0.0,0.0,0.0,0.0,0.0,0.0,0.0,0.0,0.4732,0.3607,0.4365,0.4258,0.3429,0.1592,0.2169,0.4041,0.3238,0.398,0.5376,0.5432,0.5428,0.5428,0.5428,0.5428,0.5428,0.5428,0.5428,0.5428,0.5428,0.5428,0.5428,0.5428,0.5473,0.5467,0.5525,0.5583,0.5671,0.5823,0.5925,0.601,0.6101,0.6122,0.6132,0.6162,0.5952,0.5879,0.6067,0.0,0.0,0.0,0.0,0.0,0.4726,0.0,0.5721,0.0,0.0,0.0,0.0,0.0,0.0,0.0,0.0,0.0,0.5358,0.0,0.5413,0.5445,0.5567,0.5677,0.585,0.5759,0.5813,0.5989,0.5956,0.6023,0.6173,0.6234,0.6376,0.6563,0.6563,0.6742,0.7014,0.7014,0.7065,0.7139,0.7139,0.7139,0.7139,-0.543,0.0,-0.5593,0.0,-0.5365,-0.5318,-0.5422,-0.5321,-0.5294,-0.5294,-0.5162,-0.5145,-0.5352,-0.5267,-0.525,-0.5379,-0.4906,-0.4827,-0.5355,-0.4392,-0.2693,-0.0126,-0.0,0.0,-0.0,-0.0,-0.0,-0.0,-0.0,0.0,0.0,0.0,0.0,0.0,0.2669,0.3712,0.3498,0.3244,0.3175,0.3002,0.0877,0.2078,0.4999,0.3916,0.4227,0.5254,0.5377,0.5377,0.5377,0.5377,0.5404,0.5377,0.5415,0.5428,0.5428,0.5428,0.5428,0.5428,0.5428,0.5428,0.5439,0.5416,0.543,0.5467,0.5616,0.5728,0.5833,0.5945,0.6044,0.6115,0.6135,0.5973,0.5739,0.5591,0.0,0.0,0.0,0.2511,0.0,0.0,0.4775,0.5607,0.5525,0.5423,0.0,0.0,0.0,0.0,0.0,0.0,0.0,0.0,0.0,0.0,0.5409,0.5487,0.5604,0.5833,0.5813,0.5915,0.6125,0.6105,0.6159,0.6338,0.6338,0.6342,0.6471,0.6471,0.6654,0.6929,0.6929,0.7014,0.7139,0.7139,0.7139,0.7139,-0.5559,-0.5464,-0.5476,-0.5562,-0.5335,-0.5186,-0.5338,-0.5233,-0.5135,-0.5135,-0.5009,-0.5033,-0.5394,-0.5425,-0.5365,-0.5376,-0.3754,-0.3517,-0.5277,-0.2068,-0.0063,0.0,0.0,-0.0,-0.0,-0.0,-0.0,-0.0,0.0,0.0,-0.0,0.0,-0.0,-0.0,0.0063,0.2033,0.5105,0.1544,0.0062,0.0062,-0.0,0.1791,0.4547,0.5145,0.5167,0.4958,0.5276,0.5406,0.5406,0.5406,0.5377,0.5389,0.5387,0.5428,0.5428,0.5428,0.5428,0.5428,0.5428,0.5428,0.5466,0.5549,0.5586,0.5627,0.5766,0.58,0.5806,0.5967,0.6149,0.6203,0.5838,0.5923,0.5565,0.4139,0.0,0.0,0.0,0.1191,0.0,0.2513,0.4308,0.5389,0.5432,0.5428,0.0,0.0,0.0,0.0,0.0,0.0,0.0,0.5376,0.3685,0.0,0.5382,0.5391,0.5385,0.5439,0.5664,0.5803,0.5817,0.6118,0.6335,0.6338,0.6338,0.6342,0.6471,0.6471,0.6654,0.6929,0.6929,0.7014,0.7139,0.7139,0.7139,0.7139,-0.5121,-0.5172,-0.5189,-0.5142,-0.5131,-0.5114,-0.5067,-0.502,-0.4986,-0.4986,-0.4948,-0.4955,-0.505,-0.5037,-0.513,0.0,-0.4897,-0.3707,0.0,-0.0622,-0.0,-0.0,-0.0,-0.0,-0.0,-0.0,-0.0,-0.0,0.0,0.0,0.0,-0.0,-0.0,-0.0,-0.0,0.0611,0.1667,0.0494,-0.0,-0.0,-0.0,0.0548,0.1676,0.3912,0.4182,0.3388,0.3513,0.3574,0.3584,0.3528,0.3573,0.3549,0.3581,0.4422,0.5372,0.5372,0.5369,0.5428,0.5372,0.5372,0.5386,0.5443,0.5457,0.5471,0.5515,0.5534,0.5274,0.42,0.4068,0.421,0.4426,0.5095,0.5489,0.517,0.4819,0.0,0.2868,0.0,0.2498,0.4292,0.5068,0.5379,0.5428,0.5428,0.0,0.0,0.0,0.0,0.0,0.0,0.0,0.0,0.2976,0.0,0.1721,0.4176,0.5369,0.5391,0.5641,0.5857,0.5966,0.6169,0.6338,0.6338,0.6338,0.6342,0.6471,0.6471,0.6654,0.6929,0.6929,0.7014,0.7139,0.7139,0.7139,0.7139,-0.4918,-0.4989,-0.5023,-0.4935,-0.4945,-0.4955,-0.4925,-0.487,-0.4833,-0.4833,-0.4833,-0.4813,-0.4755,-0.4731,0.0,-0.4612,-0.4628,-0.3283,-0.0187,-0.0,-0.0,-0.0,-0.0,-0.0,-0.0,-0.0,0.0,-0.0,-0.0,-0.0,-0.0,-0.0,-0.0,-0.0,-0.0,-0.0,-0.0,-0.0,-0.0,-0.0,-0.0,-0.0,0.0176,0.2107,0.3073,0.3214,0.208,0.1676,0.1816,0.2502,0.2691,0.2706,0.2725,0.3497,0.45,0.5179,0.5376,0.5369,0.5382,0.5382,0.5243,0.457,0.437,0.437,0.437,0.4888,0.5139,0.4169,0.2903,0.2054,0.2395,0.4077,0.5421,0.5594,0.5457,0.4996,0.3861,0.0,0.4104,0.0,0.0,0.0,0.0,0.5428,0.5428,0.0,0.0,0.0,0.0,0.0,0.4338,0.2744,0.203,0.1149,-0.0,0.3582,0.5388,0.5381,0.5641,0.5881,0.6034,0.619,0.6338,0.6338,0.6338,0.6312,0.6393,0.6393,0.6536,0.6756,0.6756,0.6881,0.7061,0.7061,0.7095,0.7139,-0.4887,-0.4897,-0.4901,0.0,-0.4779,0.0,-0.4867,-0.4765,-0.4674,-0.4677,-0.4674,-0.4619,-0.4532,-0.4473,-0.4185,-0.3459,0.0,0.0,0.0,-0.0117,-0.0,-0.0,-0.0,-0.0,-0.0,-0.0,-0.0,-0.0,-0.0,-0.0,-0.0,-0.0,-0.0,-0.0,-0.0,-0.0,-0.0,-0.0,-0.0117,-0.0293,-0.0293,-0.0234,-0.0176,-0.0176,0.167,0.3828,0.1008,-0.0,0.0234,0.1935,0.2518,0.2498,0.2497,0.2501,0.2872,0.4503,0.5113,0.5243,0.5393,0.5389,0.4903,0.3013,0.2544,0.2611,0.2813,0.4188,0.5303,0.5097,0.2311,-0.0,-0.0,0.2747,0.5136,0.5349,0.5386,0.5379,0.5376,0.5386,0.5389,0.0,0.0,0.0,0.5428,0.5428,0.5428,0.0,0.0,0.0,0.0,0.0,0.4257,0.2743,0.0941,0.0067,0.0201,0.3498,0.5262,0.5379,0.5664,0.5874,0.602,0.6183,0.6338,0.6338,0.6338,0.6338,0.6338,0.6338,0.6342,0.6471,0.6471,0.6661,0.6929,0.6929,0.7017,0.7139,0.0,0.0,-0.4707,-0.4592,-0.4636,-0.4663,-0.4582,-0.4594,-0.4521,-0.4528,-0.4521,-0.4563,-0.4477,-0.4525,-0.4438,-0.4219,-0.4238,-0.3989,-0.3467,-0.1261,-0.0,-0.0,-0.0,-0.0,-0.0,-0.0,-0.0,-0.0,-0.0,-0.0,-0.0,-0.0,-0.0,-0.0,-0.0,-0.0,-0.0,-0.0,-0.1305,-0.3414,-0.3414,-0.2721,-0.1693,-0.1694,-0.0562,0.095,0.028,-0.0,0.0057,0.0521,0.0651,0.0665,0.0614,0.0623,0.0699,0.1125,0.2277,0.362,0.4995,0.5406,0.4654,0.1412,0.0673,0.1345,0.411,0.5094,0.4625,0.188,0.061,-0.0,-0.0,0.0674,0.2159,0.4979,0.5379,0.5376,0.5432,0.5369,0.5369,0.0,0.5432,0.5432,0.5428,0.5428,0.5428,0.0,0.0,0.5428,0.5428,0.5342,0.4469,0.2744,0.0938,0.0671,0.2022,0.2889,0.4023,0.5435,0.5661,0.582,0.5864,0.6135,0.6338,0.6338,0.6338,0.6338,0.6338,0.6338,0.6342,0.6471,0.6471,0.6661,0.6929,0.6929,0.7017,0.7139,-0.4519,-0.4584,-0.4562,-0.4532,-0.4587,-0.4558,-0.4529,-0.4519,-0.4519,-0.4525,-0.4522,-0.4519,-0.4525,-0.4522,-0.4519,-0.4519,-0.4473,-0.4518,-0.4492,-0.2995,-0.1452,-0.0056,-0.0,-0.0,-0.0,-0.0,-0.0,-0.0,-0.0,-0.0,-0.0,-0.0,-0.0,-0.0,-0.0,-0.0,-0.0112,-0.1457,-0.2977,-0.4514,-0.4507,-0.3987,-0.3244,-0.3249,-0.2745,-0.1902,-0.0503,-0.0,-0.0,-0.0,-0.0,-0.0,-0.0,-0.0,-0.0,-0.0,0.0716,0.2046,0.4651,0.542,0.4512,0.0928,-0.0,0.0537,0.2452,0.4212,0.4861,0.2889,0.1139,-0.0,-0.0,-0.0,0.0937,0.3685,0.4834,0.5376,0.5428,0.5428,0.5428,0.5428,0.5428,0.5428,0.5428,0.5428,0.5428,0.5428,0.5428,0.0,0.5428,0.5432,0.4967,0.3954,0.2209,0.1676,0.2691,0.3489,0.4425,0.5372,0.5661,0.58,0.5813,0.6122,0.6338,0.6338,0.6338,0.6338,0.6338,0.6338,0.6305,0.6376,0.6376,0.6559,0.6817,0.6746,0.6858,0.7044,-0.4519,-0.4519,-0.4519,-0.4519,-0.4519,-0.4519,-0.4519,-0.4519,-0.4519,-0.4519,-0.4519,-0.4519,-0.4519,-0.4522,-0.4522,-0.4522,-0.4522,-0.4525,-0.448,-0.449,-0.3363,-0.0782,-0.0224,-0.0,-0.0,-0.0,-0.0,-0.0,-0.0,-0.0,-0.0,-0.0,-0.0,-0.0,-0.0,-0.0,-0.0224,-0.3205,-0.4514,-0.4511,-0.4501,-0.4497,-0.4497,-0.4507,-0.4511,-0.4169,-0.1625,-0.04,-0.0,-0.0,-0.0,0.0061,0.0531,0.0655,0.0609,0.0428,0.0187,0.064,0.3782,0.4561,0.387,0.0783,-0.0,-0.0,-0.0,0.2579,0.5065,0.5339,0.2954,0.0736,0.0469,0.0402,0.1004,0.2811,0.4428,0.5376,0.5428,0.0,0.5428,0.5428,0.5428,0.5428,0.5428,0.5428,0.5428,0.5428,0.5428,0.5428,0.5428,0.5428,0.5432,0.5376,0.3887,0.308,0.308,0.4631,0.5376,0.5379,0.5644,0.5769,0.5779,0.6064,0.6193,0.6193,0.6193,0.6193,0.6193,0.6217,0.6227,0.623,0.6251,0.6427,0.6651,0.6519,0.6651,0.6895,-0.4519,-0.4519,-0.4519,-0.4519,-0.4519,-0.4519,-0.4519,-0.4519,-0.4522,-0.4477,-0.4525,-0.4522,-0.4477,-0.4477,-0.4477,-0.4477,-0.4487,-0.4487,-0.448,-0.4501,-0.4284,-0.3825,-0.1345,-0.0,-0.0,-0.0,-0.0,-0.0,-0.0,-0.0,-0.0,-0.0,-0.0,-0.0,-0.0,-0.0,-0.0224,-0.3205,-0.4514,-0.4511,-0.4501,-0.4497,-0.4497,-0.4497,-0.4504,-0.4455,-0.3943,-0.214,-0.0,-0.0,-0.0,0.0455,0.3006,0.3815,0.3558,0.2229,0.0948,0.012,0.0683,0.0829,0.0718,0.0133,-0.0,-0.0,-0.0,0.1602,0.3556,0.5055,0.4979,0.409,0.2544,0.2275,0.2878,0.4697,0.5243,0.5376,0.5428,0.0,0.5428,0.5428,0.5428,0.5428,0.5428,0.5428,0.5428,0.5428,0.5428,0.5428,0.5428,0.5428,0.5428,0.5432,0.51,0.497,0.497,0.5243,0.5372,0.5432,0.5542,0.5623,0.563,0.5796,0.5871,0.5871,0.5871,0.5871,0.5881,0.6013,0.6064,0.6078,0.621,0.6363,0.6505,0.6481,0.6583,0.6736,-0.4519,-0.4519,-0.4519,-0.4519,-0.4519,-0.4519,-0.4519,-0.4519,-0.4519,-0.4525,-0.4522,-0.4519,-0.4525,-0.4477,-0.448,-0.448,-0.4494,-0.4504,-0.4497,-0.4507,-0.4514,-0.4514,-0.1625,-0.0,-0.0,-0.0,-0.0,-0.0,-0.0,-0.0,-0.0,-0.0,-0.0,-0.0,-0.0,-0.0,-0.0112,-0.1511,-0.303,-0.4455,-0.3588,-0.3244,-0.3357,-0.416,-0.4507,-0.4284,-0.2639,-0.1177,-0.0,-0.0,-0.0,0.0505,0.3543,0.4514,0.4353,0.3653,0.1816,-0.0,-0.0,-0.0,-0.0,-0.0,-0.0,0.0393,0.2061,0.2593,0.3207,0.4863,0.5325,0.5173,0.4292,0.4161,0.4436,0.5252,0.5386,0.5386,0.5379,0.5376,0.5369,0.5369,0.5432,0.5428,0.5428,0.5428,0.5428,0.5428,0.5428,0.5428,0.5428,0.5428,0.5428,0.5428,0.5432,0.5369,0.5369,0.5369,0.5432,0.5428,0.5515,0.5589,0.5596,0.5735,0.58,0.58,0.58,0.5847,0.5928,0.6,0.6078,0.6162,0.6234,0.6346,0.6464,0.6386,0.6451,0.6576,-0.4519,-0.4519,-0.4519,-0.4519,-0.4519,-0.4519,-0.4519,-0.4519,-0.4519,-0.4519,-0.4519,-0.4519,-0.4519,-0.4473,-0.4366,-0.3968,-0.4274,-0.4518,-0.4518,-0.3828,-0.3431,-0.3431,-0.1233,-0.0,-0.0,-0.0,-0.0,-0.0,-0.0,-0.0,-0.0,-0.0,-0.0,-0.0,-0.0,-0.0,-0.0,-0.0,-0.1342,-0.3429,-0.2912,-0.2289,-0.1842,-0.303,-0.3431,-0.3147,-0.0841,-0.0,-0.0,-0.0,-0.0,0.0505,0.3543,0.4514,0.4511,0.4497,0.2607,0.0424,0.0063,-0.0,-0.0,-0.0,-0.0,0.0578,0.2953,0.3299,0.3478,0.4871,0.5298,0.5379,0.5376,0.5382,0.5389,0.5389,0.0,0.5322,0.5049,0.4973,0.5103,0.5376,0.5432,0.5428,0.5428,0.5428,0.5428,0.5428,0.5428,0.5428,0.5428,0.5428,0.5428,0.5428,0.5428,0.5428,0.5428,0.5428,0.5428,0.5428,0.5481,0.5538,0.5542,0.565,0.5698,0.5698,0.5698,0.5766,0.5881,0.5949,0.6047,0.6162,0.6234,0.6329,0.641,0.6302,0.6329,0.6424,-0.4519,-0.4519,-0.4519,-0.4519,-0.4519,-0.4519,-0.4519,-0.4519,-0.4519,-0.4519,-0.4519,-0.4519,-0.4519,-0.4484,-0.3922,-0.251,-0.3658,-0.4472,-0.4472,-0.1909,-0.0336,-0.0336,-0.0112,-0.0,-0.0,-0.0,-0.0,-0.0,-0.0,-0.0,-0.0,-0.0,-0.0,-0.0,-0.0,-0.0,-0.0,-0.0,-0.0112,-0.0561,-0.3258,-0.2637,-0.0168,-0.028,-0.0336,-0.028,-0.0056,-0.0,-0.0,-0.0,-0.0,0.0505,0.3543,0.4514,0.4507,0.4487,0.3307,0.1755,0.0352,-0.0,-0.0,-0.0,-0.0,0.0065,0.0258,0.245,0.4567,0.5216,0.5379,0.5376,0.5432,0.5428,0.5369,0.5379,0.0,0.0,0.3882,0.3744,0.4148,0.5292,0.5428,0.5428,0.5428,0.5428,0.5428,0.5428,0.5428,0.5428,0.5428,0.5428,0.5428,0.5428,0.5428,0.5428,0.5428,0.5428,0.5428,0.5428,0.5439,0.5446,0.5446,0.5456,0.5459,0.5459,0.5459,0.5466,0.5433,0.5705,0.5823,0.5864,0.6149,0.6268,0.6352,0.6342,0.6268,0.6278,-0.4519,-0.4519,-0.4519,-0.4519,-0.4519,-0.4519,-0.4519,-0.4519,-0.4519,-0.4519,-0.4519,-0.4522,-0.4473,-0.4487,-0.4271,-0.3649,-0.2469,-0.1685,-0.1685,-0.0617,-0.0,-0.0,-0.0,-0.0,-0.0,-0.0,-0.0,-0.0,-0.0,-0.0,-0.0,-0.0,-0.0,-0.0,-0.0,-0.0,-0.0,-0.0,-0.0,-0.0112,-0.1233,-0.1009,-0.0,-0.0,-0.0,-0.0,-0.0,-0.0,-0.0,-0.0,-0.0,0.0224,0.1343,0.2577,0.3708,0.4324,0.4092,0.3086,0.0682,-0.0,-0.0,-0.0,-0.0,-0.0,-0.0,0.0865,0.2011,0.3177,0.4463,0.5386,0.5372,0.5372,0.5372,0.5379,0.0,0.4015,0.3145,0.402,0.4897,0.5372,0.5432,0.5428,0.5428,0.5428,0.5428,0.5428,0.5428,0.5428,0.5428,0.5428,0.5428,0.5428,0.5428,0.5428,0.5428,0.5428,0.5428,0.5428,0.5428,0.5428,0.5428,0.5428,0.5428,0.5428,0.5428,0.5416,0.5518,0.5718,0.58,0.583,0.6142,0.6203,0.6129,0.6227,0.6338,0.6338,-0.4519,-0.4519,-0.4519,-0.4519,-0.4519,-0.4519,-0.4519,-0.4519,-0.4519,-0.4519,-0.4519,-0.4522,-0.4477,-0.4089,-0.3987,-0.4455,-0.1738,-0.0,-0.0,-0.0,-0.0,-0.0,-0.0,-0.0,-0.0,-0.0,-0.0,-0.0,-0.0,-0.0,-0.0,-0.0,-0.0,-0.0,-0.0,-0.0,-0.0,-0.0,-0.0,-0.0,-0.0,-0.0,-0.0,-0.0,-0.0,-0.0,-0.0,-0.0,-0.0,-0.0,-0.0,-0.0,-0.0,0.1285,0.297,0.416,0.4501,0.4039,0.1958,0.074,-0.0,-0.0,-0.0,-0.0,-0.0,-0.0,0.0309,0.1307,0.2661,0.3961,0.4697,0.5173,0.5379,0.5379,0.4694,0.4018,0.3618,0.4631,0.5376,0.5372,0.5432,0.5428,0.5428,0.5428,0.5428,0.5428,0.5428,0.5428,0.5428,0.5428,0.5428,0.5428,0.5428,0.5428,0.5428,0.5428,0.5428,0.5428,0.5428,0.5428,0.5428,0.5428,0.5428,0.5428,0.5428,0.542,0.5532,0.5674,0.5735,0.5766,0.6071,0.6125,0.6051,0.6203,0.6338,0.6338,-0.4519,-0.4519,-0.4519,-0.4519,-0.4519,-0.4519,-0.4519,-0.4519,-0.4519,-0.4519,-0.4519,-0.4522,-0.4477,-0.3125,-0.2796,-0.434,-0.1738,-0.0,-0.0,-0.0,-0.0,-0.0,-0.0,-0.0,-0.0,-0.0,-0.0,-0.0,-0.0,-0.0,-0.0,-0.0,-0.0,-0.0,-0.0,-0.0,-0.0,-0.0,-0.0,-0.0,-0.0,-0.0,-0.0,-0.0,-0.0,-0.0,-0.0,-0.0,-0.0,-0.0,-0.0,-0.0,-0.0,0.1006,0.2512,0.4051,0.4504,0.4497,0.4511,0.2301,-0.0,-0.0,-0.0,-0.0,-0.0,-0.0,-0.0,-0.0,-0.0,0.0803,0.3141,0.4558,0.5379,0.5379,0.5379,0.5379,0.5379,0.5379,0.5372,0.5428,0.5428,0.5428,0.5428,0.5428,0.5428,0.5428,0.5428,0.5428,0.5428,0.5428,0.5428,0.5428,0.5428,0.5428,0.5428,0.5428,0.5428,0.5428,0.5428,0.5428,0.5428,0.5428,0.5428,0.5428,0.5428,0.5428,0.5439,0.5528,0.5589,0.5616,0.5915,0.6027,0.6047,0.6203,0.6335,0.6338,-0.4519,-0.4519,-0.4519,-0.4519,-0.4519,-0.4519,-0.4519,-0.4519,-0.4519,-0.4519,-0.4519,-0.4525,-0.449,-0.313,-0.1955,-0.1401,-0.0505,-0.0,-0.0,-0.0,-0.0,-0.0,-0.0,-0.0,-0.0,-0.0,-0.0,-0.0,-0.0,-0.0,-0.0,-0.0,-0.0,-0.0,-0.0,-0.0,-0.0,-0.0,-0.0,-0.0,-0.0,-0.0,-0.0,-0.0,-0.0,-0.0,-0.0,-0.0,-0.0,-0.0,-0.0,-0.0,-0.0,0.1006,0.2512,0.4051,0.3761,0.3132,0.4222,0.2301,-0.0,-0.0,-0.0,-0.0,-0.0,-0.0,-0.0,-0.0,0.2043,0.3629,0.308,0.4292,0.5376,0.5369,0.5432,0.5432,0.5432,0.5432,0.5432,0.5428,0.5428,0.5428,0.5428,0.5396,0.542,0.5382,0.5379,0.5386,0.5386,0.5386,0.5386,0.5386,0.5386,0.5386,0.5386,0.5376,0.5372,0.5372,0.5372,0.5372,0.5372,0.5432,0.5428,0.5428,0.5428,0.5428,0.5439,0.5528,0.5528,0.5457,0.5752,0.5871,0.5888,0.6044,0.6166,0.6338,-0.4519,-0.4519,-0.4519,-0.4519,-0.4519,-0.4519,-0.4519,-0.4519,-0.4519,-0.4519,-0.4519,-0.4525,-0.4494,-0.313,-0.1619,-0.0112,-0.0,-0.0,-0.0,-0.0,-0.0,-0.0,-0.1121,-0.1233,-0.0,-0.0,-0.0,-0.0,-0.0,-0.0,-0.0,-0.0,-0.0,-0.0,-0.0,-0.0,-0.0,-0.0,-0.0,-0.0,-0.0,-0.0,-0.0,-0.0,-0.0,-0.0,-0.0,-0.0,-0.0,-0.0,-0.0,0.0224,0.1401,0.1958,0.2512,0.4045,0.3418,0.2514,0.4107,0.2301,-0.0,-0.0,-0.0,-0.0,-0.0,-0.0,-0.0,-0.0,0.2885,0.5065,0.3961,0.4634,0.5376,0.5428,0.5428,0.5428,0.5428,0.5428,0.5428,0.5428,0.5428,0.5386,0.5383,0.5408,0.5098,0.4367,0.4304,0.4306,0.4306,0.433,0.4303,0.4303,0.4325,0.43,0.43,0.5049,0.5046,0.4359,0.4359,0.47,0.5379,0.5372,0.5432,0.5428,0.5428,0.5428,0.5435,0.546,0.5447,0.5452,0.5627,0.5718,0.5742,0.5952,0.6088,0.6179,-0.4519,-0.4519,-0.4519,-0.4519,-0.4519,-0.4519,-0.4519,-0.4519,-0.4519,-0.4519,-0.4519,-0.4525,-0.4494,-0.313,-0.1619,-0.0112,-0.0,-0.0,-0.0,-0.0,-0.0112,-0.0392,-0.3033,-0.3205,-0.0448,-0.0112,-0.0,-0.0,-0.0,-0.0,-0.0,-0.0,-0.0,-0.0,-0.0,-0.0,-0.0,-0.0,-0.0,-0.0,-0.0,-0.0,-0.0,-0.0,-0.0,-0.0,-0.0,-0.0,-0.0,-0.0,-0.0,0.0505,0.3205,0.3309,0.2681,0.4098,0.3527,0.2625,0.3766,0.2076,0.0056,0.0336,0.0392,0.0393,0.0452,0.0414,0.037,0.0248,0.2976,0.5376,0.5389,0.5372,0.5359,0.5428,0.5428,0.5428,0.5428,0.5428,0.5428,0.5428,0.5428,0.5426,0.5378,0.5408,0.4613,0.2617,0.2472,0.2469,0.2469,0.2479,0.2443,0.2443,0.2583,0.2679,0.2679,0.4517,0.4584,0.2947,0.2611,0.3416,0.5173,0.5309,0.5372,0.5428,0.5428,0.5428,0.5428,0.5428,0.5428,0.5442,0.5515,0.5579,0.5623,0.5891,0.5996,0.603,-0.4519,-0.4519,-0.4519,-0.4519,-0.4519,-0.4519,-0.4519,-0.4519,-0.4519,-0.4519,-0.4519,-0.4525,-0.4494,-0.313,-0.1619,-0.0112,-0.0,-0.0,-0.0,-0.0,-0.1065,-0.3429,-0.4169,-0.4166,-0.3532,-0.1229,-0.0,-0.0,-0.0,-0.0,-0.0,-0.0,-0.0,-0.0,-0.0,-0.0,-0.0,-0.0,-0.0,-0.0,-0.0,-0.0,-0.0,-0.0,-0.0,-0.0,-0.0,-0.0,-0.0,-0.0,-0.0,0.0112,0.0784,0.2352,0.4042,0.4392,0.4274,0.3585,0.1509,0.0504,0.0561,0.2921,0.3543,0.3651,0.4148,0.3854,0.3285,0.2337,0.3597,0.5044,0.5338,0.5274,0.5223,0.5342,0.5428,0.5428,0.5428,0.5428,0.5432,0.5372,0.5376,0.5373,0.5392,0.5374,0.4096,0.0823,0.0589,0.0582,0.0582,0.0569,0.0561,0.0561,0.1982,0.2698,0.2698,0.4473,0.5222,0.4791,0.1944,0.1539,0.3349,0.4764,0.5372,0.5428,0.5428,0.5428,0.5428,0.5428,0.5428,0.5432,0.5466,0.5484,0.5596,0.5661,0.5755,0.5874,-0.4519,-0.4519,-0.4519,-0.4519,-0.4519,-0.4519,-0.4525,-0.4525,-0.4473,-0.4477,-0.448,-0.4484,-0.4504,-0.3761,-0.2408,-0.0168,-0.0,-0.0,-0.0,-0.1345,-0.2865,-0.4455,-0.4504,-0.4494,-0.4487,-0.2961,-0.1451,-0.0,-0.0,-0.0,-0.0,-0.0,-0.0,-0.0,-0.0,-0.0,-0.0,-0.0,-0.0,-0.0,-0.0,-0.0,-0.0,-0.0,-0.0,-0.0,-0.0,-0.0,0.0224,0.1682,0.2132,0.213,0.2125,0.3249,0.4497,0.4497,0.4501,0.4163,0.2577,0.1119,0.0728,0.3772,0.4514,0.4379,0.3993,0.4318,0.4492,0.3693,0.4284,0.5021,0.524,0.5254,0.5267,0.5415,0.5428,0.5428,0.5428,0.5432,0.5372,0.5379,0.4631,0.4481,0.5332,0.3853,0.2016,0.0151,-0.0,-0.0,-0.0,-0.0,-0.0,-0.0,0.0895,0.1417,0.1417,0.2327,0.3698,0.5346,0.1746,0.0939,0.2744,0.4567,0.5376,0.5428,0.5428,0.5428,0.5428,0.5428,0.5428,0.5428,0.5428,0.541,0.5491,0.5562,0.5681,0.5833,-0.4519,-0.4519,-0.4519,-0.4519,-0.4519,-0.4522,-0.4473,-0.4477,-0.4484,-0.4494,-0.4265,-0.4216,-0.4455,-0.4054,-0.2921,-0.0953,-0.0784,-0.0672,-0.0392,-0.2693,-0.4222,-0.4507,-0.449,-0.4477,-0.4477,-0.4477,-0.3292,-0.0781,-0.0279,-0.0,-0.0,-0.0,-0.0,-0.0,-0.0,-0.0,-0.0,-0.0,-0.0,-0.0,-0.0,-0.0,-0.0,-0.0,-0.0,-0.0,-0.0,-0.0,0.0392,0.2865,0.4058,0.4511,0.4494,0.449,0.4379,0.386,0.4098,0.4514,0.4514,0.2301,0.0672,0.3426,0.4281,0.4163,0.2903,0.3775,0.4766,0.466,0.4819,0.5024,0.5075,0.5226,0.5301,0.5321,0.5394,0.5404,0.5428,0.5376,0.5382,0.5382,0.3502,0.2797,0.4348,0.1763,-0.0,-0.0,-0.0,-0.0,-0.0,-0.0,-0.0,-0.0,-0.0,-0.0,-0.0,0.0699,0.251,0.5383,0.2373,0.1687,0.3213,0.4706,0.5382,0.5428,0.5428,0.5428,0.5428,0.5428,0.5428,0.5428,0.5428,0.5428,0.5442,0.5504,0.564,0.5803,-0.4519,-0.4519,-0.4519,-0.4519,-0.4519,-0.4519,-0.4519,-0.4473,-0.448,-0.448,-0.3352,-0.3021,-0.434,-0.2188,-0.1514,-0.3713,-0.3884,-0.3312,-0.2009,-0.2289,-0.313,-0.4428,-0.448,-0.4473,-0.4519,-0.4519,-0.4298,-0.3913,-0.1282,-0.0,-0.0,-0.0,-0.0,-0.0,-0.0,-0.0,-0.0,-0.0,-0.0,-0.0,-0.0,-0.0,-0.0,-0.0,-0.0,-0.0,-0.0,-0.0,0.0056,0.0449,0.2357,0.4514,0.4521,0.4511,0.3984,0.1396,0.2464,0.4514,0.4514,0.2301,0.0392,0.2066,0.3527,0.4435,0.4242,0.4376,0.4623,0.4947,0.4793,0.466,0.5034,0.5008,0.4984,0.5095,0.5317,0.5373,0.5372,0.5393,0.5396,0.5406,0.2406,0.0489,0.0702,0.0294,-0.0,-0.0,-0.0,-0.0,-0.0,-0.0,-0.0,-0.0,-0.0,-0.0,-0.0,0.3627,0.5399,0.5395,0.4891,0.4822,0.5036,0.5309,0.5372,0.5428,0.5428,0.5428,0.5428,0.5428,0.5428,0.5428,0.5428,0.5428,0.5428,0.5452,0.5488,0.5627,-0.4519,-0.4519,-0.4519,-0.4519,-0.4519,-0.4519,-0.4525,-0.4477,-0.3913,-0.223,-0.1395,-0.1228,-0.1906,-0.2301,-0.3035,-0.4399,-0.4507,-0.4216,-0.3527,-0.3466,-0.3799,-0.4477,-0.4473,-0.4522,-0.4519,-0.4519,-0.4426,-0.4348,-0.3101,-0.1675,-0.0,-0.0,-0.0,-0.0,-0.0,-0.0,-0.0,-0.0,-0.0,-0.0,-0.0,-0.0,-0.0,-0.0,-0.0,-0.0,-0.0,-0.0,-0.0,-0.0,0.0895,0.2296,0.3996,0.4507,0.4222,0.2916,0.2242,0.1964,0.1964,0.1009,0.0336,0.1845,0.3365,0.4501,0.4484,0.4484,0.4541,0.4735,0.3957,0.328,0.343,0.4281,0.4622,0.3873,0.3818,0.3904,0.3887,0.4782,0.4654,0.2627,0.2725,0.302,0.302,0.2126,0.108,0.0071,-0.0,-0.0,-0.0,-0.0,0.1081,0.3431,0.3541,0.2957,0.1745,0.3546,0.4933,0.5742,0.5748,0.5621,0.5379,0.5379,0.5372,0.5428,0.5428,0.5428,0.5428,0.5428,0.5428,0.5428,0.5428,0.5428,0.5439,0.5457,0.5477,0.5488]},{"header":{"parameterUnit":"m.s-1","parameterCategory":1,"la1":30.6,"la2":28.766,"lo1":-90.7593,"lo2":-88.6598,"dy":0.0162,"dx":0.0183,"nx":116,"ny":114,"refTime":"2023-08-04T06:00:00:Z","depth":0,"parameterNumber":3,"parameterNumberName":"V-component_of_WINDS"},"data":[0.0,0.0,0.0,0.0,0.0,0.0,0.0,0.0,0.0,0.0,0.0,0.0,0.0,0.0,0.0,0.0,0.0,0.0,0.0,0.0,0.0,0.0,0.0,0.0,0.0,0.0,0.0,0.0,0.0,0.0,0.0,0.0,0.0,0.0,0.0,0.0,0.0,0.0,0.0,0.0,0.0,0.0,0.0,0.0,0.0,0.0,0.0,0.0,0.0,0.0,0.0,0.0,0.0,0.0,0.0,0.0,0.0,0.0,0.0,0.0,0.0,0.0,0.0,0.0,0.0,0.0,0.0,0.0,0.0,0.0,0.0,0.0,0.0,0.0,0.0,0.0,0.0,0.0,0.0,0.0,0.0,0.0,0.0,0.0,0.0,0.0,0.0,0.0,0.0,0.0,0.0,0.0,0.0,0.0,0.0,0.0,0.0,0.0,0.0,0.0,0.0,0.0,0.0,0.0,0.0,0.0,0.0,0.0,0.0,0.0,0.0,0.0,0.0,0.0,0.0,0.0,0.0,0.0,0.0,0.0,0.0,0.0,0.0,0.0,0.0,0.0,0.0,0.0,0.0,0.0,0.0,0.0,0.0,0.0,0.0,0.0,0.0,0.0,0.0,0.0,0.0,0.0,0.0,0.0,0.0,0.0,0.0,0.0,0.0,0.0,0.0,0.0,0.0,0.0,0.0,0.0,0.0,0.0,0.0,0.0,0.0,0.0,0.0,0.0,0.0,0.0,0.0,0.0,0.0,0.0,0.0,0.0,0.0,0.0,0.0,0.0,0.0,0.0,0.0,0.0,0.0,0.0,0.0,0.0,0.0,0.0,0.0,0.0,0.0,0.0,0.0,0.0,0.0,0.0,0.0,0.0,0.0,0.0,0.0,0.0,0.0,0.0,0.0,0.0,0.0,0.0,0.0,0.0,0.0,0.0,0.0,0.0,0.0,0.0,0.0,0.0,0.0,0.0,0.0,0.0,0.0,0.0,0.0,0.0,0.0,0.0,0.0,0.0,0.0,0.0,0.0,0.0,0.0,0.0,0.0,0.0,0.0,0.0,0.0,0.0,0.0,0.0,0.0,0.0,0.0,0.0,0.0,0.0,0.0,0.0,0.0,0.0,0.0,0.0,0.0,0.0,0.0,0.0,0.0,0.0,0.0,0.0,0.0,0.0,0.0,0.0,0.0,0.0,0.0,0.0,0.0,0.0,0.0,0.0,0.0,0.0,0.0,0.0,0.0,0.0,0.0,0.0,0.0,0.0,0.0,0.0,0.0,0.0,0.0,0.0,0.0,0.0,0.0,0.0,0.0,0.0,0.0,0.0,0.0,0.0,0.0,0.0,0.0,0.0,0.0,0.0,0.0,0.0,0.0,0.0,0.0,0.0,0.0,0.0,0.0,0.0,0.0,0.0,0.0,0.0,0.0,0.0,0.0,0.0,0.0,0.0,0.0,0.0,0.0,0.0,0.0,0.0,0.0,0.0,0.0,0.0,0.0,0.0,0.0,0.0,0.0,0.0,0.0,0.0,0.0,0.0,0.0,0.0,0.0,0.0,0.0,0.0,0.0,0.0,0.0,0.0,0.0,0.0,0.0,0.0,0.0,0.0,0.0,0.0,0.0,0.0,0.0,0.0,0.0,0.0,0.0,0.0,0.0,0.0,0.0,0.0,0.0,0.0,0.0,0.0,0.0,0.0,0.0,0.0,0.0,0.0,0.0,0.0,0.0,0.0,0.0,0.0,0.0,0.0,0.0,0.0,0.0,0.0,0.0,0.0,0.0,0.0,0.0,0.0,0.0,0.0,0.0,0.0,0.0,0.0,0.0,0.0,0.0,0.0,0.0,0.0,0.0,0.0,0.0,0.0,0.0,0.0,0.0,0.0,0.0,0.0,0.0,0.0,0.0,0.0,0.0,0.0,0.0,0.0,0.0,0.0,0.0,0.0,0.0,0.0,0.0,0.0,0.0,0.0,0.0,0.0,0.0,0.0,0.0,0.0,0.0,0.0,0.0,0.0,0.0,0.0,0.0,0.0,0.0,0.0,0.0,0.0,0.0,0.0,0.0,0.0,0.0,0.0,0.0,0.0,0.0,0.0,0.0,0.0,0.0,0.0,0.0,0.0,0.0,0.0,0.0,0.0,0.0,0.0,0.0,0.0,0.0,0.0,0.0,0.0,0.0,0.0,0.0,0.0,0.0,0.0,0.0,0.0,0.0,0.0,0.0,0.0,0.0,0.0,0.0,0.0,0.0,0.0,0.0,0.0,0.0,0.0,0.0,0.0,0.0,0.0,0.0,0.0,0.0,0.0,0.0,0.0,0.0,0.0,0.0,0.0,0.0,0.0,0.0,0.0,0.0,0.0,0.0,0.0,0.0,0.0,0.0,0.0,0.0,0.0,0.0,0.0,0.0,0.0,0.0,0.0,0.0,0.0,0.0,0.0,0.0,0.0,0.0,0.0,0.0,0.0,0.0,0.0,0.0,0.0,0.0,0.0,0.0,0.0,0.0,0.0,0.0,0.0,0.0,0.0,0.0,0.0,0.0,0.0,0.0,0.0,0.0,0.0,0.0,0.0,0.0,0.0,0.0,0.0,0.0,0.0,0.0,0.0,0.0,0.0,0.0,0.0,0.0,0.0,0.0,0.0,0.0,0.0,0.0,0.0,0.0,0.0,0.0,0.0,0.0,0.0,0.0,0.0,0.0,0.0,0.0,0.0,0.0,0.0,0.0,0.0,0.0,0.0,0.0,0.0,0.0,0.0,0.0,0.0,0.0,0.0,0.0,0.0,0.0,0.0,0.0,0.0,0.0,0.0,0.0,0.0,0.0,0.0,0.0,0.0,0.0,0.0,0.0,0.0,0.0,0.0,0.0,0.0,0.0,0.0,0.0,0.0,0.0,0.0,0.0,0.0,0.0,0.0,0.0,0.0,0.0,0.0,0.0,0.0,0.0,0.0,0.0,0.0,0.0,0.0,0.0,0.0,0.0,0.0,0.0,0.0,0.0,0.0,0.0,0.0,0.0,0.0,0.0,0.0,0.0,0.0,0.0,0.0,0.0,0.0,0.0,0.0,0.0,0.0,0.0,0.0,0.0,0.0,0.0,0.0,0.0,0.0,0.0,0.0,0.0,0.0,0.0,0.0,0.0,0.0,0.0,0.0,0.0,0.0,0.0,0.0,0.0,0.0,0.0,0.0,0.0,0.0,0.0,0.0,0.0,0.0,0.0,0.0,0.0,0.0,0.0,0.0,0.0,0.0,0.0,0.0,0.0,0.0,0.0,0.0,0.0,0.0,0.0,0.0,0.0,0.0,0.0,0.0,0.0,0.0,0.0,0.0,0.0,0.0,0.0,0.0,0.0,0.0,0.0,0.0,0.0,0.0,0.0,0.0,0.0,0.0,0.0,0.0,0.0,0.0,0.0,0.0,0.0,0.0,0.0,0.0,0.0,0.0,0.0,0.0,0.0,0.0,0.0,0.0,0.0,0.0,0.0,0.0,0.0,0.0,0.0,0.0,0.0,0.0,0.0,0.0,0.0,0.0,0.0,0.0,0.0,0.0,0.0,0.0,0.0,0.0,0.0,0.0,0.0,0.0,0.0,0.0,0.0,0.0,0.0,0.0,0.0,0.0,0.0,0.0,0.0,0.0,0.0,0.0,0.0,0.0,0.0,0.0,0.0,0.0,0.0,0.0,0.0,0.0,0.0,0.0,0.0,0.0,0.0,0.0,0.0,0.0,0.0,0.0,0.0,0.0,0.0,0.0,0.0,0.0,0.0,0.0,0.0,0.0,0.0,0.0,0.0,0.0,0.0,0.0,0.0,0.0,0.0,0.0,0.0,0.0,0.0,0.0,0.0,0.0,0.0,0.0,0.0,0.0,0.0,0.0,0.0,0.0,0.0,0.0,0.0,0.0,0.0,0.0,0.0,0.0,0.0,0.0,0.0,0.0,0.0,0.0,0.0,0.0,0.0,0.0,0.0,0.0,0.0,0.0,0.0,0.0,0.0,0.0,0.0,0.0,0.0,0.0,0.0,0.0,0.0,0.0,0.0,0.0,0.0,0.0,0.0,0.0,0.0,0.0,0.0,0.0,0.0,0.0,0.0,0.0,0.0,0.0,0.0,0.0,0.0,0.0,0.0,0.0,0.0,0.0,0.0,0.0,0.0,0.0,0.0,0.0,0.0,0.0,0.0,0.0,0.0,0.0,0.0,0.0,0.0,0.0,0.0,0.0,0.0,0.0,0.0,0.0,0.0,0.0,0.0,0.0,0.0,0.0,0.0,0.0,0.0,0.0,0.0,0.0,0.0,0.0,0.0,0.0,0.0,0.0,0.0,0.0,0.0,0.0,0.0,0.0,0.0,0.0,0.0,0.0,0.0,0.0,0.0,0.0,0.0,0.0,0.0,0.0,0.0,0.0,0.0,0.0,0.0,0.0,0.0,0.0,0.0,0.0,0.0,0.0,0.0,0.0,0.0,0.0,0.0,0.0,0.0,0.0,0.0,0.0,0.0,0.0,0.0,0.0,0.0,0.0,0.0,0.0,0.0,0.0,0.0,0.0,0.0,0.0,0.0,0.0,0.0,0.0,0.0,0.0,0.0,0.0,0.0,0.0,0.0,0.0,0.0,0.0,0.0,0.0,0.0,0.0,0.0,0.0,0.0,0.0,0.0,0.0,0.0,0.0,0.0,0.0,0.0,0.0,0.0,0.0,0.0,0.0,0.0,0.0,0.0,0.0,0.0,0.0,0.0,0.0,0.0,0.0,0.0,0.0,0.0,0.0,0.0,0.0,0.0,0.0,0.0,0.0,0.0,0.0,0.0,0.0,0.0,0.0,0.0,0.0,0.0,0.0,0.0,0.0,0.0,0.0,0.0,0.0,0.0,0.0,0.0,0.0,0.0,0.0,0.0,0.0,0.0,0.0,0.0,0.0,0.0,0.0,0.0,0.0,0.0,0.0,0.0,0.0,0.0,0.0,0.0,0.0,0.0,0.0,0.0,0.0,0.0,0.0,0.0,0.0,0.0,0.0,0.0,0.0,0.0,0.0,0.0,0.0,0.0,0.0,0.0,0.0,0.0,0.0,0.0,0.0,0.0,0.0,0.0,0.0,0.0,0.0,0.0,0.0,0.0,0.0,0.0,0.0,0.0,0.0,0.0,0.0,0.0,0.0,0.0,0.0,0.0,0.0,0.0,0.0,0.0,0.0,0.0,0.0,0.0,0.0,0.0,0.0,0.0,0.0,0.0,0.0,0.0,0.0,0.0,0.0,0.0,0.0,0.0,0.0,0.0,0.0,0.0,0.0,0.0,0.0,0.0,0.0,0.0,0.0,0.0,0.0,0.0,0.0,0.0,0.0,0.0,0.0,0.0,0.0,0.0,0.0,0.0,0.0,0.0,0.0,0.0,0.0,0.0,0.0,0.0,0.0,0.0,0.0,0.0,0.0,0.0,0.0,0.0,0.0,0.0,0.0,0.0,0.0,0.0,0.0,0.0,0.0,0.0,0.0,0.0,0.0,0.0,0.0,0.0,0.0,0.0,0.0,0.0,0.0,0.0,0.0,0.0,0.0,0.0,0.0,0.0,0.0,0.0,0.0,0.0,0.0,0.0,0.0,0.0,0.0,0.0,0.0,0.0,0.0,0.0,0.0,0.0,0.0,0.0,0.0,0.0,0.0,0.0,0.0,0.0,0.0,0.0,0.0,0.0,0.0,0.0,0.0,0.0,0.0,0.0,0.0,0.0,0.0,0.0,0.0,0.0,0.0,0.0,0.0,0.0,0.0,0.0,0.0,0.0,0.0,0.0,0.0,0.0,0.0,0.0,0.0,0.0,0.0,0.0,0.0,0.0,0.0,0.0,0.0,0.0,0.0,0.0,0.0,0.0,0.0,0.0,0.0,0.0,0.0,0.0,0.0,0.0,0.0,0.0,0.0,0.0,0.0,0.0,0.0,0.0,0.0,0.0,0.0,0.0,0.0,0.0,0.0,0.0,0.0,0.0,0.0,0.0,0.0,0.0,0.0,0.0,0.0,0.0,0.0,0.0,0.0,0.0,0.0,0.0,0.0,0.0,0.0,0.0,0.0,0.0,0.0,0.0,0.0,0.0,0.0,0.0,0.0,-3.3481,0.0,0.0,0.0,0.0,0.0,0.0,0.0,0.0,0.0,0.0,0.0,0.0,0.0,0.0,0.0,0.0,0.0,0.0,0.0,0.0,0.0,0.0,0.0,0.0,0.0,0.0,0.0,0.0,0.0,0.0,0.0,0.0,0.0,0.0,0.0,0.0,0.0,0.0,0.0,0.0,0.0,0.0,0.0,0.0,0.0,0.0,0.0,0.0,0.0,0.0,0.0,0.0,0.0,0.0,0.0,0.0,0.0,0.0,0.0,0.0,0.0,0.0,0.0,0.0,0.0,0.0,0.0,0.0,0.0,0.0,0.0,0.0,0.0,0.0,0.0,0.0,0.0,0.0,0.0,0.0,0.0,0.0,0.0,0.0,0.0,0.0,0.0,0.0,0.0,0.0,0.0,0.0,0.0,0.0,0.0,0.0,0.0,0.0,0.0,0.0,0.0,0.0,0.0,0.0,0.0,0.0,0.0,0.0,0.0,0.0,0.0,0.0,0.0,0.0,0.0,0.0,-3.4929,0.0,0.0,0.0,0.0,0.0,0.0,0.0,0.0,0.0,0.0,0.0,0.0,0.0,0.0,0.0,0.0,0.0,0.0,0.0,0.0,0.0,0.0,0.0,0.0,0.0,0.0,0.0,0.0,0.0,0.0,0.0,0.0,0.0,0.0,0.0,0.0,0.0,0.0,0.0,0.0,0.0,0.0,0.0,0.0,0.0,0.0,0.0,0.0,0.0,0.0,0.0,0.0,0.0,0.0,0.0,0.0,0.0,0.0,0.0,0.0,0.0,0.0,0.0,0.0,0.0,0.0,0.0,0.0,0.0,0.0,0.0,0.0,0.0,0.0,0.0,0.0,0.0,0.0,0.0,0.0,0.0,0.0,0.0,0.0,0.0,0.0,0.0,0.0,0.0,0.0,0.0,0.0,0.0,0.0,0.0,0.0,0.0,0.0,0.0,0.0,0.0,0.0,0.0,0.0,0.0,0.0,0.0,0.0,-3.9199,-3.9988,-4.0508,-4.0662,-4.0354,-3.9662,-3.8142,-3.6894,-3.5988,0.0,0.0,0.0,0.0,0.0,0.0,0.0,0.0,0.0,0.0,0.0,0.0,0.0,0.0,0.0,0.0,0.0,0.0,0.0,0.0,0.0,0.0,0.0,0.0,0.0,0.0,0.0,0.0,0.0,0.0,0.0,0.0,0.0,0.0,0.0,0.0,0.0,0.0,0.0,-3.0559,-3.0661,-3.1053,-3.1639,0.0,0.0,0.0,0.0,0.0,0.0,0.0,0.0,0.0,0.0,0.0,0.0,0.0,0.0,0.0,0.0,0.0,0.0,0.0,0.0,0.0,0.0,0.0,0.0,0.0,0.0,0.0,0.0,0.0,0.0,0.0,0.0,0.0,0.0,0.0,0.0,0.0,0.0,0.0,0.0,0.0,0.0,0.0,0.0,-3.0506,-3.1275,0.0,0.0,0.0,0.0,0.0,0.0,0.0,0.0,0.0,0.0,0.0,0.0,0.0,-3.8623,-3.8574,-4.0261,-4.0781,-4.013,-4.103,-4.1123,-4.0527,-4.1277,-4.1566,-4.1508,-4.1975,0.0,-3.7623,-3.6969,0.0,0.0,0.0,0.0,0.0,0.0,0.0,0.0,0.0,0.0,0.0,0.0,0.0,0.0,0.0,0.0,0.0,0.0,0.0,0.0,0.0,0.0,0.0,0.0,0.0,0.0,0.0,0.0,0.0,0.0,0.0,0.0,0.0,0.0,0.0,0.0,-2.8818,-3.015,-3.0915,-3.1869,-3.2519,-3.2851,-3.248,-3.2461,-3.2715,-3.2422,0.0,0.0,0.0,0.0,0.0,0.0,0.0,0.0,0.0,0.0,0.0,0.0,0.0,0.0,0.0,0.0,0.0,0.0,0.0,0.0,0.0,0.0,0.0,0.0,0.0,0.0,0.0,0.0,0.0,0.0,0.0,0.0,0.0,0.0,0.0,0.0,0.0,0.0,0.0,-3.066,-3.1429,-3.0352,-3.1506,-3.2141,0.0,0.0,0.0,0.0,0.0,0.0,0.0,0.0,0.0,-3.8123,-3.9335,-3.9758,-3.9296,-4.0969,-4.2085,-4.2643,-4.3508,-4.422,-4.4778,-4.5163,-4.5336,-4.5355,-4.574,-4.4797,-4.2816,-4.0527,-3.9508,-3.9373,0.0,0.0,0.0,0.0,-3.9084,-3.9411,0.0,0.0,0.0,0.0,0.0,0.0,0.0,0.0,0.0,0.0,0.0,0.0,0.0,0.0,0.0,-2.7305,0.0,0.0,0.0,0.0,0.0,0.0,0.0,0.0,0.0,0.0,0.0,0.0,-3.0707,-3.2096,-3.2226,-3.3476,-3.4297,-3.4726,-3.4726,-3.4141,-3.3184,-3.334,-3.2812,0.0,0.0,0.0,0.0,0.0,0.0,0.0,0.0,0.0,0.0,0.0,0.0,0.0,0.0,0.0,0.0,0.0,0.0,0.0,0.0,0.0,0.0,0.0,0.0,0.0,0.0,0.0,0.0,0.0,0.0,0.0,0.0,0.0,0.0,0.0,0.0,0.0,0.0,-3.1775,-3.2526,-3.0621,-3.2641,-3.3545,0.0,0.0,0.0,0.0,0.0,0.0,-3.8854,-3.9181,-3.97,-4.0546,-4.1585,-4.1854,-4.1239,-4.2701,-4.4047,-4.5278,-4.5932,-4.6894,-4.8105,-4.8336,-4.8317,-4.8105,-4.8336,-4.7971,-4.699,-4.4008,-4.2393,-4.1777,-4.1546,-4.1604,-4.1777,-4.1546,-4.1604,-4.1854,0.0,0.0,0.0,0.0,0.0,0.0,0.0,0.0,0.0,0.0,0.0,0.0,0.0,0.0,-2.7324,-2.8164,-2.7598,-2.7519,0.0,0.0,0.0,0.0,0.0,0.0,0.0,0.0,0.0,-3.0702,-3.1698,-3.3418,-3.5742,-3.582,-3.6758,-3.834,-3.834,-3.7402,-3.5703,-3.4082,-3.3828,-3.4375,0.0,0.0,0.0,0.0,0.0,0.0,0.0,0.0,0.0,0.0,0.0,0.0,0.0,0.0,0.0,0.0,0.0,0.0,0.0,0.0,0.0,0.0,0.0,0.0,0.0,0.0,0.0,0.0,0.0,0.0,0.0,0.0,0.0,0.0,0.0,0.0,0.0,0.0,0.0,-3.3949,-3.618,0.0,0.0,0.0,0.0,-3.768,-3.8546,-3.9796,-4.1527,-4.2393,-4.3201,-4.4008,-4.5701,-4.6567,-4.6528,-4.7355,-4.7836,-4.7913,-4.7952,-4.8029,-4.8125,-4.8952,-4.8875,-4.8144,-4.8971,-4.8836,-4.7894,-4.6144,-4.5374,-4.5259,-4.4432,-4.4605,-4.524,-4.4412,-4.4624,-4.522,0.0,0.0,0.0,0.0,0.0,0.0,0.0,0.0,0.0,0.0,0.0,0.0,0.0,-2.8848,-2.9863,-3.0723,-3.0996,-3.1035,-3.082,0.0,0.0,0.0,0.0,0.0,0.0,0.0,-3.2416,-3.3359,-3.4785,-3.623,-3.7695,-3.8242,-3.9141,-4.0273,-4.0273,-3.9922,-3.9238,-3.7396,-3.5844,-3.4581,-3.394,-3.2795,0.0,0.0,0.0,0.0,0.0,0.0,0.0,0.0,0.0,0.0,0.0,0.0,0.0,0.0,0.0,0.0,0.0,0.0,0.0,0.0,0.0,0.0,0.0,0.0,0.0,0.0,0.0,0.0,0.0,0.0,0.0,0.0,0.0,0.0,0.0,0.0,0.0,-3.5872,-3.8065,0.0,-3.7276,-3.8334,-3.9508,-4.0392,-4.1739,-4.3278,-4.4989,-4.5393,-4.6163,-4.7548,-4.8182,-4.8509,-4.8509,-4.9356,-4.949,-4.8933,-4.951,-4.976,-4.9779,-5.0087,-5.0067,-4.9817,-5.0644,-5.0837,-5.0548,-5.051,-4.9183,-4.7182,-4.6874,-4.6932,-4.7163,-4.6855,-4.6932,-4.7163,0.0,0.0,0.0,0.0,0.0,0.0,0.0,0.0,0.0,0.0,0.0,-2.7324,-2.8203,-2.959,-3.0937,-3.2109,-3.2148,-3.2027,-3.1789,0.0,0.0,0.0,0.0,0.0,0.0,-3.3128,-3.4501,-3.6016,-3.7461,-3.8769,-3.9883,-4.0469,-4.1211,-4.2031,-4.2031,-4.2031,-4.1951,-4.0696,-3.8677,-3.6296,-3.5929,-3.5057,-3.3771,0.0,0.0,0.0,0.0,0.0,0.0,0.0,0.0,0.0,0.0,0.0,0.0,0.0,0.0,0.0,0.0,0.0,0.0,0.0,0.0,0.0,0.0,0.0,0.0,0.0,0.0,0.0,0.0,0.0,0.0,0.0,0.0,0.0,0.0,0.0,-3.9392,-3.8527,-4.0931,-4.1989,-4.0296,-4.1662,-4.3008,-4.3855,-4.524,-4.6778,-4.8509,-4.8606,-4.924,-5.0644,-5.0683,-5.0683,-5.0683,-5.1241,-5.1241,-5.0683,-5.126,-5.1529,-5.1529,-5.1529,-5.1375,-5.1125,-5.1683,-5.1914,-5.1952,-5.2529,-5.1606,-4.9798,-4.951,-4.9221,-4.8971,-4.8971,-4.8971,-4.8971,0.0,0.0,0.0,0.0,0.0,0.0,0.0,0.0,0.0,0.0,-2.6484,-2.7383,-2.8281,-2.918,-3.043,-3.2168,-3.0723,-3.0079,-3.097,-2.9279,0.0,0.0,0.0,0.0,-3.228,-3.3916,-3.6054,-3.8711,-3.959,-4.0859,-4.248,-4.248,-4.2949,-4.3789,-4.3789,-4.3789,-4.3787,-4.371,-4.2211,-3.9804,-3.8785,-3.8262,-3.7832,0.0,0.0,0.0,0.0,0.0,0.0,0.0,0.0,0.0,0.0,0.0,0.0,0.0,0.0,0.0,0.0,0.0,0.0,0.0,0.0,0.0,0.0,0.0,0.0,0.0,0.0,0.0,0.0,0.0,0.0,0.0,0.0,0.0,-3.6873,-4.0489,-4.2835,-4.2047,-4.4913,-4.6278,-4.4624,-4.6009,-4.7355,-4.8163,-4.9029,-5.024,-5.1856,-5.1952,-5.2337,-5.3222,-5.3241,-5.3241,-5.3241,-5.328,-5.326,-5.3203,-5.3241,-5.3241,-5.3203,-5.3203,-5.2741,-5.1952,-5.1972,-5.1991,-5.1991,-5.1991,-5.2472,-5.3126,-5.2279,-5.1452,-5.0741,-5.0741,-5.0721,-5.0702,0.0,0.0,0.0,0.0,0.0,0.0,0.0,0.0,0.0,0.0,-2.7012,-2.8516,-3.0019,-3.1484,-3.3066,-3.4805,-3.3359,-3.2731,-3.3604,0.0,0.0,0.0,0.0,0.0,-3.6701,-3.7862,-3.9405,-4.1367,-4.2226,-4.3203,-4.4297,-4.4297,-4.4746,-4.5586,-4.5586,-4.5586,-4.5586,-4.546,-4.4935,-4.3951,-4.1161,-3.9231,-3.7896,0.0,0.0,0.0,0.0,0.0,0.0,0.0,0.0,0.0,0.0,0.0,0.0,0.0,0.0,0.0,0.0,0.0,0.0,0.0,0.0,0.0,0.0,0.0,0.0,0.0,0.0,0.0,0.0,0.0,0.0,0.0,0.0,-4.1123,-4.0489,-4.247,-4.4355,-4.5393,-4.6836,-4.7836,-4.7971,-4.899,-4.999,-5.0798,-5.1664,-5.2356,-5.2818,-5.2837,-5.3241,-5.4126,-5.4145,-5.4145,-5.4145,-5.4722,-5.4395,-5.3222,-5.3837,-5.3818,-5.3203,-5.3203,-5.3068,-5.2876,-5.351,-5.3799,-5.3799,-5.3799,-5.3549,-5.3183,-5.2953,-5.2318,-5.1568,-5.1568,-5.1202,-5.0702,0.0,0.0,0.0,0.0,0.0,0.0,0.0,0.0,0.0,0.0,-2.7226,-2.8691,-2.9707,-3.1328,-3.2754,-3.3789,-3.2949,-3.2576,-3.3063,0.0,0.0,0.0,0.0,-3.7116,-3.8961,-4.0279,-4.1777,-4.3496,-4.4004,-4.4687,-4.5547,-4.5547,-4.5801,-4.6308,-4.6308,-4.6308,-4.6289,-4.6211,-4.6108,-4.5803,-4.3709,-4.2187,-4.1027,-3.9477,-3.8843,-3.8647,-3.7547,-3.7795,-3.8583,-3.822,0.0,0.0,0.0,0.0,0.0,0.0,0.0,0.0,0.0,0.0,0.0,0.0,0.0,0.0,0.0,0.0,0.0,0.0,0.0,0.0,0.0,0.0,0.0,0.0,-4.2393,-4.447,-4.5393,-4.6374,-4.7355,-4.8375,-4.9529,-5.0433,-5.0933,-5.1452,-5.2087,-5.2933,-5.3453,-5.3895,-5.4222,-5.4241,-5.4472,-5.4991,-5.4991,-5.4991,-5.4991,-5.5472,-5.5203,-5.4241,-5.4761,-5.4741,-5.4241,-5.3895,-5.3741,0.0,-5.351,-5.3626,-5.3933,-5.3568,-5.3337,0.0,0.0,0.0,0.0,0.0,-5.1106,-5.0702,0.0,0.0,0.0,0.0,0.0,0.0,0.0,0.0,0.0,0.0,0.0,-2.8301,-2.8301,-2.9861,-3.0931,-3.1029,-3.0931,-3.0967,0.0,0.0,0.0,-3.4845,-3.7323,-3.9098,-3.9961,-4.168,-4.3301,-4.4844,-4.4941,-4.5449,-4.6308,-4.6308,-4.6308,-4.6308,-4.6406,-4.6445,-4.6445,-4.6543,-4.6521,-4.6364,-4.6162,-4.5834,-4.522,-4.2951,-4.2547,-4.2972,-4.1393,-4.0997,-4.1207,-4.1156,0.0,0.0,0.0,0.0,0.0,0.0,0.0,0.0,0.0,0.0,0.0,0.0,0.0,0.0,0.0,0.0,0.0,0.0,0.0,0.0,0.0,0.0,0.0,0.0,-4.5143,-4.7394,-5.0529,-5.1068,-5.1087,-5.0991,-5.2299,-5.3241,-5.3337,-5.3356,-5.3703,-5.4568,-5.4722,-5.5088,-5.5799,0.0,0.0,0.0,0.0,-5.5742,-5.5838,-5.5742,-5.5742,-5.5838,-5.5742,-5.5703,-5.5684,-5.4953,-5.4587,-5.4414,-5.2856,-5.2587,-5.3126,-5.226,-5.2375,-5.2991,-5.2202,-5.1471,-5.0818,-5.0721,-5.0702,-5.0702,0.0,0.0,0.0,0.0,0.0,0.0,0.0,0.0,0.0,-2.5703,-2.7226,-2.8301,-2.8301,-2.9866,-3.1139,-3.1729,-3.1139,-3.1312,0.0,0.0,-3.5592,-3.8362,-3.9785,-4.0904,-4.1777,-4.2871,-4.3613,-4.3945,-4.4668,-4.5449,-4.6308,-4.6308,-4.6308,-4.6328,-4.7031,-4.7344,-4.7383,-4.8105,-4.8319,-4.8131,-4.7411,-4.6142,-4.4645,-4.4047,-4.3528,-4.2989,-4.2014,-4.2579,-4.3597,-4.2319,-4.2668,-4.3386,-4.1863,0.0,0.0,0.0,0.0,0.0,0.0,0.0,0.0,0.0,0.0,0.0,0.0,0.0,0.0,0.0,0.0,0.0,0.0,0.0,0.0,-4.6663,-4.9125,-5.1164,-5.2529,-5.3318,-5.3491,-5.2799,-5.301,-5.3491,-5.4184,-5.4241,-5.4587,-5.5415,-5.6107,-5.6569,-5.6742,-5.6742,-5.6742,-5.6742,-5.6069,-5.603,-5.6742,-5.6049,-5.6049,-5.6742,0.0,0.0,-5.5684,-5.553,-5.5107,-5.4472,-5.4145,-5.3683,-5.3126,-5.226,-5.201,-5.2145,-5.1972,-5.1798,-5.1587,-5.0933,-5.0702,-5.0702,0.0,0.0,0.0,0.0,0.0,0.0,0.0,0.0,0.0,0.0,-2.6836,-2.765,-2.7653,-2.8786,-2.9531,-2.9454,-2.9802,0.0,0.0,-3.4737,-3.6807,-3.9292,-4.0742,-4.1718,-4.2186,-4.3589,-4.4316,-4.4355,-4.5215,-4.5879,-4.6308,-4.6308,-4.6523,-4.6973,-4.7402,-4.7832,-4.8281,-4.8711,-4.8867,-4.8769,-4.825,-4.7462,-4.6544,-4.5967,-4.5505,-4.5084,-4.4701,-4.4814,-4.5103,-4.4744,-4.49,-4.5051,-4.4264,-4.3137,-4.1783,0.0,0.0,0.0,0.0,0.0,0.0,0.0,0.0,0.0,0.0,0.0,0.0,0.0,0.0,-4.0665,0.0,0.0,-4.7253,-4.9702,-5.1529,-5.2934,-5.3741,-5.4953,-5.528,-5.3991,-5.4203,-5.478,-5.5665,-5.5357,-5.5626,-5.6915,-5.6588,-5.653,-5.6973,-5.6992,-5.6992,-5.6992,-5.6992,-5.7203,-5.7646,-5.7223,-5.6992,-5.6973,-5.6549,-5.6107,-5.5684,-5.528,-5.5107,-5.5049,-5.4203,-5.3857,-5.378,-5.2914,-5.2299,-5.1914,-5.1914,-5.1914,-5.1856,-5.1452,-5.1048,-5.0702,0.0,0.0,0.0,0.0,0.0,0.0,0.0,0.0,0.0,0.0,-2.6465,-2.6937,-2.6764,-2.7479,-2.7663,0.0,0.0,0.0,0.0,-3.5504,-3.7713,-3.97,-4.1216,-4.2039,-4.2073,-4.3762,-4.4668,-4.4726,-4.5605,-4.6133,-4.6308,-4.6465,-4.6933,-4.7617,-4.8125,-4.8633,-4.918,-4.9492,-4.9531,-4.9355,-4.9101,-4.9093,-4.9107,-4.7959,-4.7388,-4.7179,-4.7005,-4.624,-4.5459,-4.6547,-4.6414,-4.5839,-4.6225,-4.5515,-4.4205,-4.2297,-4.2104,0.0,0.0,0.0,0.0,0.0,0.0,0.0,0.0,0.0,-3.9354,-4.1739,-4.3015,-4.453,-4.7289,-4.8733,-5.0218,-5.2453,-5.3531,-5.43,-5.4895,-5.6145,-5.6492,-5.5145,-5.5703,-5.6472,-5.7165,-5.6607,-5.6722,-5.7953,-5.6896,-5.6511,-5.7223,-5.7242,-5.7319,-5.7473,-5.8011,-5.8377,-5.8531,-5.8377,-5.803,-5.7473,-5.7319,-5.6876,-5.6184,-5.5357,-5.5241,-5.5607,-5.3933,-5.351,-5.3953,-5.3414,-5.2799,-5.2183,-5.2337,-5.2202,-5.1895,-5.1722,-5.126,-5.0702,0.0,0.0,0.0,0.0,0.0,0.0,0.0,0.0,0.0,0.0,0.0,0.0,0.0,0.0,0.0,0.0,0.0,0.0,-3.391,-3.5893,-3.8335,-4.1393,-4.1828,-4.1998,-4.2009,-4.3158,-4.375,-4.3769,-4.4687,-4.5547,-4.6328,-4.709,-4.7519,-4.7695,-4.9961,-5.0625,-5.0156,-5.1641,-5.1836,-5.1055,-5.0332,-5.0468,-5.0925,-4.9325,-4.8079,-4.7097,-4.6309,-4.4948,-4.3742,-4.5398,-4.5797,-4.5874,-4.7375,-4.826,-4.8259,-4.5778,0.0,-4.3528,-4.1046,-3.9988,-4.0085,-4.2162,-4.1431,-4.1604,0.0,0.0,-4.6259,-4.8048,-4.9124,-4.9836,-5.024,-5.1607,-5.3261,-5.5011,-5.603,-5.6648,-5.6703,-5.6876,-5.6915,-5.6722,-5.7473,-5.805,-5.8146,-5.8069,-5.7761,-5.7184,-5.7684,-5.805,-5.8146,-5.8146,-5.8473,-5.9204,-5.8627,-5.8646,-5.9358,-5.8665,-5.8607,-5.9204,-5.8492,-5.8107,-5.7992,-5.7107,-5.6338,-5.5607,-5.3933,-5.2818,-5.2241,-5.2933,-5.3145,-5.3126,-5.3914,-5.326,-5.1818,-5.1106,-5.0779,-5.0702,0.0,0.0,0.0,0.0,0.0,0.0,0.0,0.0,0.0,0.0,0.0,0.0,0.0,0.0,0.0,0.0,0.0,0.0,-3.2729,-3.4988,-3.7525,-4.0396,-4.0508,-4.0739,-4.1293,-4.2656,-4.3442,-4.3594,-4.4961,-4.5879,-4.6328,-4.7187,-4.7871,-4.8457,-5.0488,-5.1484,-5.1699,-5.2402,-5.248,-5.207,-5.123,-5.0766,-5.0471,-4.9332,-4.7903,-4.6466,-4.6216,-4.5247,0.0,0.0,-4.5734,-4.5893,-4.7567,-4.7682,-4.6971,-4.5913,-4.5336,0.0,-4.3758,-4.2854,0.0,0.0,-4.4008,-4.5009,-4.7971,-4.849,-4.8971,-5.1164,-5.2356,-5.3338,-5.43,-5.5532,-5.6607,0.0,-5.7646,-5.7857,-5.7761,-5.7761,-5.7569,-5.7049,-5.7761,-5.83,-5.83,-5.7838,-5.78,-5.8415,-5.8357,-5.8511,-5.8973,-5.9011,-5.9146,-5.9492,-5.9665,-5.9915,-6.0242,-5.9915,-5.9665,-5.9492,-5.9165,-5.8492,-5.753,-5.7165,-5.6511,-5.5665,-5.4953,-5.4453,-5.4145,-5.4491,-5.4376,-5.3991,-5.4357,-5.3741,-5.2626,-5.2279,-5.1529,-5.0702,0.0,0.0,0.0,0.0,0.0,0.0,0.0,0.0,0.0,0.0,0.0,0.0,0.0,0.0,0.0,0.0,0.0,0.0,0.0,-3.396,-3.6447,-3.8788,-3.9251,0.0,-4.0392,-4.2274,-4.3337,-4.3485,-4.521,-4.6108,-4.6269,-4.7383,-4.8262,-4.8984,-5.0898,-5.2109,-5.2695,-5.2667,-5.264,-5.2542,-5.1405,-5.0548,-4.9804,-4.858,-4.7072,-4.5682,-4.586,-4.4917,0.0,0.0,-4.4707,-4.4816,-4.6259,-4.6201,-4.5586,-4.5586,-4.5432,-4.524,-4.524,0.0,0.0,-4.522,-4.6663,-4.8221,-4.9279,-5.0183,-5.1452,-5.376,-5.4626,-5.5416,-5.6881,-5.7533,-5.7992,-5.8396,-5.8242,-5.8146,-5.828,-5.7896,-5.7357,-5.6722,-5.678,-5.7069,-5.755,-5.7453,-5.7857,-5.9088,-5.8627,-5.8646,-5.9454,-5.9492,-5.9608,-5.9858,-6.0473,-6.08,-6.08,-6.08,-6.0473,-5.9858,-5.9858,-5.9108,-5.7665,-5.7203,-5.6395,-5.5376,-5.5588,-5.5568,-5.5395,-5.5607,-5.5222,-5.4511,-5.4741,-5.4164,-5.3241,-5.3472,-5.2491,-5.1029,0.0,0.0,0.0,0.0,0.0,0.0,0.0,0.0,0.0,0.0,0.0,0.0,0.0,0.0,0.0,0.0,0.0,0.0,0.0,-3.3151,-3.5369,-3.7016,-3.8688,-3.9557,-3.9435,-4.2047,-4.3333,-4.3214,-4.5032,-4.5967,-4.6133,-4.7851,-4.875,-4.9004,-5.1543,-5.2676,-5.2694,-5.2563,-5.2512,-5.2337,-5.0573,-4.9826,-4.9537,-4.7052,-4.5537,-4.4752,-4.4892,0.0,0.0,0.0,-4.204,-4.2066,-4.297,-4.4335,0.0,-4.5586,-4.4989,0.0,0.0,0.0,-4.5951,-4.7586,-4.9298,-5.101,-5.2664,-5.3722,-5.4818,-5.653,-5.6242,-5.5934,-5.6838,-5.6338,-5.6338,-5.803,-5.7588,-5.7338,-5.8184,-5.6838,-5.5761,-5.5742,-5.4337,-5.3991,0.0,-5.728,-5.828,-5.8338,-5.8319,-5.8646,-5.9454,-5.9492,-5.9896,-6.0723,-6.0781,-6.08,-6.08,-6.08,-6.0781,-6.0762,-6.0762,-6.0281,-5.9377,-5.7742,-5.6088,-5.4587,-5.5357,-5.5261,-5.4607,-5.5376,-5.5222,-5.4587,-5.5357,-5.4645,-5.3299,-5.4145,-5.3356,-5.1875,0.0,0.0,0.0,0.0,0.0,0.0,0.0,0.0,0.0,0.0,0.0,0.0,0.0,0.0,0.0,0.0,0.0,0.0,0.0,-3.0995,-3.2889,-3.453,-3.625,-3.7643,-3.8717,-4.0609,-4.2178,-4.3335,-4.4442,-4.5305,-4.5991,-4.7155,-4.7741,-4.7897,-5.0485,-5.1635,-5.1642,-5.1588,-5.221,-5.2974,-5.0091,-4.9227,-4.9343,-4.6294,-4.4163,-4.2647,0.0,0.0,0.0,0.0,0.0,0.0,-4.1104,0.0,-4.1508,-4.2047,-4.2835,-4.3739,0.0,0.0,-4.7663,-4.9394,-5.1106,-5.2664,-5.3799,-5.4703,-5.5607,-5.6761,-5.5876,-5.5164,-5.5972,-5.5453,-5.5261,-5.6395,-5.6799,-5.73,-5.8184,-5.73,-5.6145,-5.503,-5.4414,0.0,0.0,0.0,0.0,-5.8204,-5.88,-5.9473,-6.0319,-6.0358,-6.0492,-6.0781,-6.08,-6.08,-6.08,-6.08,-6.08,-6.0781,-5.9665,-5.8992,-5.8646,-5.6915,-5.5818,-5.5299,-5.5568,-5.5549,-5.5318,-5.5588,-5.553,-5.5318,-5.5588,-5.5357,-5.4895,-5.5184,-5.4587,-5.3549,0.0,0.0,0.0,0.0,0.0,0.0,0.0,0.0,0.0,0.0,0.0,0.0,0.0,0.0,0.0,0.0,0.0,0.0,0.0,0.0,-3.0586,-3.1973,-3.3672,-3.5215,-3.6543,-3.8105,-3.9612,-4.1046,-4.2107,-4.3126,-4.4068,-4.5557,-4.6426,-4.6872,-4.9142,-5.0345,-5.0597,-4.9943,-5.01,-5.0548,-4.772,-4.6488,-4.6084,-4.367,-4.1805,0.0,0.0,0.0,0.0,0.0,0.0,0.0,0.0,-3.8719,-3.945,-4.0258,-4.2162,-4.4432,-4.6413,-4.8182,-4.9875,-5.1625,-5.3126,-5.4299,-5.4857,-5.5395,-5.5915,-5.6494,-5.5243,-5.4184,-5.4703,-5.3645,-5.3029,-5.4164,-5.4299,-5.4914,-5.6684,-5.5915,-5.5011,-5.4549,-5.4222,-5.3933,0.0,0.0,0.0,-5.7703,-5.83,-5.9108,-6.0262,-6.0339,-6.0473,-6.0781,-6.08,-6.08,-6.08,-6.08,-6.0646,-6.0319,-5.8646,-5.7838,-5.778,-5.6338,-5.5703,-5.5703,-5.5703,-5.5703,-5.5703,-5.5703,-5.5703,-5.5703,-5.5703,-5.5703,-5.5703,-5.5703,-5.5376,-5.4799,0.0,0.0,0.0,0.0,0.0,0.0,0.0,0.0,0.0,0.0,0.0,0.0,0.0,0.0,0.0,0.0,0.0,0.0,0.0,0.0,0.0,-2.9434,-3.1133,-3.2422,-3.3164,-3.4745,-3.5965,-3.6743,-3.8411,-3.9688,-4.0619,-4.3131,-4.478,-4.5719,-4.7369,-4.8563,-4.9278,-4.7524,-4.6367,-4.5552,-4.3715,-4.2027,-4.0527,-3.9585,0.0,0.0,0.0,0.0,0.0,0.0,0.0,0.0,0.0,-3.668,-3.9527,-4.0431,-4.3047,-4.622,-4.8817,-5.076,-5.2452,-5.4164,-5.5261,-5.5898,-5.5861,-5.5803,-5.5765,-5.5728,-5.4223,-5.2933,0.0,0.0,-4.9817,-5.151,-5.051,-5.0702,-5.4087,-5.3145,-5.2722,0.0,0.0,0.0,0.0,0.0,0.0,-5.6934,0.0,-5.78,-5.9473,-5.9569,-5.9954,-6.0762,-6.08,-6.0781,-6.0723,-6.0685,-6.0262,-5.9415,-5.778,-5.6992,-5.6953,-5.6088,-5.5703,-5.5703,-5.5703,-5.5703,-5.5703,-5.5703,-5.5703,-5.5703,-5.5703,-5.5703,-5.5703,-5.5703,-5.5703,-5.5588,0.0,0.0,0.0,0.0,0.0,0.0,0.0,0.0,0.0,0.0,0.0,0.0,0.0,0.0,0.0,0.0,0.0,0.0,0.0,0.0,0.0,0.0,0.0,0.0,0.0,0.0,0.0,0.0,0.0,-3.8517,-3.88,-4.0662,-4.1335,-4.1062,-4.2082,-4.3006,-4.3775,-4.2659,-4.314,-4.4485,0.0,-4.1662,-4.2143,0.0,0.0,0.0,0.0,0.0,0.0,0.0,0.0,0.0,0.0,-3.8488,-4.0604,-4.2701,-4.4874,-4.7278,-5.0548,-5.2665,-5.4281,-5.5474,-5.5955,-5.5962,-5.5302,-5.4585,-5.3843,-5.3205,-5.1106,-4.9221,0.0,0.0,0.0,-4.976,-5.0741,0.0,-5.4991,-5.5011,0.0,-5.5338,0.0,-5.5395,-5.628,-5.578,0.0,0.0,-5.7973,-5.8704,-6.0377,-6.0473,-6.0569,-6.0781,-6.08,-6.0492,-5.9838,-5.9242,-5.8838,-5.8588,-5.7511,-5.6992,-5.6953,-5.6088,-5.5703,-5.5703,-5.5703,-5.5703,-5.5703,-5.5703,-5.5703,-5.5703,-5.5703,-5.5703,-5.5703,-5.5703,-5.5703,-5.5665,0.0,0.0,0.0,0.0,0.0,0.0,0.0,0.0,0.0,0.0,0.0,0.0,0.0,0.0,0.0,0.0,0.0,0.0,0.0,0.0,0.0,0.0,0.0,0.0,0.0,0.0,0.0,0.0,0.0,0.0,0.0,-3.7459,-3.8363,-3.8319,-3.9127,-3.9758,-4.0115,0.0,0.0,0.0,0.0,0.0,0.0,0.0,0.0,0.0,0.0,0.0,0.0,0.0,0.0,-3.9335,-3.9585,-4.1085,-4.3162,-4.5336,0.0,-4.9702,-5.2492,-5.4204,-5.5382,-5.6033,-5.5923,-5.5306,-5.408,-5.3305,-5.2282,-5.0297,-4.8663,0.0,0.0,0.0,0.0,0.0,0.0,0.0,-5.3568,-5.403,-5.4453,0.0,-5.603,0.0,-5.6934,-5.6896,-5.7396,0.0,-5.8146,-5.8454,-6.0146,-6.0223,-6.0396,-6.0781,-6.08,-6.0377,-5.9511,-5.8704,-5.8107,-5.7723,-5.6838,-5.6415,-5.6395,-5.5915,-5.5703,-5.5703,0.0,-5.5703,-5.5703,-5.5703,-5.5703,-5.5703,-5.5703,-5.5703,-5.5703,-5.5703,-5.5703,-5.5703,0.0,0.0,0.0,0.0,0.0,0.0,0.0,0.0,0.0,0.0,0.0,0.0,0.0,0.0,0.0,0.0,0.0,0.0,0.0,0.0,0.0,0.0,0.0,0.0,0.0,0.0,0.0,0.0,0.0,0.0,0.0,0.0,0.0,0.0,0.0,0.0,0.0,0.0,0.0,0.0,0.0,0.0,0.0,0.0,0.0,0.0,0.0,0.0,0.0,0.0,-3.9142,-4.0392,-4.1854,-4.4047,-4.6451,-4.8259,-5.0337,-5.2491,-5.4358,-5.5381,-5.598,-5.6181,-5.5482,-5.4323,-5.2645,-5.1741,-5.0394,-4.7386,0.0,-4.5759,-4.4259,-4.3489,-4.3682,-4.547,0.0,-4.724,-5.1491,-5.2087,-5.2972,-5.5415,-5.6472,-5.7049,-5.7146,-5.7857,-5.8588,-5.93,-5.8088,-5.8011,-5.9588,-5.9665,-6.0012,-6.0781,-6.0569,-6.0108,-5.9358,-5.8415,-5.7588,-5.6819,-5.6049,-5.5703,-5.5703,-5.5703,-5.5703,-5.5703,-5.5703,0.0,-5.5703,-5.5703,-5.5703,-5.5703,-5.5703,-5.5703,-5.5703,-5.5703,-5.5703,-5.5703,0.0,0.0,0.0,0.0,0.0,0.0,0.0,0.0,0.0,0.0,-2.5703,-2.5703,0.0,0.0,0.0,0.0,0.0,0.0,0.0,0.0,0.0,0.0,0.0,0.0,0.0,0.0,0.0,0.0,0.0,0.0,0.0,0.0,0.0,0.0,0.0,0.0,0.0,0.0,0.0,0.0,0.0,0.0,0.0,0.0,0.0,0.0,0.0,0.0,0.0,0.0,-4.2027,-4.4547,-4.4836,-4.6682,-4.9202,-5.1606,-5.2626,-5.3376,-5.5184,-5.5932,-5.6191,-5.6321,-5.5161,-5.3548,-5.186,-4.9109,0.0,0.0,0.0,-4.2585,-4.2297,-4.272,0.0,-4.6278,0.0,0.0,0.0,0.0,-5.3645,0.0,0.0,0.0,0.0,0.0,0.0,0.0,0.0,-5.9511,-6.0512,-6.0569,-6.0646,-6.08,-5.9454,-5.8665,-5.8511,-5.6934,-5.6069,-5.5915,-5.5761,-5.5703,-5.5703,-5.5703,-5.5703,-5.5703,-5.5703,0.0,-5.5703,-5.5703,-5.5703,-5.5703,-5.5703,-5.5703,-5.5703,-5.5703,-5.5703,-5.5703,0.0,0.0,0.0,0.0,0.0,0.0,0.0,0.0,-2.5703,-2.5703,-2.5703,-2.5703,-2.5703,-2.5703,0.0,0.0,0.0,0.0,0.0,0.0,0.0,0.0,0.0,0.0,0.0,0.0,0.0,0.0,0.0,0.0,0.0,0.0,0.0,0.0,0.0,0.0,0.0,0.0,0.0,0.0,0.0,0.0,0.0,0.0,0.0,0.0,0.0,0.0,0.0,0.0,-4.1739,-4.5066,-4.599,-4.8029,-5.0394,-5.2049,-5.3164,-5.4164,-5.553,-5.5981,-5.5976,-5.5691,-5.4257,-5.2259,-4.9705,0.0,0.0,0.0,-4.1736,-4.1008,-4.0585,0.0,0.0,0.0,0.0,0.0,0.0,0.0,0.0,0.0,0.0,0.0,0.0,0.0,0.0,0.0,0.0,-5.9685,-6.0108,-6.055,-6.08,-6.08,-6.0012,-5.9184,-5.8319,-5.7473,-5.6607,-5.5703,-5.5703,-5.5703,-5.5703,-5.5703,-5.5703,-5.5703,-5.5703,0.0,-5.5703,-5.5703,-5.5703,-5.5703,-5.5703,-5.5703,-5.5703,-5.5703,-5.5703,-5.5703,0.0,0.0,0.0,0.0,0.0,0.0,0.0,-2.5703,-2.5703,-2.5703,-2.5703,-2.5703,-2.5703,-2.5703,-2.5703,0.0,0.0,0.0,0.0,0.0,0.0,0.0,0.0,0.0,0.0,0.0,0.0,0.0,0.0,0.0,0.0,0.0,0.0,0.0,0.0,0.0,0.0,0.0,0.0,0.0,0.0,0.0,0.0,0.0,0.0,0.0,0.0,0.0,0.0,0.0,-4.0046,-4.322,-4.4778,-4.7644,-5.0548,-5.1183,-5.2722,-5.4414,-5.5338,-5.5742,-5.5769,-5.5248,-5.3472,-5.1068,-4.8041,-4.5503,0.0,0.0,-4.0354,-4.0046,-3.9411,0.0,0.0,0.0,0.0,0.0,0.0,0.0,0.0,0.0,0.0,0.0,0.0,0.0,0.0,0.0,0.0,0.0,-5.9762,-6.0435,-6.08,-6.08,-6.0454,-5.9627,-5.8319,-5.7934,-5.7069,-5.5703,-5.5703,-5.5703,-5.5703,-5.5703,-5.5703,-5.5703,-5.5703,0.0,0.0,-5.5703,-5.5703,-5.5703,-5.5703,-5.5588,-5.5434,-5.5434,-5.5318,-5.5184,0.0,0.0,0.0,0.0,0.0,0.0,0.0,-2.5703,-2.5703,-2.5703,-2.5703,-2.5703,-2.5703,-2.5703,-2.5703,0.0,0.0,0.0,0.0,0.0,0.0,0.0,0.0,0.0,0.0,0.0,0.0,-2.6875,-2.7031,0.0,0.0,0.0,0.0,0.0,0.0,0.0,0.0,0.0,0.0,0.0,0.0,0.0,0.0,0.0,0.0,0.0,0.0,0.0,0.0,0.0,0.0,-3.8757,-3.97,-4.4374,-4.9529,-4.9606,0.0,0.0,-5.4395,-5.5241,-5.5898,-5.5825,-5.3398,-5.0509,-4.8619,0.0,0.0,-4.07,-3.9912,-3.9392,-3.9296,-4.0008,0.0,0.0,0.0,0.0,0.0,0.0,0.0,0.0,0.0,0.0,0.0,0.0,0.0,0.0,0.0,0.0,-6.0589,-6.0762,-6.08,-6.08,-5.9319,-5.8454,-5.83,-5.6722,-5.5857,-5.5703,-5.5703,-5.5703,-5.5703,-5.5703,-5.5703,-5.5703,-5.5703,0.0,0.0,-5.5703,-5.5703,-5.5703,-5.5703,-5.5241,-5.4607,-5.4607,-5.4107,-5.3549,0.0,0.0,0.0,0.0,0.0,0.0,0.0,-2.5703,-2.5703,-2.5703,-2.5703,-2.5703,-2.5703,-2.5703,-2.5703,0.0,0.0,0.0,0.0,0.0,0.0,0.0,0.0,0.0,0.0,0.0,0.0,-2.6992,-2.6992,0.0,0.0,0.0,0.0,0.0,0.0,0.0,0.0,0.0,0.0,0.0,0.0,0.0,0.0,0.0,0.0,0.0,0.0,0.0,0.0,0.0,0.0,0.0,-3.6603,-3.9815,0.0,0.0,-4.8548,-5.0664,-5.3068,-5.4376,-5.4934,-5.4414,-5.2511,-5.0067,-4.7295,0.0,0.0,-4.0681,-3.9854,-3.9296,-3.9296,-3.995,-4.045,0.0,0.0,0.0,0.0,0.0,0.0,0.0,0.0,0.0,0.0,0.0,0.0,0.0,0.0,0.0,-5.9223,-6.0242,-6.055,-6.0031,-5.9377,-5.8531,-5.753,-5.6819,-5.6222,-5.5703,-5.5703,-5.5703,-5.5703,-5.5703,-5.5703,-5.5703,-5.5703,0.0,0.0,-5.5703,-5.5703,-5.5703,-5.5703,-5.5203,-5.4491,-5.4491,-5.3953,-5.3318,0.0,0.0,0.0,0.0,0.0,-2.5703,-2.5703,-2.5703,-2.5703,-2.5703,-2.5703,-2.5703,-2.5703,-2.5703,-2.5703,-2.5703,0.0,0.0,0.0,0.0,0.0,0.0,0.0,0.0,0.0,0.0,-2.6133,-2.6992,-2.7266,-2.7695,0.0,0.0,-2.8086,-2.6992,0.0,0.0,0.0,0.0,0.0,0.0,0.0,0.0,0.0,0.0,0.0,0.0,0.0,0.0,0.0,0.0,0.0,0.0,0.0,0.0,0.0,0.0,-4.5451,-4.799,-5.0894,-5.2683,-5.3645,-5.3299,-5.1548,-4.924,0.0,0.0,0.0,-4.0681,-4.0046,-3.9565,-3.9335,-3.995,-4.0239,0.0,0.0,0.0,0.0,0.0,0.0,0.0,0.0,0.0,0.0,0.0,0.0,0.0,0.0,0.0,0.0,-5.9415,-5.9781,-5.9165,-5.9146,-5.8454,-5.6992,-5.6742,-5.6299,-5.5703,-5.5703,-5.5703,-5.5703,-5.5703,-5.5703,-5.5703,-5.5703,0.0,0.0,-5.5703,-5.5703,-5.5684,-5.5434,-5.4991,-5.4472,-5.4203,-5.3568,-5.2991,0.0,0.0,0.0,0.0,0.0,0.0,0.0,-2.5703,-2.5703,-2.5703,-2.5703,-2.5703,-2.5703,-2.5703,-2.5703,-2.5703,0.0,0.0,0.0,0.0,0.0,0.0,0.0,0.0,0.0,0.0,-2.6133,-2.6992,-2.7851,-2.8281,-2.832,-2.918,-2.8652,-2.6992,0.0,0.0,0.0,0.0,0.0,0.0,0.0,0.0,0.0,0.0,0.0,0.0,0.0,0.0,0.0,0.0,0.0,0.0,0.0,0.0,0.0,0.0,-4.2335,-4.599,-4.7682,-5.001,-5.2145,-5.2991,-5.0644,-4.7913,0.0,0.0,-4.1546,-4.0681,-4.0489,-4.0239,-3.945,-3.995,-4.0239,-3.9431,-3.9969,0.0,0.0,0.0,0.0,0.0,0.0,0.0,0.0,0.0,0.0,0.0,0.0,0.0,0.0,-5.8319,-5.8319,-5.8319,-5.8319,-5.7896,-5.6992,-5.6126,-5.5703,-5.5703,-5.5703,-5.5703,-5.5703,-5.5703,-5.5703,0.0,0.0,0.0,0.0,-5.5703,-5.5703,-5.5607,-5.4818,-5.4511,-5.4395,-5.353,-5.2664,-5.2164,0.0,0.0,0.0,0.0,0.0,0.0,0.0,-2.5703,-2.5703,-2.5703,-2.5703,-2.5703,-2.5703,-2.5703,-2.5703,-2.5703,0.0,0.0,0.0,0.0,0.0,0.0,0.0,0.0,0.0,0.0,-2.6133,-2.6992,-2.7285,-2.7715,-2.832,-2.9199,-2.8984,-2.791,-2.8459,0.0,0.0,0.0,0.0,0.0,0.0,0.0,0.0,0.0,0.0,0.0,0.0,0.0,0.0,0.0,0.0,0.0,0.0,0.0,0.0,0.0,0.0,0.0,-4.4066,-4.5663,-4.6778,-4.7048,-4.6297,-4.5143,-4.3739,0.0,-4.1546,-4.0681,-4.0489,-4.0412,-4.0162,-4.0315,-4.0604,-4.095,-4.1219,0.0,0.0,0.0,0.0,0.0,0.0,0.0,0.0,0.0,0.0,0.0,0.0,0.0,0.0,-5.7088,-5.7396,-5.7396,-5.7396,-5.6992,-5.6107,-5.5838,-5.5703,-5.5703,-5.5703,-5.5703,-5.5703,-5.5703,-5.5703,0.0,0.0,0.0,0.0,-5.5703,-5.5376,-5.4914,-5.5203,-5.4626,-5.3587,-5.3299,-5.2664,-5.1991,0.0,0.0,0.0,0.0,0.0,0.0,0.0,-2.5703,-2.5703,-2.5703,-2.5703,-2.5703,-2.5703,-2.5703,-2.5703,-2.5703,0.0,0.0,0.0,0.0,0.0,0.0,0.0,0.0,0.0,-2.5703,-2.5977,-2.6504,-2.6836,-2.7285,-2.7832,-2.8691,-2.8828,-2.832,-2.8828,0.0,0.0,0.0,0.0,0.0,0.0,0.0,-3.1719,0.0,0.0,0.0,0.0,0.0,0.0,0.0,0.0,0.0,0.0,0.0,0.0,0.0,-3.5199,0.0,0.0,-4.2489,-4.3431,-4.3778,-4.3355,0.0,0.0,0.0,-4.0315,-4.0085,-4.0046,-4.0142,-4.0431,-4.0489,-4.0681,-4.1219,-4.1316,0.0,0.0,0.0,0.0,0.0,0.0,0.0,0.0,0.0,0.0,0.0,0.0,0.0,0.0,-5.6203,-5.6511,-5.6511,-5.6819,-5.6569,-5.5703,-5.5703,-5.5703,-5.5703,-5.5703,-5.5703,-5.5703,-5.5703,-5.5703,0.0,0.0,0.0,0.0,-5.5011,-5.4664,-5.4472,-5.4337,-5.3837,-5.3164,-5.2837,-5.2375,-5.1952,0.0,0.0,0.0,0.0,0.0,0.0,0.0,0.0,0.0,-2.5703,-2.5703,-2.5703,-2.5703,-2.5703,-2.5703,-2.5703,0.0,0.0,0.0,0.0,0.0,0.0,0.0,0.0,0.0,-2.5703,-2.5703,-2.5703,-2.6504,-2.6914,-2.6934,-2.7793,-2.8203,-2.8203,-2.834,0.0,0.0,0.0,0.0,0.0,0.0,0.0,0.0,0.0,0.0,0.0,0.0,0.0,0.0,0.0,0.0,0.0,0.0,0.0,0.0,0.0,0.0,0.0,0.0,0.0,0.0,0.0,0.0,0.0,0.0,0.0,0.0,-3.9027,-3.9258,-3.9546,-4.0335,-4.0489,-4.0527,-4.0662,0.0,0.0,0.0,0.0,0.0,0.0,0.0,0.0,0.0,0.0,0.0,0.0,0.0,0.0,-5.5703,-5.5703,-5.5703,-5.5703,-5.6492,-5.6511,-5.5703,-5.5703,-5.5703,-5.5703,-5.5703,-5.5703,-5.5703,-5.5703,-5.5703,0.0,0.0,0.0,0.0,-5.3953,-5.3722,-5.4241,-5.2626,-5.2452,-5.301,-5.2202,-5.1914,-5.201,0.0,0.0,0.0,0.0,0.0,0.0,0.0,0.0,0.0,0.0,-2.5703,-2.5703,-2.5703,-2.5703,-2.5703,0.0,0.0,0.0,0.0,0.0,0.0,0.0,0.0,0.0,0.0,-2.5703,-2.5703,-2.5703,-2.5918,-2.6016,-2.6016,-2.6894,-2.7305,-2.7363,-2.8691,-2.9609,0.0,0.0,0.0,0.0,0.0,0.0,0.0,0.0,0.0,0.0,-3.0756,-3.068,0.0,0.0,0.0,0.0,0.0,0.0,0.0,0.0,-3.2025,-3.2667,-3.4095,0.0,-3.6199,-3.7065,-3.6988,0.0,0.0,0.0,0.0,0.0,0.0,0.0,0.0,0.0,0.0,0.0,0.0,0.0,0.0,0.0,0.0,0.0,0.0,0.0,0.0,0.0,0.0,0.0,0.0,0.0,-5.5703,-5.5703,-5.5703,-5.5703,-5.5895,-5.5915,-5.5703,-5.5703,-5.5703,-5.5703,-5.5703,-5.5703,-5.5703,-5.5703,-5.5703,0.0,0.0,0.0,-5.5607,-5.4607,-5.3914,-5.3472,-5.3049,-5.2606,-5.2183,-5.1991,-5.1914,-5.1856,0.0,0.0,0.0,0.0,0.0,0.0,0.0,0.0,0.0,0.0,0.0,0.0,0.0,0.0,0.0,0.0,0.0,0.0,0.0,0.0,0.0,0.0,0.0,0.0,-2.5703,-2.5703,-2.5703,-2.5703,-2.5703,-2.5703,-2.5703,-2.6172,-2.6621,-2.707,-2.8828,-3.0039,0.0,0.0,0.0,0.0,-3.0569,0.0,0.0,0.0,0.0,0.0,-3.0649,-3.0344,0.0,-3.0389,-3.0198,-2.9871,0.0,0.0,0.0,0.0,-3.1398,-3.184,-3.2301,-3.332,-3.4359,-3.4834,-3.5238,-3.5622,0.0,0.0,0.0,0.0,0.0,0.0,0.0,0.0,0.0,0.0,0.0,0.0,0.0,0.0,0.0,0.0,0.0,0.0,0.0,0.0,0.0,0.0,0.0,-5.5703,-5.5703,-5.5703,-5.5703,-5.5703,-5.5703,-5.5703,-5.5703,-5.5318,-5.5145,-5.5145,-5.5145,-5.4934,-5.4568,-5.4972,-5.4934,0.0,0.0,0.0,-5.4453,-5.3241,-5.2702,-5.2568,-5.2202,-5.176,-5.1356,-5.1356,-5.1356,-5.1298,0.0,0.0,0.0,0.0,0.0,0.0,0.0,0.0,0.0,0.0,0.0,0.0,0.0,0.0,0.0,0.0,0.0,0.0,0.0,0.0,0.0,0.0,0.0,-2.5703,-2.5703,-2.5703,-2.5703,-2.5703,-2.5703,-2.5762,-2.5898,-2.5762,-2.623,-2.7266,-2.8725,-2.9949,0.0,0.0,0.0,0.0,-3.0525,0.0,0.0,0.0,0.0,0.0,0.0,0.0,0.0,-3.0217,-2.9871,-2.9256,-3.014,0.0,0.0,0.0,0.0,0.0,-3.1525,-3.2885,-3.4274,-3.4122,-3.4699,-3.5315,0.0,0.0,0.0,0.0,0.0,0.0,0.0,0.0,0.0,0.0,0.0,0.0,0.0,0.0,0.0,0.0,0.0,0.0,0.0,0.0,0.0,0.0,0.0,-5.5511,-5.5511,-5.5395,-5.5376,-5.5511,-5.5395,-5.5376,-5.5511,-5.4838,-5.4434,-5.4299,-5.4299,-5.3914,-5.3241,-5.3953,-5.3895,-5.3164,0.0,0.0,-5.3087,-5.151,-5.1279,-5.1818,-5.101,-5.0702,-5.0702,-5.0702,-5.0702,-5.0702,0.0,0.0,0.0,0.0,0.0,0.0,0.0,0.0,0.0,0.0,0.0,0.0,0.0,0.0,0.0,0.0,0.0,0.0,0.0,0.0,0.0,0.0,-2.5703,-2.5703,-2.5703,-2.5703,-2.5703,-2.5703,-2.5703,-2.6074,-2.6777,-2.6055,-2.6562,-2.8105,-2.8313,-2.9274,-3.0714,-3.0576,-3.0521,-3.0525,-3.0448,0.0,0.0,0.0,0.0,0.0,0.0,0.0,0.0,-3.0217,-2.9871,-2.9256,-3.0198,0.0,0.0,0.0,0.0,0.0,-3.0679,-3.2443,-3.4101,-3.3314,-3.3757,-3.4391,0.0,0.0,0.0,0.0,0.0,0.0,0.0,0.0,0.0,0.0,0.0,0.0,0.0,0.0,0.0,0.0,0.0,0.0,0.0,0.0,0.0,0.0,0.0,0.0,-5.4684,-5.3972,-5.3914,-5.4664,-5.3972,-5.3933,-5.4684,-5.4549,-5.4126,-5.3395,-5.3395,-5.3337,-5.3203,-5.3337,-5.3337,-5.3203,0.0,-5.3087,-5.3126,-5.2125,-5.1798,-5.1818,-5.101,-5.0702,-5.0702,-5.0702,-5.0702,-5.0702,0.0,0.0,0.0,0.0,0.0,0.0,0.0,0.0,0.0,0.0,0.0,0.0,0.0,0.0,0.0,0.0,0.0,0.0,0.0,0.0,0.0,-2.5703,-2.5703,-2.5703,-2.5703,-2.5703,-2.5703,-2.5703,-2.5703,-2.5918,-2.6289,-2.5898,-2.6601,-2.8243,-2.8212,-2.9113,-3.0641,-3.0544,-3.0506,-3.0487,0.0,0.0,0.0,0.0,0.0,0.0,0.0,0.0,0.0,0.0,-2.9254,-2.8743,-3.0078,0.0,0.0,0.0,0.0,0.0,-3.0448,-3.1648,-3.2801,-3.2372,-3.391,-3.5315,0.0,0.0,0.0,0.0,0.0,0.0,0.0,0.0,0.0,0.0,0.0,0.0,0.0,0.0,0.0,0.0,0.0,0.0,0.0,0.0,0.0,0.0,0.0,0.0,-5.4491,-5.3664,-5.3376,-5.378,-5.3414,-5.3164,-5.3106,-5.3106,-5.2895,-5.251,-5.251,-5.2279,-5.1856,-5.2299,-5.226,-5.1856,0.0,-5.1856,-5.1818,-5.1414,-5.1241,-5.1202,-5.0837,-5.0702,-5.0702,-5.0702,-5.0702,-5.0702,0.0,0.0,0.0,0.0,0.0,0.0,0.0,0.0,0.0,0.0,0.0,0.0,0.0,0.0,0.0,0.0,0.0,0.0,0.0,0.0,-2.5703,-2.5703,-2.5703,-2.5703,-2.5703,-2.5703,-2.5703,-2.5703,-2.5703,-2.5703,-2.5703,-2.6099,-2.6973,-2.8214,-2.8361,-2.9229,-3.0564,-3.0506,-3.0487,-3.0487,0.0,0.0,0.0,0.0,0.0,0.0,0.0,0.0,0.0,0.0,0.0,0.0,0.0,0.0,0.0,-3.0398,-3.0398,-3.0398,-3.0398,-3.1179,-3.1891,-3.1487,0.0,0.0,0.0,0.0,0.0,0.0,0.0,0.0,0.0,0.0,0.0,0.0,0.0,0.0,0.0,0.0,0.0,0.0,0.0,0.0,0.0,0.0,0.0,0.0,0.0,0.0,-5.3895,-5.3087,-5.2702,-5.2895,-5.2702,-5.2375,-5.1914,-5.1722,-5.1625,-5.1625,-5.1625,-5.1298,-5.0721,-5.1337,-5.1279,-5.0702,-5.0702,-5.0702,-5.0702,-5.0702,-5.0702,-5.0702,-5.0702,-5.0702,-5.0702,-5.0702,-5.0702,-5.0702,0.0,0.0,0.0,0.0,0.0,0.0,0.0,0.0,0.0,0.0,0.0,0.0,0.0,0.0,0.0,0.0,0.0,0.0,0.0,0.0,-2.5703,-2.5703,-2.5703,-2.5703,-2.5703,-2.5703,-2.5703,-2.5703,-2.5703,-2.5703,-2.5723,-2.7288,-2.8088,-2.8234,-2.8852,-2.9644,-3.0506,-3.0448,-3.0448,-3.0417,-2.9605,0.0,0.0,0.0,0.0,0.0,0.0,0.0,0.0,0.0,0.0,0.0,0.0,0.0,-3.0398,-3.0398,-3.0398,-3.0398,-3.0398,-3.1583,-3.2449,-3.0891,0.0,0.0,0.0,0.0,0.0,0.0,0.0,0.0,0.0,0.0,0.0,0.0,0.0,0.0,0.0,0.0,0.0,0.0,0.0,0.0,0.0,0.0,0.0,0.0,0.0,0.0,-5.2145,-5.1318,-5.1221,-5.1972,-5.126,-5.1202,-5.1895,-5.1164,-5.0779,-5.0779,-5.0779,-5.076,-5.0702,-5.076,-5.0741,-5.0702,-5.0702,-5.0702,-5.0702,-5.0702,-5.0702,-5.0702,-5.0702,-5.0702,-5.0702,-5.0702,-5.0702,-5.0702,0.0,0.0,0.0,0.0,0.0,0.0,0.0,0.0,0.0,0.0,0.0,0.0,0.0,0.0,0.0,0.0,0.0,0.0,0.0,0.0,-2.5703,-2.5703,-2.5703,-2.5703,-2.5703,-2.5703,-2.5703,-2.5703,-2.5652,-2.5919,-2.6466,-2.7044,-2.7846,-2.8833,-2.9094,-2.9367,-2.966,-3.0237,-3.016,-2.9721,-2.9969,-2.9276,0.0,0.0,0.0,0.0,0.0,0.0,0.0,0.0,-2.7817,-2.8168,0.0,-3.0025,-3.0398,-3.0398,-3.0398,-3.0398,-3.0398,-3.1256,-3.2006,-3.1371,0.0,0.0,0.0,0.0,0.0,0.0,0.0,0.0,0.0,0.0,0.0,0.0,0.0,0.0,0.0,0.0,0.0,0.0,0.0,0.0,0.0,0.0,0.0,0.0,0.0,0.0,-5.1933,-5.1144,-5.0587,-5.0356,-5.0567,-5.0587,-5.0356,-5.0567,-5.0433,-4.9894,-5.0433,-5.0702,-5.0702,-5.0702,-5.0702,-5.0702,-5.0702,-5.0702,-5.0702,-5.0702,-5.0702,-5.0702,-5.0702,-5.0544,-5.0358,-5.0604,-5.0702,-5.0702,0.0,0.0,0.0,0.0,0.0,0.0,0.0,0.0,0.0,0.0,0.0,0.0,0.0,0.0,0.0,0.0,0.0,0.0,0.0,-2.5703,-2.5703,-2.5703,-2.5703,-2.5699,-2.5704,-2.5684,-2.5665,-2.5665,-2.5609,-2.587,-2.6469,-2.6666,-2.7361,-2.8414,-2.8683,-2.8772,-2.8783,-2.9437,-2.9552,-2.9325,-2.9696,-2.9175,0.0,0.0,0.0,0.0,0.0,0.0,0.0,0.0,-2.7727,0.0,0.0,0.0,-3.0398,-3.0398,-3.0217,-3.0044,-3.0321,-3.0641,-3.1006,0.0,0.0,0.0,0.0,0.0,0.0,0.0,0.0,0.0,0.0,0.0,0.0,0.0,0.0,0.0,0.0,0.0,0.0,0.0,0.0,0.0,0.0,0.0,0.0,0.0,0.0,0.0,0.0,-5.0991,-5.0298,-4.9433,-4.9971,-4.9875,-4.899,-4.9586,-4.9586,-4.899,-4.9586,-5.001,-5.0298,-5.0567,-5.0702,-5.0702,-5.0702,-5.0529,-5.0298,-5.0587,-5.0624,-5.0485,-5.0216,-5.0023,-4.9949,-5.0358,-5.0421,-5.0336,0.0,0.0,0.0,0.0,0.0,0.0,0.0,0.0,0.0,0.0,0.0,0.0,0.0,0.0,0.0,0.0,0.0,0.0,-2.5703,-2.5703,-2.5703,-2.5703,-2.5703,-2.5704,-2.5698,-2.562,-2.5601,-2.5601,-2.5531,-2.5506,-2.5524,-2.6322,-2.6696,-2.6764,-2.7544,-2.7937,-2.7992,-2.8003,-2.8579,-2.9394,-2.8545,-2.8255,-2.8203,0.0,0.0,0.0,0.0,0.0,0.0,0.0,-2.8563,-2.8198,0.0,0.0,0.0,-3.0398,-2.9794,-2.9294,-3.0179,-2.9775,0.0,0.0,0.0,0.0,0.0,0.0,0.0,0.0,0.0,0.0,0.0,0.0,0.0,0.0,0.0,0.0,0.0,0.0,0.0,0.0,0.0,0.0,0.0,0.0,0.0,0.0,0.0,0.0,0.0,-5.0664,-5.0279,-4.9394,-4.9375,-4.8971,-4.8105,-4.8105,-4.8086,-4.8086,-4.8086,-4.8548,-4.9413,-5.0279,-5.0664,-5.0664,-5.0664,-5.0183,-4.9452,-5.0317,-5.0442,-4.9997,-4.9115,-4.9067,-4.9532,-4.993,-4.9808,-4.9542,0.0,0.0,0.0,0.0,0.0,0.0,0.0,0.0,0.0,0.0,0.0,0.0,0.0,0.0,0.0,0.0,0.0,0.0,-2.5703,-2.5703,-2.5703,-2.5703,-2.5703,-2.5707,-2.5706,-2.5597,-2.5524,-2.5524,-2.5464,-2.5744,-2.636,-2.6533,-2.6967,-2.7544,-2.7794,-2.7563,-2.7063,-2.7719,-2.7829,-2.7625,-2.8644,-2.8714,-2.8203,0.0,0.0,0.0,0.0,0.0,0.0,0.0,0.0,0.0,0.0,0.0,0.0,-3.0398,-3.0217,-3.0083,-3.0321,-3.066,0.0,0.0,0.0,0.0,0.0,0.0,0.0,0.0,0.0,0.0,0.0,0.0,0.0,0.0,0.0,0.0,0.0,0.0,0.0,0.0,0.0,0.0,0.0,0.0,0.0,0.0,0.0,0.0,0.0,-4.8875,-4.849,-4.7682,-4.8202,-4.8086,-4.7259,-4.7817,-4.7665,-4.6851,-4.7703,-4.824,-4.849,-4.8759,-4.8875,-4.8875,-4.8875,-4.8721,-4.8491,-4.8524,-4.8473,-4.8356,-4.7813,-4.7844,-4.8222,-4.805,-4.8283,-4.857,0.0,0.0,0.0,0.0,0.0,0.0,0.0,0.0,0.0,0.0,0.0,0.0,0.0,0.0,0.0,0.0,0.0,0.0,0.0,0.0,-2.5703,-2.5703,-2.5703,-2.5675,-2.561,-2.5534,-2.5466,-2.5428,-2.539,-2.563,-2.6149,-2.6091,-2.637,-2.6871,-2.6871,-2.6582,-2.6169,-2.6734,-2.7086,-2.7346,-2.8443,-2.8787,-2.8627,0.0,0.0,0.0,0.0,0.0,0.0,0.0,0.0,0.0,0.0,0.0,0.0,-2.9987,-2.966,-2.9486,-2.9794,0.0,0.0,0.0,0.0,0.0,0.0,0.0,0.0,0.0,0.0,0.0,0.0,0.0,0.0,0.0,0.0,0.0,0.0,0.0,0.0,0.0,0.0,0.0,0.0,0.0,0.0,0.0,0.0,0.0,0.0,-4.8105,-4.774,-4.6932,-4.7375,-4.7221,-4.6394,-4.6743,-4.6527,-4.5821,-4.6421,-4.6774,-4.6934,-4.7741,-4.803,-4.7894,-4.7528,-4.7567,-4.7835,-4.6828,-4.673,-4.7173,-4.6577,-4.6632,-4.6965,-4.6873,-4.7065,-4.733,0.0,0.0,0.0,0.0,0.0,0.0,0.0,0.0,0.0,0.0,0.0,0.0,0.0,0.0,0.0,0.0,0.0,0.0,0.0,0.0,-2.5703,-2.5703,-2.5703,-2.5636,-2.5513,-2.5514,-2.5447,-2.5322,-2.5303,-2.5303,-2.5303,-2.5303,-2.5303,-2.5303,-2.5303,-2.5322,-2.5409,-2.5486,-2.6467,-2.7978,-2.8132,-2.8629,-2.9294,-2.928,0.0,0.0,0.0,0.0,0.0,0.0,0.0,0.0,-3.016,-3.0398,-3.0237,-2.9448,-2.864,-2.8179,0.0,0.0,0.0,0.0,0.0,0.0,0.0,0.0,0.0,0.0,0.0,0.0,0.0,0.0,0.0,0.0,0.0,0.0,0.0,0.0,0.0,0.0,0.0,0.0,0.0,0.0,0.0,0.0,0.0,0.0,0.0,-4.7837,-4.7491,-4.6704,-4.6685,-4.6301,-4.5532,-4.5201,-4.5052,-4.4988,-4.4751,-4.4707,-4.5023,-4.6952,-4.7683,-4.7376,-4.6549,-4.666,-4.7281,-4.5351,-4.5256,-4.6238,-4.5369,-4.533,-4.5845,-4.6127,-4.6064,-4.5915,0.0,0.0,0.0,0.0,0.0,0.0,0.0,0.0,0.0,0.0,0.0,0.0,0.0,0.0,0.0,0.0,0.0,0.0,0.0,0.0,-2.5703,-2.5703,-2.5703,-2.5655,-2.5571,-2.5572,-2.5543,-2.5466,-2.5341,-2.5303,-2.5303,-2.5303,-2.5303,-2.5303,-2.5303,-2.5303,-2.536,-2.6063,-2.6563,-2.7044,-2.8352,-2.9025,-2.9217,-2.9166,-2.9484,0.0,0.0,0.0,0.0,0.0,0.0,0.0,-3.034,-3.0398,-3.0359,-3.0179,-2.9506,-2.9025,0.0,0.0,0.0,0.0,0.0,0.0,0.0,0.0,0.0,0.0,0.0,0.0,0.0,0.0,0.0,0.0,0.0,0.0,0.0,0.0,0.0,0.0,0.0,0.0,0.0,0.0,0.0,0.0,0.0,0.0,-4.5757,-4.5736,-4.5554,-4.5109,-4.509,-4.4995,-4.4825,-4.4732,-4.4553,0.0,-4.4482,-4.4337,-4.3886,-4.5166,-4.5858,-4.6013,-4.5547,-4.5684,-4.6093,-4.4702,-4.4506,-4.5031,-4.4202,-4.4318,-4.4892,-4.4352,-4.465,-4.5268,0.0,0.0,0.0,0.0,0.0,0.0,0.0,0.0,0.0,0.0,0.0,0.0,0.0,0.0,0.0,0.0,0.0,0.0,0.0,0.0,0.0,-2.5703,-2.5703,-2.5662,-2.5601,-2.5599,-2.5562,-2.5495,-2.5437,0.0,0.0,0.0,0.0,-2.5341,-2.5341,-2.5553,-2.5947,-2.6409,-2.7063,-2.7871,-2.8736,-2.9371,-2.9775,-2.9737,-3.0025,-3.039,-2.991,0.0,0.0,0.0,0.0,0.0,0.0,0.0,-3.0321,-2.991,-2.9467,-2.9121,0.0,0.0,0.0,0.0,0.0,0.0,0.0,0.0,0.0,0.0,0.0,0.0,0.0,0.0,0.0,0.0,0.0,0.0,0.0,0.0,0.0,0.0,0.0,0.0,0.0,0.0,0.0,0.0,0.0,-4.5222,-4.4872,-4.4872,-4.4781,-4.4624,-4.458,-4.458,-4.458,-4.4419,-4.4204,-4.4016,-4.4065,-4.4065,-4.4035,-4.4606,-4.514,-4.5586,-4.5243,-4.5255,-4.5407,-4.4616,-4.4427,-4.4619,-4.4172,-4.4159,-4.4332,-4.411,-4.4296,-4.4606,0.0,0.0,0.0,0.0,0.0,0.0,0.0,0.0,0.0,0.0,0.0,0.0,0.0,0.0,0.0,0.0,0.0,0.0,0.0,0.0,0.0,-2.5703,-2.5703,-2.5664,-2.5625,-2.5624,-2.5601,-2.5532,0.0,0.0,0.0,0.0,0.0,-2.562,-2.563,-2.6082,-2.6832,-2.6967,-2.7832,-2.9102,-2.9256,-2.9756,-3.0398,-3.0398,-3.0398,-3.0398,-3.0398,-3.0398,-3.0398,-3.0398,0.0,0.0,0.0,0.0,-3.0237,-2.9352,-2.8986,-2.8736,0.0,0.0,0.0,0.0,0.0,0.0,0.0,0.0,0.0,0.0,0.0,0.0,0.0,0.0,0.0,0.0,0.0,0.0,0.0,0.0,0.0,0.0,0.0,0.0,0.0,0.0,0.0,0.0,0.0,-4.4872,-4.4527,-4.4501,-4.4474,-4.4419,-4.4419,-4.4419,-4.4419,-4.4076,-4.3893,-4.3893,-4.3612,-4.3886,-4.458,-4.458,-4.4966,-4.5586,-4.5243,-4.5096,-4.5074,-4.4751,-4.458,-4.458,-4.458,-4.4392,-4.4146,-4.4474,-4.4447,-4.429,0.0,0.0,0.0,0.0,0.0,0.0,0.0,0.0,0.0,0.0,0.0,0.0,0.0,0.0,0.0,0.0,0.0,0.0,-2.5703,0.0,0.0,-2.5703,-2.5703,-2.5703,-2.5684,-2.5681,-2.5679,-2.5668,0.0,0.0,0.0,0.0,0.0,-2.6529,0.0,0.0,-2.7775,-2.8467,-2.889,-2.9159,-2.9929,-3.0314,-3.0398,-3.0398,-3.0398,-3.0398,-3.0398,-3.0398,-3.0398,-3.0398,-3.0398,0.0,0.0,0.0,-3.0237,-2.9352,-2.8602,0.0,0.0,0.0,0.0,0.0,0.0,0.0,0.0,0.0,0.0,0.0,0.0,0.0,0.0,0.0,0.0,0.0,0.0,0.0,0.0,0.0,0.0,0.0,0.0,0.0,0.0,0.0,0.0,0.0,-4.4676,-4.4501,-4.4087,-4.4087,-4.3943,-4.3664,-4.3664,-4.3664,-4.3664,-4.3597,-4.3582,-4.3582,-4.3513,-4.3886,-4.458,-4.458,-4.4966,-4.5586,-4.5243,-4.5096,-4.5074,-4.4751,-4.458,-4.458,-4.458,-4.4553,-4.4527,-4.458,-4.4757,-4.4966,0.0,0.0,0.0,0.0,0.0,0.0,0.0,0.0,0.0,0.0,0.0,0.0,0.0,0.0,0.0,-2.5703,-2.5703,-2.5703,-2.5703,-2.5703,-2.5703,-2.5703,-2.5703,-2.5703,-2.5703,-2.5703,-2.5701,0.0,0.0,0.0,0.0,-2.6544,-2.6743,0.0,0.0,0.0,0.0,-2.8948,-2.9371,-2.9871,-3.0256,-3.0121,-2.9717,-3.0217,-3.0102,-2.9737,-3.0217,-3.0398,-3.0398,-3.0398,-3.0083,-2.9679,-2.9679,0.0,0.0,0.0,0.0,0.0,0.0,0.0,0.0,0.0,0.0,0.0,0.0,0.0,0.0,0.0,0.0,0.0,0.0,0.0,0.0,0.0,0.0,0.0,0.0,0.0,0.0,0.0,0.0,0.0,0.0,0.0,0.0,0.0,-4.4261,-4.3901,-4.3079,-4.3467,-4.3443,-4.2837,-4.3259,-4.3497,-4.3497,-4.3497,-4.3497,-4.3497,-4.3497,-4.3886,-4.458,-4.458,-4.4966,-4.5586,-4.5243,-4.5096,-4.5074,-4.4751,-4.4707,-4.4872,-4.4872,-4.4776,-4.4606,-4.4825,-4.4707,-4.4542,0.0,0.0,0.0,0.0,0.0,0.0,0.0,0.0,0.0,0.0,0.0,0.0,0.0,0.0,0.0,0.0,-2.5703,-2.5703,-2.5703,-2.5703,-2.5703,-2.5703,-2.5703,-2.5703,-2.5703,-2.5703,0.0,0.0,0.0,0.0,-2.6988,-2.7195,-2.7697,0.0,-2.8394,0.0,0.0,0.0,0.0,-3.0379,-3.016,-2.9679,-2.914,-2.9583,-2.9352,-2.8909,-2.9756,-3.0083,-3.0102,-3.0321,-2.9813,-2.9102,-2.9102,-2.8948,0.0,0.0,0.0,0.0,0.0,0.0,0.0,0.0,0.0,0.0,0.0,0.0,0.0,0.0,0.0,0.0,0.0,0.0,0.0,0.0,0.0,0.0,0.0,0.0,0.0,0.0,0.0,0.0,0.0,0.0,0.0,0.0,-4.3454,-4.3124,-4.2029,-4.2561,-4.2616,-4.2011,-4.258,-4.2941,-4.3023,-4.3225,-4.3379,-4.3497,-4.3497,-4.3886,-4.458,-4.458,-4.4966,-4.5586,-4.5243,-4.5096,-4.5074,-4.4825,-4.4872,-4.5096,-4.5201,-4.5055,-4.4853,-4.5052,-4.4738,-4.4346,0.0,0.0,0.0,0.0,0.0,0.0,0.0,0.0,0.0,0.0,0.0,0.0,-2.5703,-2.5703,-2.5703,-2.5703,-2.5703,-2.5703,-2.5703,-2.5703,-2.5703,-2.5703,-2.5703,0.0,-2.5703,-2.5703,0.0,0.0,0.0,0.0,-2.693,-2.7747,-2.8494,-2.9143,-2.9214,-2.9656,-3.0321,0.0,0.0,0.0,0.0,-2.914,0.0,0.0,-2.8005,0.0,0.0,-2.9159,-2.9294,-3.0121,-2.9813,-2.9102,-2.9102,-2.8582,-2.7794,0.0,0.0,0.0,0.0,0.0,0.0,0.0,0.0,0.0,0.0,0.0,0.0,0.0,0.0,0.0,0.0,0.0,0.0,0.0,0.0,0.0,0.0,0.0,0.0,0.0,0.0,0.0,0.0,0.0,0.0,0.0,-4.1971,-4.2044,-4.1222,-4.1203,-4.1222,-4.1167,-4.1203,-4.1396,-4.1704,-4.2456,-4.305,-4.3497,-4.3497,-4.3886,-4.458,-4.458,-4.4966,-4.5586,-4.5243,-4.5096,-4.5096,-4.5074,-4.5074,-4.5118,-4.5438,-4.5568,-4.5513,-4.5222,-4.5074,-4.4988,0.0,0.0,0.0,0.0,0.0,0.0,0.0,0.0,0.0,0.0,0.0,0.0,0.0,-2.5703,-2.5703,-2.5703,-2.5703,-2.5703,-2.5703,-2.5703,-2.5703,-2.5703,-2.5703,-2.5703,-2.5703,-2.5703,0.0,0.0,0.0,-2.6064,-2.6911,-2.7169,-2.7986,-2.9228,-2.9802,-3.0186,-3.0398,-3.0398,0.0,0.0,0.0,0.0,0.0,0.0,0.0,0.0,0.0,0.0,0.0,-2.9922,-2.9691,-2.9006,-2.8486,-2.8486,-2.8506,0.0,0.0,0.0,0.0,0.0,0.0,0.0,0.0,0.0,0.0,0.0,0.0,0.0,0.0,0.0,0.0,0.0,0.0,0.0,0.0,0.0,0.0,0.0,0.0,0.0,0.0,0.0,0.0,0.0,0.0,0.0,0.0,-4.1471,-4.0637,-4.1119,-4.1071,-4.0341,-4.1034,-4.1556,-4.186,-4.216,-4.2268,-4.2286,-4.3021,-4.353,-4.3794,-4.4559,-4.5161,-4.5586,-4.5243,-4.5096,-4.5074,-4.4872,-4.4896,-4.5096,-4.5222,-4.5282,-4.5263,-4.514,-4.4966,-4.4781,0.0,0.0,0.0,0.0,0.0,0.0,0.0,0.0,0.0,0.0,0.0,0.0,0.0,0.0,-2.5638,-2.5664,-2.5684,-2.5703,-2.5703,-2.5703,-2.5703,-2.5703,-2.5703,-2.5703,-2.5703,-2.5703,0.0,0.0,0.0,0.0,0.0,-2.666,-2.7323,-2.8371,-2.9236,-2.9929,0.0,0.0,0.0,-3.0321,0.0,0.0,-2.8275,0.0,0.0,0.0,0.0,0.0,0.0,0.0,0.0,0.0,0.0,0.0,0.0,0.0,0.0,0.0,0.0,0.0,0.0,0.0,0.0,0.0,0.0,0.0,0.0,0.0,0.0,0.0,0.0,0.0,0.0,0.0,0.0,0.0,0.0,0.0,0.0,0.0,0.0,0.0,0.0,0.0,0.0,0.0,0.0,0.0,-3.9814,-4.0393,-4.0477,-3.9814,-4.0641,-4.1261,-4.1606,-4.1704,-4.1757,-4.1735,-4.2483,-4.3083,-4.3488,-4.4303,-4.4995,-4.5586,-4.5362,-4.5201,-4.5074,-4.4872,-4.4896,-4.5096,-4.5222,-4.5282,-4.5243,-4.514,-4.4943,-4.4781,0.0,0.0,0.0,0.0,0.0,0.0,0.0,0.0,0.0,0.0,0.0,0.0,0.0,0.0,0.0,-2.5586,-2.5664,-2.5703,-2.5703,-2.5703,-2.5703,-2.5703,-2.5703,-2.5703,-2.5703,-2.5703,0.0,0.0,0.0,0.0,0.0,0.0,-2.6649,-2.664,-2.7505,-2.8794,-3.0321,0.0,-3.0359,-3.0294,0.0,-2.9102,-2.9006,0.0,0.0,0.0,-2.8794,-2.9083,0.0,-3.009,0.0,0.0,0.0,0.0,0.0,0.0,0.0,0.0,0.0,0.0,0.0,0.0,0.0,0.0,0.0,0.0,0.0,0.0,0.0,0.0,0.0,0.0,0.0,0.0,0.0,0.0,0.0,0.0,0.0,0.0,0.0,0.0,0.0,0.0,0.0,0.0,-3.9362,-3.9473,-3.867,-3.8887,-3.9182,-3.9524,-3.9846,-4.0264,-4.0769,-4.1081,-4.1478,-4.1946,-4.1989,-4.2612,-4.3759,-4.3781,-4.444,-4.5586,-4.5566,-4.54,-4.5118,-4.5118,-4.5118,-4.5159,-4.5457,-4.5586,-4.5568,-4.5222,-4.5118,-4.5074,0.0,0.0,0.0,0.0,0.0,0.0,0.0,0.0,0.0,0.0,0.0,0.0,0.0,-2.559,-2.5589,-2.5604,-2.5664,-2.5703,-2.5703,-2.5703,-2.5703,-2.5703,-2.5703,-2.5703,-2.5703,-2.5703,0.0,0.0,0.0,0.0,0.0,0.0,0.0,0.0,-2.7505,-2.8159,-2.8621,-2.9217,0.0,0.0,-2.9198,-2.9102,0.0,0.0,0.0,0.0,0.0,-2.8989,-2.9183,0.0,-2.9808,-2.9756,0.0,0.0,0.0,0.0,0.0,0.0,-2.6975,0.0,0.0,0.0,0.0,0.0,0.0,0.0,0.0,0.0,0.0,0.0,0.0,0.0,0.0,0.0,0.0,0.0,0.0,0.0,0.0,0.0,0.0,0.0,0.0,0.0,0.0,0.0,-3.7477,-3.7495,-3.7273,-3.7333,-3.7596,-3.8079,-3.8156,-3.8688,-3.9714,-3.9802,-4.0117,-4.0646,-4.1456,-4.2221,-4.2943,-4.3177,-4.4131,-4.5547,-4.4932,-4.4954,-4.5457,-4.5457,-4.5457,-4.5476,-4.5568,-4.5586,-4.5586,-4.5495,-4.5457,-4.5438,0.0,0.0,0.0,0.0,0.0,0.0,0.0,0.0,0.0,0.0,0.0,0.0,0.0,0.0,-2.5603,-2.5604,-2.5654,-2.5703,-2.5703,-2.5703,-2.5703,-2.5703,-2.5703,-2.5703,-2.5703,-2.5703,0.0,0.0,0.0,0.0,0.0,0.0,0.0,0.0,0.0,0.0,0.0,0.0,0.0,0.0,-2.9013,0.0,0.0,-2.9001,-2.8785,0.0,0.0,0.0,-2.9384,-2.9628,-2.9943,0.0,0.0,0.0,0.0,0.0,0.0,0.0,0.0,0.0,0.0,0.0,0.0,0.0,-2.6422,-2.6439,0.0,0.0,0.0,0.0,0.0,0.0,0.0,0.0,0.0,0.0,0.0,0.0,0.0,0.0,0.0,0.0,0.0,-3.6358,-3.638,-3.6525,-3.6525,-3.6638,-3.6836,-3.6971,-3.7234,-3.7687,-3.7704,-3.8057,-3.8757,-3.9123,-3.9465,-3.9771,-4.077,-4.1615,-4.2259,-4.2477,-4.347,-4.5028,-4.4509,-4.4778,-4.5586,-4.5586,-4.5586,-4.5586,-4.5586,-4.5586,-4.5586,-4.5586,-4.5586,-4.5586,0.0,0.0,0.0,0.0,0.0,0.0,0.0,0.0,0.0,0.0,0.0,0.0,0.0,0.0,0.0,-2.5601,-2.5664,-2.5703,-2.5703,-2.5681,-2.5698,-2.5698,-2.5681,-2.5683,-2.5683,-2.5683,0.0,0.0,0.0,0.0,0.0,0.0,0.0,0.0,0.0,0.0,0.0,0.0,0.0,-2.8779,-2.8804,-2.941,0.0,0.0,-2.9969,-2.9969,-2.9969,-2.9845,-2.9696,-2.9696,-2.9796,0.0,0.0,0.0,0.0,0.0,-2.8977,0.0,0.0,0.0,0.0,0.0,0.0,0.0,-2.5918,-2.6474,-2.6945,0.0,0.0,0.0,0.0,0.0,0.0,0.0,0.0,0.0,0.0,0.0,0.0,0.0,0.0,0.0,-3.4862,-3.5569,-3.5991,-3.5899,-3.5973,-3.6202,-3.6629,-3.6994,-3.7292,-3.7536,-3.7647,-3.7777,-3.7853,-3.8623,-3.9104,-3.9296,-4.0008,-4.0873,-4.1797,-4.17,-4.2566,-4.4162,-4.4066,-4.4509,-4.5316,-4.5413,-4.5509,-4.5586,-4.5586,-4.5586,-4.5586,-4.5586,-4.5586,-4.5586,-2.4695,0.0,0.0,0.0,0.0,0.0,0.0,0.0,0.0,0.0,0.0,0.0,0.0,0.0,0.0,-2.5601,-2.5664,-2.5703,-2.5703,-2.5639,-2.5627,-2.5627,-2.5571,-2.5543,-2.5543,-2.5543,0.0,0.0,0.0,0.0,0.0,0.0,0.0,0.0,0.0,0.0,0.0,0.0,0.0,-2.6956,-2.8273,0.0,-2.9832,-2.9782,-2.9746,-2.9746,-2.9746,-2.9729,-2.9696,-2.9696,-2.9626,-2.9514,0.0,0.0,0.0,0.0,0.0,0.0,0.0,0.0,0.0,0.0,0.0,0.0,-2.6711,-2.632,-2.6098,0.0,0.0,0.0,0.0,0.0,0.0,0.0,0.0,0.0,0.0,0.0,0.0,0.0,0.0,0.0,-3.4027,-3.4192,-3.4027,-3.3385,-3.3917,-3.4157,-3.3825,-3.4727,-3.5059,-3.463,-3.5513,-3.6295,-3.6949,-3.7123,-3.7911,-3.9296,-3.945,-4.0335,-4.1777,-4.1066,-4.17,-4.3297,-4.2585,-4.2777,-4.3643,-4.4297,-4.497,-4.5586,-4.5586,-4.5586,-4.5586,-4.5586,-4.5586,-4.5586,-2.5078,0.0,0.0,0.0,0.0,0.0,0.0,0.0,0.0,0.0,0.0,0.0,0.0,0.0,0.0,0.0,0.0,-2.5696,-2.5654,-2.5619,-2.5582,-2.5543,-2.5526,-2.5503,-2.5503,-2.5503,-2.5503,0.0,0.0,0.0,0.0,0.0,0.0,0.0,0.0,0.0,0.0,0.0,-2.6029,-2.6778,-2.7228,0.0,-2.9091,-2.895,-2.9176,-2.9551,-2.9551,-2.9456,-2.9336,-2.9336,-2.9355,0.0,0.0,-2.9696,-2.9877,0.0,-2.9573,-2.9202,0.0,0.0,0.0,-2.7874,0.0,0.0,0.0,-2.6841,-2.6953,0.0,0.0,0.0,0.0,0.0,0.0,0.0,0.0,0.0,0.0,0.0,0.0,0.0,0.0,0.0,-3.3164,-3.3201,-3.3088,-3.2816,-3.33,-3.3314,-3.2645,-3.3261,-3.3517,-3.3211,-3.3761,-3.4309,-3.4795,-3.568,-3.6546,-3.7411,-3.8257,-3.9315,-4.0546,-4.0104,-4.0835,-4.2431,-4.1989,-4.2297,-4.3124,-4.3547,-4.4201,-4.4989,-4.5432,-4.5586,-4.5586,-4.5586,-4.5586,-4.5586,-2.5703,0.0,0.0,0.0,0.0,0.0,0.0,0.0,0.0,0.0,0.0,0.0,0.0,0.0,0.0,0.0,0.0,0.0,0.0,0.0,0.0,-2.5486,-2.5466,-2.5466,-2.5466,-2.5466,-2.5466,0.0,0.0,0.0,0.0,0.0,0.0,0.0,0.0,0.0,0.0,0.0,0.0,-2.6637,0.0,-2.7013,-2.8556,-2.837,-2.8699,-2.933,-2.933,-2.9181,-2.8994,-2.8994,-2.9156,-2.933,-2.933,-2.9474,0.0,0.0,0.0,0.0,0.0,0.0,0.0,0.0,0.0,-2.8064,0.0,0.0,0.0,0.0,0.0,0.0,0.0,0.0,0.0,0.0,0.0,0.0,0.0,0.0,0.0,0.0,0.0,0.0,0.0,-3.2375,-3.2587,-3.3104,-3.3209,-3.2891,-3.2106,-3.2295,-3.2376,-3.2224,-3.2476,-3.2679,-3.2839,-3.4436,-3.5334,-3.5526,-3.7026,-3.8296,-3.9296,-3.9296,-4.0123,-4.1546,-4.1546,-4.195,-4.2604,-4.2777,-4.3239,-4.3912,-4.4951,-4.5451,-4.5586,-4.5586,-4.5586,-4.5586,-2.5703,-2.5703,0.0,0.0,0.0,0.0,0.0,0.0,0.0,0.0,0.0,0.0,0.0,0.0,0.0,0.0,0.0,0.0,-2.5611,0.0,0.0,-2.5409,-2.5341,-2.5322,-2.5322,-2.5322,-2.5322,-2.5322,0.0,0.0,0.0,0.0,0.0,0.0,-2.4962,0.0,0.0,0.0,-2.4638,0.0,-2.5481,-2.7006,0.0,-2.8897,-2.8971,-2.9062,-2.9062,-2.904,-2.8994,0.0,-2.9017,-2.9062,0.0,-2.9225,-2.9455,-2.9678,0.0,0.0,0.0,0.0,0.0,0.0,-2.9074,0.0,0.0,0.0,-2.7831,-2.7809,0.0,0.0,0.0,0.0,0.0,0.0,0.0,0.0,0.0,0.0,0.0,0.0,0.0,0.0,0.0,-3.1531,-3.2144,-3.3603,-3.3077,-3.233,-3.1525,-3.1734,-3.1551,-3.0861,-3.1986,-3.26,-3.263,-3.3766,-3.4737,-3.5512,-3.643,-3.7719,-3.9296,-3.9296,-3.9777,-4.0642,-4.0642,-4.07,-4.0854,-4.1623,-4.2008,-4.2239,-4.3835,-4.4913,-4.5586,-4.5586,-4.5586,-4.5586,-2.5703,-2.5703,0.0,0.0,0.0,0.0,0.0,0.0,0.0,0.0,0.0,0.0,0.0,0.0,0.0,0.0,0.0,-2.5538,0.0,0.0,0.0,0.0,-2.5341,-2.5322,-2.537,-2.5322,-2.5303,-2.5303,-2.5303,0.0,0.0,0.0,0.0,0.0,-2.4955,0.0,-2.4993,0.0,-2.5356,0.0,0.0,0.0,0.0,-2.8484,-2.8594,-2.8994,-2.8994,-2.8994,-2.8994,0.0,-2.8994,0.0,0.0,0.0,0.0,0.0,0.0,0.0,0.0,0.0,0.0,0.0,0.0,0.0,-2.9104,0.0,-2.8503,0.0,0.0,0.0,0.0,0.0,0.0,0.0,-2.6729,0.0,0.0,0.0,0.0,0.0,0.0,0.0,0.0,0.0,0.0,0.0,-3.1631,-3.1094,-3.028,-3.0355,-3.0314,-3.0077,-3.0615,-3.1039,-3.1328,-3.2718,-3.3622,-3.4007,-3.5372,-3.6642,-3.7796,-3.7796,-3.8257,-3.9084,-3.9585,-3.9796,-3.9873,-4.07,-4.1335,-4.1873,-4.2566,-4.3374,-4.4201,-4.4662,-4.4855,-4.4913,-2.5664,0.0,0.0,0.0,0.0,0.0,0.0,0.0,0.0,0.0,0.0,0.0,-2.5679,-2.5621,0.0,0.0,-2.5507,-2.5452,0.0,0.0,-2.539,-2.5409,-2.5341,0.0,0.0,0.0,-2.5322,-2.5303,0.0,0.0,0.0,0.0,0.0,0.0,0.0,-2.4828,-2.4869,0.0,0.0,-2.6246,-2.7119,-2.7952,-2.8631,-2.8264,-2.8503,-2.8994,-2.8994,-2.8994,-2.8994,-2.8994,-2.8994,0.0,-2.8994,0.0,0.0,0.0,0.0,0.0,-3.0147,0.0,0.0,0.0,0.0,0.0,0.0,0.0,0.0,0.0,0.0,0.0,0.0,0.0,0.0,0.0,0.0,-2.7064,0.0,0.0,0.0,0.0,0.0,0.0,0.0,0.0,0.0,-3.0509,-3.0494,-3.0142,-2.9326,-2.9289,-2.9353,-2.9495,-2.9643,-2.9864,-3.0202,-3.1994,-3.2891,-3.291,-3.468,-3.593,-3.6699,-3.6699,-3.718,-3.8046,-3.8661,-3.8931,-3.9008,-3.9815,-4.0546,-4.1143,-4.1354,-4.1835,-4.2527,-4.3585,-4.397,-4.4066,-2.5605,-2.5664,0.0,0.0,0.0,0.0,0.0,0.0,0.0,0.0,0.0,0.0,0.0,0.0,0.0,0.0,0.0,-2.5399,-2.5409,0.0,-2.5322,-2.5409,-2.5409,-2.5409,0.0,0.0,0.0,0.0,0.0,0.0,0.0,0.0,0.0,0.0,0.0,-2.47,-2.4512,-2.4321,-2.4245,-2.4429,-2.6007,-2.7126,-2.7915,0.0,-2.8975,-2.8994,-2.8994,0.0,0.0,-2.8994,-2.8994,0.0,0.0,0.0,0.0,0.0,0.0,0.0,0.0,0.0,0.0,-2.9956,0.0,0.0,0.0,0.0,-2.9067,0.0,0.0,0.0,0.0,0.0,0.0,0.0,0.0,0.0,0.0,0.0,0.0,0.0,0.0,0.0,0.0,0.0,-3.0228,-3.0191,-3.0191,-2.9843,-2.9053,-2.9017,-2.9017,-2.9021,-2.9456,-2.9713,-2.9731,-3.1847,-3.2891,-3.291,-3.468,-3.593,-3.6699,-3.6699,-3.718,-3.8007,-3.8027,-3.8046,-3.8104,-3.8969,-3.9354,-3.945,-4.0239,-4.0546,-4.0777,-4.2508,-4.3143,-4.3143,0.0,0.0,0.0,0.0,0.0,0.0,0.0,-2.5703,0.0,0.0,0.0,0.0,0.0,-2.6774,-2.6371,0.0,0.0,-2.5322,-2.5322,-2.5851,0.0,0.0,0.0,-2.6544,0.0,0.0,0.0,0.0,0.0,0.0,0.0,0.0,0.0,0.0,0.0,-2.476,0.0,0.0,0.0,0.0,0.0,-2.6759,-2.709,0.0,-2.8209,-2.8282,-2.8815,-2.8994,0.0,-2.8994,-2.8994,-2.8994,-2.8994,-2.9181,-2.9434,-2.9625,-3.0054,-3.0572,0.0,0.0,-3.187,-3.0985,0.0,0.0,0.0,0.0,0.0,0.0,0.0,0.0,0.0,0.0,0.0,0.0,0.0,0.0,0.0,0.0,0.0,0.0,0.0,0.0,0.0,0.0,0.0,-2.9007,-2.8521,-2.8053,-2.7635,-2.8114,-2.8394,-2.8396,-2.9117,-2.957,-2.9696,-3.1108,-3.1833,-3.1852,-3.3742,-3.4776,-3.5064,-3.5641,-3.6084,-3.6392,-3.6911,-3.7142,-3.7219,-3.8084,-3.843,-3.8527,-3.9373,-3.97,-3.9912,-4.1604,-4.2239,-4.2412,-2.5505,0.0,0.0,0.0,0.0,0.0,0.0,0.0,0.0,0.0,-2.7266,0.0,-2.8158,0.0,-2.7236,0.0,-2.6601,-2.6217,-2.6217,-2.6755,0.0,-2.636,-2.7351,0.0,0.0,0.0,0.0,0.0,0.0,-2.6082,0.0,0.0,0.0,0.0,0.0,0.0,-2.4827,0.0,-2.5207,0.0,0.0,-2.6018,0.0,0.0,-2.7365,-2.7475,0.0,-2.8576,-2.8631,-2.8883,-2.8994,-2.9017,-2.9112,-2.9312,-2.9551,-2.9765,-3.0183,-3.0713,-3.1123,-3.1935,0.0,-3.1531,-3.2205,0.0,-3.0976,0.0,-3.1579,0.0,0.0,0.0,0.0,0.0,0.0,0.0,0.0,0.0,0.0,-2.6549,0.0,0.0,0.0,0.0,0.0,0.0,-2.8282,-2.7999,-2.7493,-2.6981,0.0,-2.7512,-2.8087,-2.8009,-2.8925,-2.9474,-2.9589,-3.0731,-3.1306,-3.1325,-3.2966,-3.3891,-3.4218,-3.4776,-3.5218,-3.5532,-3.6065,-3.6276,-3.6353,-3.7199,-3.7719,-3.8084,-3.895,-3.9469,-3.9854,-4.0931,-4.1335,-4.1585,0.0,0.0,0.0,0.0,-2.5664,0.0,0.0,0.0,-2.7012,0.0,-2.7812,-2.8359,-2.832,-2.8255,-2.8184,-2.8065,-2.7997,-2.7928,-2.789,-2.7928,0.0,0.0,-2.8044,-2.8055,-2.7926,0.0,0.0,0.0,0.0,0.0,0.0,0.0,0.0,0.0,-2.4991,0.0,-2.4818,-2.4804,-2.479,-2.4775,-2.4594,-2.4943,-2.569,-2.6329,-2.656,-2.667,-2.7548,-2.7882,-2.7993,-2.8764,-2.904,-2.9089,-2.9312,-2.9551,-2.9748,-2.9939,-3.077,-3.1455,-3.0667,-3.166,-3.266,-3.1632,-3.2065,0.0,0.0,0.0,-3.1479,0.0,0.0,0.0,0.0,0.0,0.0,0.0,0.0,0.0,0.0,0.0,0.0,0.0,0.0,0.0,0.0,-2.903,-2.8088,-2.7236,-2.7204,0.0,0.0,-2.7252,-2.8007,-2.7831,-2.8841,-2.9392,-2.9412,-3.061,-3.1234,-3.1249,-3.2333,-3.3276,-3.4083,-3.416,-3.4641,-3.5449,-3.5474,-3.5493,-3.5565,-3.6334,-3.7161,-3.8027,-3.8892,-3.9738,-4.0489,-4.0489,-4.0489,-4.0739,-2.5505,-2.5543,-2.5596,0.0,-2.5684,-2.5703,0.0,0.0,0.0,0.0,-2.873,-2.9449,-2.9924,-2.9966,-2.9648,-2.8874,-2.8805,0.0,0.0,0.0,0.0,-2.7014,-2.8775,-2.8909,-2.6995,-2.8179,0.0,-2.789,0.0,0.0,-2.6601,0.0,0.0,0.0,0.0,0.0,-2.4937,-2.4842,-2.4716,-2.4559,-2.4528,-2.4521,-2.469,0.0,-2.5931,-2.6173,-2.8018,-2.882,-2.9031,-2.9214,-2.9395,-2.9533,-2.9588,-2.9661,-2.9748,-2.9939,-3.0214,-3.0571,-3.12,-3.2122,-3.2821,-3.2551,-3.3632,-3.4386,0.0,0.0,0.0,0.0,0.0,0.0,0.0,0.0,0.0,0.0,0.0,0.0,0.0,0.0,0.0,-2.8717,0.0,0.0,0.0,-2.9084,-2.8332,-2.6864,-2.7343,0.0,0.0,0.0,-2.824,-2.803,-2.8716,-2.92,-2.9392,-2.9887,-3.0184,-3.0357,-3.1469,-3.2122,-3.2372,-3.3622,-3.4314,-3.4564,-3.5218,-3.5493,-3.5526,-3.5718,-3.6295,-3.7123,-3.7988,-3.9219,-4.0489,-4.0489,-4.0489,-4.0739,-2.5495,0.0,0.0,-2.615,0.0,0.0,-2.6269,0.0,0.0,-2.8184,-2.9062,0.0,-3.0075,-3.0421,-3.0366,-2.9748,-2.9717,0.0,-2.9063,0.0,0.0,-2.839,-2.9325,-2.9382,-2.8332,-2.8486,0.0,-2.8986,0.0,0.0,-2.7206,0.0,0.0,0.0,0.0,-2.5179,0.0,-2.5068,-2.5171,-2.5381,-2.4917,-2.4648,0.0,-2.5895,-2.6362,-2.6609,-2.8593,-2.9173,-2.9064,-2.9401,-2.9607,-2.9713,-2.9796,-2.9829,-2.9877,-3.0109,-3.0163,-3.0305,-3.0963,-3.2006,-3.2891,-3.2891,-3.4218,-3.5238,-3.4257,-3.4507,-3.4757,0.0,-3.3814,-3.3583,0.0,0.0,0.0,0.0,0.0,0.0,0.0,0.0,0.0,0.0,-2.9429,0.0,0.0,-2.8775,-2.8179,-2.7236,-2.7274,0.0,0.0,0.0,-2.8431,-2.8109,-2.9135,-2.9551,-2.9243,-2.9889,-3.0105,-2.9877,-3.0739,-3.1333,-3.1737,-3.3045,-3.3833,-3.4237,-3.5122,-3.5493,-3.5493,-3.5493,-3.6199,-3.7392,-3.8623,-3.9662,-4.0489,-4.0489,-4.0489,-4.0739,0.0,0.0,0.0,0.0,0.0,0.0,0.0,-2.7323,0.0,-2.8379,0.0,-2.9782,-2.9825,-3.0398,-3.0756,-3.0679,0.0,-3.0633,-3.0524,-3.0563,-3.0543,-3.0447,-2.965,-2.9524,-3.0171,-2.8698,-2.8698,0.0,0.0,0.0,0.0,0.0,0.0,0.0,0.0,0.0,0.0,-2.5437,-2.5841,-2.632,-2.5382,-2.5056,-2.5285,-2.6711,-2.7327,-2.7611,-2.9215,-2.9326,-2.8799,-2.95,-2.9765,-2.9832,-3.0003,-3.0042,-3.0089,-3.0323,-3.0398,-3.0398,-3.0398,-3.1621,-3.2891,-3.2891,-3.4218,-3.5493,-3.5493,-3.4911,-3.4584,-3.5353,-3.4295,-3.368,0.0,0.0,0.0,0.0,0.0,0.0,0.0,0.0,0.0,0.0,0.0,0.0,0.0,0.0,0.0,0.0,0.0,0.0,0.0,0.0,-2.8651,-2.8372,-2.9734,-3.0095,-2.9307,-3.0283,-3.0503,-2.9969,-3.0259,-3.0814,-3.1564,-3.2487,-3.3314,-3.4083,-3.5064,-3.5493,-3.5526,-3.5622,-3.6661,-3.8334,-3.9892,-4.0489,-4.0489,-4.0489,-4.0489,-4.0719,0.0,0.0,0.0,0.0,0.0,-2.8303,-2.8962,-2.9117,-2.9199,-2.9355,-3.0137,-3.0897,-3.1491,-3.1689,-3.1734,-3.1657,-3.166,0.0,0.0,0.0,0.0,-2.9634,-2.9408,-2.904,-2.853,-2.8214,-2.853,0.0,0.0,0.0,0.0,0.0,0.0,0.0,0.0,0.0,-2.5447,-2.6101,0.0,-2.5256,-2.508,-2.5323,-2.5939,-2.7086,-2.7927,-2.866,-2.9851,-3.0041,-2.9764,-2.9897,-3.0095,-3.0286,-3.0311,-3.0323,-3.0343,-3.0398,-3.0398,-3.0398,-3.0398,-3.1621,-3.2891,-3.2891,-3.4218,-3.5493,-3.5493,-3.5391,-3.5334,-3.5468,-3.5257,-3.493,-3.4507,0.0,0.0,0.0,0.0,0.0,0.0,0.0,0.0,0.0,0.0,-3.1141,0.0,0.0,0.0,0.0,0.0,0.0,0.0,0.0,-2.907,0.0,-2.9805,0.0,0.0,0.0,-3.0557,-3.1341,-3.0701,-3.0475,-3.0679,-3.2218,-3.2987,-3.3218,-3.4814,-3.5493,-3.5551,-3.6219,-3.7507,-3.9161,-4.0123,-4.0489,-4.0489,-4.0489,-4.0489,-4.0642,0.0,0.0,0.0,0.0,0.0,0.0,0.0,-2.9814,0.0,-2.9491,-2.9809,-3.0216,-3.0566,-3.096,-3.1211,-3.1187,-3.117,-3.1008,-3.0625,-3.063,-3.0518,-3.0186,-2.9249,0.0,-2.8827,-2.7452,-2.7597,-2.9295,0.0,0.0,0.0,0.0,0.0,0.0,0.0,-2.5945,0.0,0.0,0.0,-2.588,-2.5921,-2.6136,-2.6555,-2.7929,-2.8663,-2.9135,-3.0059,-3.0311,-3.0209,-3.0209,-3.0299,-3.0398,-3.0398,-3.0398,-3.0398,-3.0398,-3.0398,-3.0398,-3.0398,-3.1333,-3.2275,-3.2275,-3.3218,-3.4276,-3.4718,-3.4834,-3.4949,-3.5411,-3.5493,-3.5238,-3.4353,-3.3487,0.0,0.0,0.0,0.0,0.0,0.0,0.0,0.0,0.0,0.0,0.0,0.0,0.0,0.0,0.0,0.0,0.0,0.0,-2.9289,0.0,0.0,0.0,-3.1149,0.0,-3.1183,-3.2144,-3.0957,-3.0871,-3.1718,-3.2526,-3.3141,-3.3641,-3.4949,-3.5493,-3.5565,-3.6372,-3.7469,-3.87,-3.9546,-4.0123,-4.0489,-4.0489,-4.0777,-4.1239,0.0,-2.9113,0.0,0.0,-2.9855,0.0,-2.9579,-3.0134,-3.0334,-2.9664,-2.9581,-2.966,-2.9835,-3.0248,-3.0595,-3.0777,-3.0643,-3.0562,-3.0613,-3.0701,-3.0703,-3.0625,-2.9082,-2.8457,-2.8965,-2.6713,-2.6615,0.0,0.0,0.0,0.0,0.0,0.0,0.0,0.0,0.0,0.0,0.0,-2.6266,-2.6737,-2.6783,-2.6908,-2.7237,-2.8666,-2.9319,-2.9563,-3.0179,-3.0398,-3.0398,-3.0398,-3.0398,-3.0398,-3.0398,-3.0398,-3.0398,-3.0398,-3.0398,-3.0398,-3.0398,-3.1044,-3.1737,-3.191,-3.2564,-3.3391,-3.4276,-3.4468,-3.4661,-3.5372,-3.5493,-3.5238,-3.4353,-3.3641,0.0,0.0,0.0,0.0,0.0,0.0,0.0,0.0,0.0,0.0,-3.1448,0.0,0.0,0.0,0.0,0.0,-2.9063,0.0,0.0,0.0,0.0,-3.1127,-3.1151,0.0,-3.1718,-3.2393,-3.1232,-3.1371,-3.2641,-3.2814,-3.3372,-3.4237,-3.5122,-3.5699,-3.6084,-3.6719,-3.7584,-3.8604,-3.9277,-3.9931,-4.0489,-4.0489,-4.0931,-4.1527,0.0,0.0,0.0,0.0,0.0,0.0,-3.0406,-3.046,-3.0498,-3.0483,-3.0483,-3.0775,-3.157,-3.101,-3.0904,-3.1699,-3.1097,-3.0683,-3.0684,-3.081,-3.0527,-2.9766,-2.8809,-2.7969,-2.7246,-2.6211,-2.619,0.0,0.0,-2.7342,0.0,0.0,0.0,0.0,0.0,0.0,0.0,-2.792,-2.7437,-2.6782,-2.6806,-2.7279,-2.8071,-2.8883,-2.9699,-3.039,-3.0379,-3.0398,-3.0398,-3.0398,-3.0398,-3.0398,-3.0398,-3.0398,-3.0398,-3.0398,-3.0398,-3.0398,-3.0398,-3.1044,-3.1891,-3.2602,-3.343,-3.4314,-3.518,-3.5391,-3.5411,-3.5474,-3.5493,-3.5238,-3.4353,-3.4122,-3.3814,0.0,0.0,0.0,0.0,0.0,-3.3141,-3.3096,0.0,0.0,0.0,-3.0359,0.0,0.0,-2.8794,0.0,0.0,0.0,0.0,-3.0348,-3.0432,-3.0854,-3.1629,-3.1642,-3.1693,-3.177,-3.1628,-3.166,-3.1833,-3.2564,-3.3372,-3.4237,-3.5122,-3.6372,-3.7777,-3.7853,-3.8815,-4.0258,-4.0354,-4.0431,-4.0489,-4.0489,-4.0546,-4.0623,0.0,0.0,0.0,0.0,0.0,0.0,0.0,-3.0448,-3.0448,-3.0487,-3.0025,-3.0044,-3.096,-3.0249,-3.0076,-3.103,-3.0794,-3.0602,-3.0679,-3.0296,-2.9913,-2.9609,-2.8262,-2.7363,-2.7012,-2.6152,-2.6133,0.0,0.0,0.0,0.0,0.0,0.0,0.0,0.0,-2.8279,-2.8857,-2.8357,-2.7662,-2.6951,-2.8041,-2.8355,-2.8307,-2.9569,-3.0227,-3.0487,-3.0417,-3.0398,-3.0398,-3.0398,-3.0398,-3.0398,-3.0398,-3.0398,-3.0398,-3.0398,-3.0398,-3.0398,-3.0398,-3.0648,-3.1006,-3.1333,-3.166,-3.216,-3.3026,-3.3603,-3.4083,-3.4603,-3.4718,-3.4776,-3.4949,-3.4193,-3.3769,-3.441,0.0,0.0,0.0,0.0,0.0,-3.3102,0.0,-3.1635,0.0,0.0,0.0,0.0,0.0,0.0,0.0,0.0,0.0,-3.1184,0.0,-3.1095,-3.2536,-3.198,-3.2199,-3.3179,-3.266,-3.2968,-3.3968,-3.3776,-3.416,-3.5007,-3.5353,-3.6161,-3.7219,-3.7219,-3.8238,-3.9777,-3.9777,-4.0065,-4.0489,-4.0489,-4.0489,-4.0489,-3.0794,0.0,-3.0547,0.0,-3.0429,-3.016,-3.0359,-3.0179,-3.0025,-3.0025,-2.9275,-2.9179,-3.0352,-2.9871,-2.9775,-3.0506,-3.0546,-3.0479,-3.0371,-2.9835,-2.931,-2.8867,-2.7656,0.0,-2.6621,-2.6016,-2.5996,-2.6621,-2.6875,0.0,0.0,0.0,0.0,0.0,-2.7723,-2.8194,-2.9009,-2.8468,-2.7867,-2.7414,-2.8697,-2.8812,-2.8352,-2.9743,-3.0075,-2.9794,-2.9733,-2.9733,-2.9733,-2.9733,-2.9886,-3.011,-3.0321,-3.0398,-3.0398,-3.0398,-3.0398,-3.0398,-3.0398,-3.0398,-3.0456,-3.0717,-3.0794,-3.1006,-3.1852,-3.2487,-3.3083,-3.3718,-3.4276,-3.468,-3.4795,-3.3872,-3.3397,-3.4333,0.0,0.0,0.0,-3.3793,0.0,0.0,-3.195,-3.1398,-3.1333,-3.0756,0.0,0.0,0.0,0.0,0.0,0.0,0.0,0.0,0.0,0.0,-3.2324,-3.1934,-3.2192,-3.3083,-3.2968,-3.3545,-3.4737,-3.4622,-3.493,-3.5493,-3.5493,-3.5968,-3.6699,-3.6699,-3.7738,-3.9296,-3.9296,-3.9777,-4.0489,-4.0489,-4.0489,-4.0489,-3.1525,-3.0987,-3.0667,-3.1545,-3.0256,-2.941,-3.0275,-2.9679,-2.9121,-2.9121,-2.8409,-2.8544,-3.0206,-3.0379,-3.0429,-3.0487,-3.0571,-3.0285,-2.9552,-2.9576,-2.8828,0.0,0.0,-2.6602,-2.5723,-2.5703,-2.5703,-2.5723,0.0,0.0,-2.7031,0.0,-2.7793,-2.6992,-2.8769,-2.907,-2.8233,-2.8278,-2.8281,-2.8281,-2.8301,-2.8264,-2.8309,-2.9179,-2.8937,-2.8121,-2.8123,-2.8138,-2.8138,-2.8138,-2.866,-2.9433,-3.0167,-3.0398,-3.0398,-3.0398,-3.0398,-3.0398,-3.0398,-3.0398,-3.0609,-3.1468,-3.1679,-3.191,-3.2699,-3.2891,-3.2929,-3.3,-3.4436,-3.518,-3.3539,-3.3167,-3.2813,-3.1979,0.0,0.0,0.0,-3.2107,0.0,-3.1932,-3.1149,-3.0564,-3.0417,-3.0398,0.0,0.0,0.0,0.0,0.0,0.0,0.0,-3.0487,-3.056,0.0,-3.0525,-3.1376,-3.1338,-3.0456,-3.2122,-3.291,-3.2987,-3.4699,-3.5474,-3.5493,-3.5493,-3.5968,-3.6699,-3.6699,-3.7738,-3.9296,-3.9296,-3.9777,-4.0489,-4.0489,-4.0489,-4.0489,-2.9044,-2.9333,-2.9429,-2.9159,-2.9102,-2.9006,-2.8736,-2.8467,-2.8275,-2.8275,-2.8063,-2.8102,-2.864,-2.8206,-2.8368,0.0,-2.9261,-2.914,0.0,-2.8489,-2.7578,-2.7012,-2.6426,-2.5977,-2.5703,-2.5703,-2.5703,-2.5703,0.0,0.0,0.0,-2.7285,-2.7246,-2.6992,-2.7578,-2.7982,-2.8271,-2.8296,-2.7969,-2.7461,-2.8066,-2.7905,-2.741,-2.8285,-2.8405,-2.8097,-2.8102,-2.8094,-2.8171,-2.8729,-2.9098,-2.9435,-3.0257,-3.0501,-3.0467,-3.0467,-3.0448,-3.0398,-3.0467,-3.0467,-3.0544,-3.0871,-3.0948,-3.1025,-3.1275,-3.1788,-3.2386,-3.3015,-3.313,-3.3093,-3.3064,-3.2632,-3.237,-3.264,-3.2733,0.0,-3.1981,0.0,-3.1738,-3.1033,-3.0698,-3.0506,-3.0398,-3.0398,0.0,0.0,0.0,0.0,0.0,0.0,0.0,0.0,-3.0912,0.0,-3.1515,-3.1718,-3.1657,-3.1376,-3.2403,-3.3218,-3.3833,-3.4988,-3.5493,-3.5493,-3.5493,-3.5968,-3.6699,-3.6699,-3.7738,-3.9296,-3.9296,-3.9777,-4.0489,-4.0489,-4.0489,-4.0489,-2.789,-2.8294,-2.8486,-2.7986,-2.8044,-2.8102,-2.7928,-2.7621,-2.7409,-2.7409,-2.7409,-2.7294,-2.6967,-2.6495,0.0,-2.8714,-2.8415,-2.8267,-2.8574,-2.7578,-2.6836,-2.6523,-2.5996,-2.5703,-2.5703,-2.5703,0.0,-2.5703,-2.625,-2.6504,-2.6504,-2.6504,-2.6504,-2.6523,-2.6855,-2.7129,-2.7344,-2.7676,-2.75,-2.7051,-2.7598,-2.7441,-2.6952,-2.7537,-2.7505,-2.7154,-2.7186,-2.741,-2.7714,-2.7896,-2.8604,-2.9446,-2.966,-3.011,-3.0569,-3.054,-3.0487,-3.0448,-3.0525,-3.0525,-3.051,-3.0578,-3.0608,-3.0608,-3.0608,-3.13,-3.1992,-3.2212,-3.237,-3.2415,-3.2235,-3.2046,-3.1965,-3.2134,-3.2177,-3.1995,-3.1443,0.0,-3.1176,0.0,0.0,0.0,0.0,-3.0398,-3.0398,0.0,0.0,0.0,0.0,0.0,-2.9921,-3.1364,-3.0969,-3.0975,-3.1504,-3.1437,-3.1357,-3.1318,-3.2403,-3.3353,-3.4218,-3.5103,-3.5493,-3.5493,-3.5493,-3.5795,-3.6257,-3.6257,-3.7065,-3.8315,-3.8315,-3.9027,-4.0046,-4.0046,-4.0239,-4.0489,-2.7717,-2.7775,-2.7794,0.0,-2.7101,0.0,-2.7601,-2.7024,-2.6505,-2.6524,-2.6505,-2.6197,-2.538,-2.537,-2.6053,-2.7675,0.0,0.0,0.0,-2.6836,-2.6484,-2.5723,-2.5703,-2.5703,-2.5703,-2.5703,-2.5703,-2.5703,-2.5703,-2.5703,-2.5703,-2.5703,-2.5703,-2.5742,-2.6543,-2.6465,-2.5742,-2.6562,-2.6914,-2.6893,-2.6893,-2.6854,-2.6816,-2.6874,-2.6353,-2.5614,-2.5664,-2.6211,-2.6796,-2.6041,-2.7404,-2.9288,-2.8543,-2.9327,-3.0529,-3.0588,-3.0552,-3.051,-3.0583,-3.0564,-3.0527,-3.0594,-3.0617,-3.0611,-3.0613,-3.1283,-3.1688,-3.0871,-3.2046,-3.2734,-3.1172,-3.1403,-3.1538,-3.0729,-3.0544,-3.0506,-3.0487,-3.0544,-3.0564,0.0,0.0,0.0,-3.0398,-3.0398,-3.0398,0.0,0.0,0.0,0.0,0.0,-2.9815,-3.058,-3.0786,-3.082,-3.0722,-3.07,-3.0625,-3.0506,-3.2122,-3.3314,-3.4141,-3.5064,-3.5493,-3.5493,-3.5493,-3.5493,-3.5493,-3.5493,-3.5968,-3.6699,-3.6699,-3.7777,-3.9296,-3.9296,-3.9796,-4.0489,0.0,0.0,-2.6697,-2.6043,-2.6294,-2.6447,-2.5986,-2.5726,-2.564,-2.5678,-2.564,-2.5553,-2.539,-2.5341,-2.5495,-2.5909,-2.6024,-2.6301,-2.6788,-2.6259,-2.582,-2.5625,-2.5664,-2.5703,-2.5703,-2.5703,-2.5703,-2.5703,-2.5703,-2.5703,-2.5703,-2.5703,-2.5703,-2.5703,-2.5918,-2.5898,-2.5703,-2.5918,-2.5983,-2.5929,-2.5929,-2.5892,-2.5823,-2.5843,-2.5756,-2.5607,-2.5623,-2.5781,-2.6074,-2.6538,-2.7102,-2.7707,-2.8157,-2.8567,-2.9113,-3.0331,-3.0638,-3.0587,-3.067,-3.066,-3.0684,-3.0807,-3.0832,-3.081,-3.0703,-3.0852,-3.0945,-3.0743,-3.1049,-3.1211,-3.082,-3.0871,-3.0882,-3.0574,-3.0506,-3.0487,-3.0417,-3.0448,-3.0448,0.0,-3.0417,-3.0417,-3.0398,-3.0398,-3.0398,0.0,0.0,-3.0398,-3.0398,-3.0294,-3.0356,-3.06,-3.0708,-3.0774,-3.0852,-3.0704,-3.0557,-3.0436,-3.2102,-3.3006,-3.3256,-3.4795,-3.5493,-3.5493,-3.5493,-3.5493,-3.5493,-3.5493,-3.5968,-3.6699,-3.6699,-3.7777,-3.9296,-3.9296,-3.9796,-4.0489,-2.5303,-2.5668,-2.587,-2.538,-2.5687,-2.5851,-2.536,-2.5303,-2.5303,-2.5341,-2.5322,-2.5303,-2.5341,-2.5322,-2.5303,-2.5303,-2.537,-2.562,-2.614,-2.5784,-2.5564,-2.5605,-2.5664,-2.5703,-2.5703,-2.5703,-2.5703,-2.5703,-2.5703,-2.5703,-2.5703,-2.5703,-2.5703,-2.5703,-2.5703,-2.5703,-2.5703,-2.5662,-2.5628,-2.5601,-2.5563,-2.553,-2.5498,-2.5536,-2.5576,-2.5593,-2.564,-2.5937,-2.6309,-2.6387,-2.6934,-2.7617,-2.7676,-2.7988,-2.8476,-2.9355,-2.9835,-3.0204,-3.0665,-3.0737,-3.0646,-3.0376,-3.0605,-3.0776,-3.0311,-3.0452,-3.0692,-3.0704,-3.0701,-3.0703,-3.0703,-3.0703,-3.0669,-3.056,-3.0518,-3.0487,-3.0398,-3.0398,-3.0398,-3.0398,-3.0398,-3.0398,-3.0398,-3.0398,-3.0398,-3.0398,-3.0398,0.0,-3.0398,-3.0417,-3.0497,-3.0546,-3.0624,-3.0696,-3.0761,-3.0622,-3.0521,-3.0467,-3.2102,-3.2891,-3.2968,-3.4718,-3.5493,-3.5493,-3.5493,-3.5493,-3.5493,-3.5493,-3.5757,-3.6161,-3.6161,-3.7199,-3.8661,-3.8257,-3.8892,-3.995,-2.5303,-2.5303,-2.5303,-2.5303,-2.5303,-2.5303,-2.5303,-2.5303,-2.5303,-2.5303,-2.5303,-2.5303,-2.5303,-2.5322,-2.5322,-2.5322,-2.5322,-2.5341,-2.5409,-2.5466,-2.5541,-2.5593,-2.5663,-2.5703,-2.5703,-2.5703,-2.5703,-2.5703,-2.5703,-2.5703,-2.5703,-2.5703,-2.5703,-2.5703,-2.5703,-2.5703,-2.5702,-2.564,-2.5601,-2.5582,-2.5524,-2.5505,-2.5505,-2.5563,-2.5582,-2.56,-2.5652,-2.6169,-2.6699,-2.5957,-2.668,-2.7773,-2.7026,-2.7297,-2.7923,-2.8044,-2.8554,-2.9309,-3.0253,-3.052,-3.0419,-2.9912,-3.0351,-3.0703,-2.9941,-3.0242,-3.0678,-3.0671,-3.0678,-3.0675,-3.068,-3.0681,-3.0667,-3.0594,-3.054,-3.0487,-3.0398,0.0,-3.0398,-3.0398,-3.0398,-3.0398,-3.0398,-3.0398,-3.0398,-3.0398,-3.0398,-3.0398,-3.0398,-3.0398,-3.0417,-3.0487,-3.0554,-3.0587,-3.0587,-3.053,-3.0487,-3.0506,-3.2006,-3.2718,-3.2776,-3.4391,-3.5122,-3.5122,-3.5122,-3.5122,-3.5122,-3.5257,-3.5315,-3.5334,-3.5449,-3.6449,-3.7719,-3.6969,-3.7719,-3.9104,-2.5303,-2.5303,-2.5303,-2.5303,-2.5303,-2.5303,-2.5303,-2.5303,-2.5322,-2.539,-2.5341,-2.5322,-2.539,-2.539,-2.539,-2.539,-2.5447,-2.5447,-2.5409,-2.5524,-2.5601,-2.5595,-2.5668,-2.5703,-2.5703,-2.5703,-2.5703,-2.5703,-2.5703,-2.5703,-2.5703,-2.5703,-2.5703,-2.5703,-2.5703,-2.5703,-2.5702,-2.564,-2.5601,-2.5582,-2.5524,-2.5505,-2.5505,-2.5505,-2.5543,-2.5592,-2.5616,-2.5751,-2.5879,-2.5742,-2.5879,-2.607,-2.5881,-2.5912,-2.6146,-2.6822,-2.7151,-2.7519,-2.8449,-2.9226,-2.9913,-3.0547,-3.0801,-3.082,-3.0586,-3.0563,-3.0614,-3.0621,-3.0574,-3.0548,-3.0617,-3.0619,-3.0587,-3.0519,-3.051,-3.0487,-3.0398,0.0,-3.0398,-3.0398,-3.0398,-3.0398,-3.0398,-3.0398,-3.0398,-3.0398,-3.0398,-3.0398,-3.0398,-3.0398,-3.0398,-3.0417,-3.0475,-3.0516,-3.0516,-3.051,-3.0467,-3.0417,-3.1429,-3.1891,-3.1929,-3.2872,-3.3295,-3.3295,-3.3295,-3.3295,-3.3353,-3.4103,-3.4391,-3.4468,-3.5218,-3.6084,-3.6892,-3.6757,-3.7334,-3.82,-2.5303,-2.5303,-2.5303,-2.5303,-2.5303,-2.5303,-2.5303,-2.5303,-2.5303,-2.5341,-2.5322,-2.5303,-2.5341,-2.539,-2.5409,-2.5409,-2.5486,-2.5543,-2.5505,-2.5563,-2.5601,-2.5601,-2.5652,-2.5703,-2.5703,-2.5703,-2.5703,-2.5703,-2.5703,-2.5703,-2.5703,-2.5703,-2.5703,-2.5703,-2.5703,-2.5703,-2.5703,-2.5619,-2.5602,-2.5592,-2.553,-2.5498,-2.5503,-2.5542,-2.5563,-2.5601,-2.5646,-2.5676,-2.5703,-2.5703,-2.5703,-2.5698,-2.5615,-2.5601,-2.5669,-2.5994,-2.6813,-2.7812,-2.875,-2.9297,-2.9707,-3.0098,-3.0195,-3.0056,-2.9479,-2.9633,-2.9887,-2.986,-3.0198,-3.0502,-3.054,-3.0577,-3.0598,-3.0568,-3.0544,-3.0544,-3.0506,-3.0487,-3.0448,-3.0448,-3.0417,-3.0398,-3.0398,-3.0398,-3.0398,-3.0398,-3.0398,-3.0398,-3.0398,-3.0398,-3.0398,-3.0398,-3.0417,-3.0448,-3.0448,-3.0448,-3.0417,-3.0398,-3.1275,-3.1698,-3.1737,-3.2526,-3.2891,-3.2891,-3.2891,-3.316,-3.3622,-3.4026,-3.4468,-3.4949,-3.5353,-3.5988,-3.6661,-3.6219,-3.6584,-3.7296,-2.5303,-2.5303,-2.5303,-2.5303,-2.5303,-2.5303,-2.5303,-2.5303,-2.5303,-2.5303,-2.5303,-2.5303,-2.5303,-2.537,-2.5409,-2.5415,-2.5543,-2.562,-2.562,-2.5614,-2.5631,-2.5631,-2.5673,-2.5703,-2.5703,-2.5703,-2.5703,-2.5703,-2.5703,-2.5703,-2.5703,-2.5703,-2.5703,-2.5703,-2.5703,-2.5703,-2.5703,-2.5625,-2.5609,-2.5611,-2.5557,-2.5522,-2.5539,-2.5602,-2.5631,-2.5628,-2.5689,-2.5703,-2.5703,-2.5703,-2.5703,-2.5698,-2.5615,-2.5601,-2.5582,-2.5505,-2.6473,-2.779,-2.873,-2.9141,-2.9297,-2.9297,-2.9453,-2.9408,-2.8696,-2.8953,-2.9385,-2.9503,-3.0044,-3.0506,-3.0487,-3.0525,-3.0564,-3.0564,0.0,-3.0575,-3.0582,-3.0535,-3.0494,-3.0487,-3.0417,-3.0398,-3.0398,-3.0398,-3.0398,-3.0398,-3.0398,-3.0398,-3.0398,-3.0398,-3.0398,-3.0398,-3.0398,-3.0398,-3.0398,-3.0398,-3.0398,-3.0398,-3.1083,-3.141,-3.1429,-3.2045,-3.2314,-3.2314,-3.2314,-3.2699,-3.3353,-3.3737,-3.4295,-3.4949,-3.5353,-3.5892,-3.6353,-3.5738,-3.5892,-3.643,-2.5303,-2.5303,-2.5303,-2.5303,-2.5303,-2.5303,-2.5303,-2.5303,-2.5303,-2.5303,-2.5303,-2.5303,-2.5303,-2.5428,-2.5481,-2.5482,-2.5619,-2.5688,-2.5688,-2.5691,-2.5681,-2.5681,-2.5703,-2.5703,-2.5703,-2.5703,-2.5703,-2.5703,-2.5703,-2.5703,-2.5703,-2.5703,-2.5703,-2.5703,-2.5703,-2.5703,-2.5703,-2.5625,-2.5644,-2.5697,-2.5614,-2.5626,-2.5683,-2.5682,-2.5681,-2.5682,-2.5703,-2.5703,-2.5703,-2.5703,-2.5703,-2.5698,-2.5615,-2.5601,-2.5563,-2.5447,-2.5549,-2.5917,-2.6912,-2.7773,-2.8398,-2.8398,-2.9004,-2.957,-2.9511,-2.9488,-2.967,-3.0356,-3.0506,-3.0487,-3.0417,-3.0398,-3.0448,-3.0506,0.0,0.0,-3.0516,-3.0494,-3.0481,-3.0402,-3.0398,-3.0398,-3.0398,-3.0398,-3.0398,-3.0398,-3.0398,-3.0398,-3.0398,-3.0398,-3.0398,-3.0398,-3.0398,-3.0398,-3.0398,-3.0398,-3.0398,-3.0398,-3.0456,-3.0494,-3.0494,-3.0552,-3.0571,-3.0571,-3.0571,-3.0609,-3.0814,-3.2352,-3.3026,-3.3256,-3.4872,-3.5545,-3.557,-3.5512,-3.5545,-3.5603,-2.5303,-2.5303,-2.5303,-2.5303,-2.5303,-2.5303,-2.5303,-2.5303,-2.5303,-2.5303,-2.5303,-2.5322,-2.537,-2.5447,-2.5524,-2.5561,-2.5643,-2.5707,-2.5707,-2.5696,-2.5703,-2.5703,-2.5703,-2.5703,-2.5703,-2.5703,-2.5703,-2.5703,-2.5703,-2.5703,-2.5703,-2.5703,-2.5703,-2.5703,-2.5703,-2.5703,-2.5703,-2.5664,-2.5684,-2.5703,-2.5673,-2.5683,-2.5703,-2.5703,-2.5703,-2.5703,-2.5703,-2.5703,-2.5703,-2.5703,-2.5703,-2.5683,-2.5629,-2.5593,-2.5572,-2.5495,-2.5474,-2.5596,-2.6026,-2.6797,-2.7617,-2.8164,-2.8144,-2.7988,-2.7949,-2.8327,-2.8758,-2.9006,-2.9864,-3.0544,-3.0467,-3.0467,-3.0467,-3.0506,0.0,-3.0498,-3.0561,-3.0537,-3.0488,-3.0467,-3.0417,-3.0398,-3.0398,-3.0398,-3.0398,-3.0398,-3.0398,-3.0398,-3.0398,-3.0398,-3.0398,-3.0398,-3.0398,-3.0398,-3.0398,-3.0398,-3.0398,-3.0398,-3.0398,-3.0398,-3.0398,-3.0398,-3.0398,-3.0398,-3.0398,-3.0717,-3.1295,-3.2429,-3.2891,-3.3064,-3.4834,-3.518,-3.4757,-3.5315,-3.5493,-3.5493,-2.5303,-2.5303,-2.5303,-2.5303,-2.5303,-2.5303,-2.5303,-2.5303,-2.5303,-2.5303,-2.5303,-2.5322,-2.539,-2.5455,-2.553,-2.5592,-2.5664,-2.5703,-2.5703,-2.5703,-2.5703,-2.5703,-2.5703,-2.5703,-2.5703,-2.5703,-2.5703,-2.5703,-2.5703,-2.5703,-2.5703,-2.5703,-2.5703,-2.5703,-2.5703,-2.5703,-2.5703,-2.5703,-2.5703,-2.5703,-2.5703,-2.5703,-2.5703,-2.5703,-2.5703,-2.5703,-2.5703,-2.5703,-2.5703,-2.5703,-2.5703,-2.5684,-2.5644,-2.5593,-2.557,-2.5542,-2.5524,-2.5502,-2.5589,-2.6083,-2.6738,-2.7324,-2.7246,-2.6992,-2.6934,-2.7617,-2.8299,-2.8505,-2.9666,-3.0604,-3.0519,-3.0502,-3.0506,-3.0506,-3.05,-3.0518,-3.0568,-3.053,-3.0487,-3.0467,-3.0417,-3.0398,-3.0398,-3.0398,-3.0398,-3.0398,-3.0398,-3.0398,-3.0398,-3.0398,-3.0398,-3.0398,-3.0398,-3.0398,-3.0398,-3.0398,-3.0398,-3.0398,-3.0398,-3.0398,-3.0398,-3.0398,-3.0398,-3.0398,-3.0398,-3.0737,-3.1371,-3.2179,-3.2526,-3.2699,-3.443,-3.4737,-3.4314,-3.518,-3.5493,-3.5493,-2.5303,-2.5303,-2.5303,-2.5303,-2.5303,-2.5303,-2.5303,-2.5303,-2.5303,-2.5303,-2.5303,-2.5322,-2.539,-2.5453,-2.5531,-2.5592,-2.5664,-2.5703,-2.5703,-2.5703,-2.5703,-2.5703,-2.5703,-2.5703,-2.5703,-2.5703,-2.5703,-2.5703,-2.5703,-2.5703,-2.5703,-2.5703,-2.5703,-2.5703,-2.5703,-2.5703,-2.5703,-2.5703,-2.5703,-2.5703,-2.5703,-2.5703,-2.5703,-2.5703,-2.5703,-2.5703,-2.5703,-2.5703,-2.5703,-2.5703,-2.5703,-2.5703,-2.5703,-2.5605,-2.5502,-2.558,-2.5543,-2.5505,-2.5582,-2.5659,-2.5703,-2.5703,-2.6348,-2.6992,-2.6992,-2.7676,-2.8535,-2.9336,-3.0137,-3.0653,-3.0522,-3.0501,-3.0506,-3.0506,-3.0506,-3.0506,-3.0506,-3.0506,-3.0467,-3.0398,-3.0398,-3.0398,-3.0398,-3.0398,-3.0398,-3.0398,-3.0398,-3.0398,-3.0398,-3.0398,-3.0398,-3.0398,-3.0398,-3.0398,-3.0398,-3.0398,-3.0398,-3.0398,-3.0398,-3.0398,-3.0398,-3.0398,-3.0398,-3.0398,-3.0398,-3.0398,-3.0456,-3.1352,-3.1698,-3.1852,-3.3545,-3.418,-3.4295,-3.518,-3.5474,-3.5493,-2.5303,-2.5303,-2.5303,-2.5303,-2.5303,-2.5303,-2.5303,-2.5303,-2.5303,-2.5303,-2.5303,-2.5341,-2.5466,-2.5492,-2.555,-2.5665,-2.5698,-2.5703,-2.5703,-2.5703,-2.5703,-2.5703,-2.5703,-2.5703,-2.5703,-2.5703,-2.5703,-2.5703,-2.5703,-2.5703,-2.5703,-2.5703,-2.5703,-2.5703,-2.5703,-2.5703,-2.5703,-2.5703,-2.5703,-2.5703,-2.5703,-2.5703,-2.5703,-2.5703,-2.5703,-2.5703,-2.5703,-2.5703,-2.5703,-2.5703,-2.5703,-2.5703,-2.5703,-2.5605,-2.5502,-2.558,-2.5545,-2.5511,-2.5572,-2.5659,-2.5703,-2.5703,-2.5898,-2.625,-2.6855,-2.7676,-2.8535,-2.9394,-3.0165,-3.0665,-3.0587,-3.054,-3.0487,-3.0448,-3.0417,-3.0417,-3.0417,-3.0417,-3.0417,-3.0398,-3.0398,-3.0398,-3.0398,-3.0999,-3.1133,-3.0525,-3.0506,-3.0544,-3.0544,-3.0544,-3.0544,-3.0544,-3.0544,-3.0544,-3.0544,-3.0487,-3.0467,-3.0467,-3.0467,-3.0467,-3.0467,-3.0417,-3.0398,-3.0398,-3.0398,-3.0398,-3.0456,-3.1352,-3.1352,-3.0948,-3.2622,-3.3295,-3.3391,-3.4276,-3.4968,-3.5493,-2.5303,-2.5303,-2.5303,-2.5303,-2.5303,-2.5303,-2.5303,-2.5303,-2.5303,-2.5303,-2.5303,-2.5341,-2.5486,-2.5492,-2.5554,-2.5683,-2.5703,-2.5703,-2.5703,-2.5703,-2.5703,-2.5703,-2.5679,-2.5673,-2.5703,-2.5703,-2.5703,-2.5703,-2.5703,-2.5703,-2.5703,-2.5703,-2.5703,-2.5703,-2.5703,-2.5703,-2.5703,-2.5703,-2.5703,-2.5703,-2.5703,-2.5703,-2.5703,-2.5703,-2.5703,-2.5703,-2.5703,-2.5703,-2.5703,-2.5703,-2.5703,-2.5702,-2.5665,-2.5589,-2.5502,-2.5541,-2.5534,-2.5521,-2.5571,-2.5659,-2.5703,-2.5703,-2.5703,-2.584,-2.6367,-2.7422,-2.8457,-2.8984,-2.9959,-3.0678,-3.0604,-3.0549,-3.0487,-3.0398,-3.0398,-3.0398,-3.0398,-3.0398,-3.0398,-3.0398,-3.0398,-3.0544,-3.0922,-3.1472,-3.1742,-3.1574,-3.1622,-3.1642,-3.1642,-3.1303,-3.111,-3.111,-3.0772,-3.0598,-3.0598,-3.0582,-3.0563,-3.053,-3.053,-3.0539,-3.0506,-3.0467,-3.0417,-3.0398,-3.0398,-3.0398,-3.0436,-3.0968,-3.0891,-3.0533,-3.191,-3.2429,-3.2564,-3.3757,-3.4526,-3.5045,-2.5303,-2.5303,-2.5303,-2.5303,-2.5303,-2.5303,-2.5303,-2.5303,-2.5303,-2.5303,-2.5303,-2.5341,-2.5486,-2.5492,-2.5554,-2.5683,-2.5703,-2.5703,-2.5703,-2.5703,-2.5703,-2.5681,-2.5622,-2.564,-2.568,-2.5683,-2.5684,-2.5684,-2.5703,-2.5703,-2.5703,-2.5703,-2.5703,-2.5703,-2.5703,-2.5703,-2.5703,-2.5703,-2.5703,-2.5703,-2.5703,-2.5703,-2.5703,-2.5703,-2.5703,-2.5703,-2.5703,-2.5703,-2.5703,-2.5703,-2.5703,-2.5698,-2.564,-2.5568,-2.5504,-2.5513,-2.5499,-2.551,-2.5584,-2.5658,-2.5703,-2.5681,-2.5681,-2.5739,-2.5894,-2.7087,-2.824,-2.8456,-2.9557,-3.0487,-3.0564,-3.0467,-3.039,-3.0398,-3.0398,-3.0398,-3.0398,-3.0398,-3.0398,-3.0398,-3.0398,-3.0775,-3.1715,-3.1888,-3.2309,-3.3256,-3.3268,-3.3229,-3.3229,-3.2405,-3.1938,-3.1938,-3.1084,-3.0625,-3.0625,-3.0685,-3.0675,-3.0601,-3.0611,-3.0571,-3.0502,-3.0498,-3.0467,-3.0398,-3.0398,-3.0398,-3.0398,-3.0398,-3.0398,-3.0475,-3.1275,-3.1641,-3.1891,-3.341,-3.4007,-3.4199,-2.5303,-2.5303,-2.5303,-2.5303,-2.5303,-2.5303,-2.5303,-2.5303,-2.5303,-2.5303,-2.5303,-2.5341,-2.5486,-2.5492,-2.5554,-2.5683,-2.5703,-2.5703,-2.5703,-2.5703,-2.5681,-2.5611,-2.56,-2.5581,-2.5538,-2.5595,-2.5625,-2.5625,-2.5664,-2.5703,-2.5703,-2.5703,-2.5703,-2.5703,-2.5703,-2.5703,-2.5703,-2.5703,-2.5703,-2.5703,-2.5703,-2.5703,-2.5703,-2.5703,-2.5703,-2.5703,-2.5703,-2.5703,-2.5703,-2.5703,-2.5703,-2.5703,-2.5672,-2.5595,-2.5522,-2.5563,-2.5543,-2.5511,-2.558,-2.5659,-2.5697,-2.5635,-2.5615,-2.5975,-2.7343,-2.7426,-2.7755,-2.9693,-2.9292,-2.8978,-3.0275,-2.991,-2.9621,-3.0294,-3.0398,-3.0398,-3.0398,-3.0398,-3.0417,-3.0467,-3.0487,-3.0864,-3.1792,-3.2548,-3.3363,-3.4306,-3.3745,-3.3354,-3.3354,-3.2573,-3.2124,-3.2124,-3.1285,-3.0839,-3.0839,-3.0849,-3.0791,-3.0683,-3.0681,-3.0645,-3.0579,-3.0509,-3.0467,-3.0398,-3.0398,-3.0398,-3.0398,-3.0398,-3.0398,-3.0417,-3.0609,-3.1102,-3.1737,-3.2102,-3.2641,-3.3314,-2.5303,-2.5303,-2.5303,-2.5303,-2.5303,-2.5303,-2.5341,-2.5341,-2.537,-2.539,-2.5409,-2.5428,-2.5543,-2.5545,-2.559,-2.5683,-2.5703,-2.5703,-2.5703,-2.5668,-2.5641,-2.5592,-2.5543,-2.5486,-2.5447,-2.5493,-2.5545,-2.5605,-2.5644,-2.5664,-2.5703,-2.5703,-2.5703,-2.5703,-2.5703,-2.5703,-2.5703,-2.5703,-2.5703,-2.5703,-2.5703,-2.5703,-2.5703,-2.5703,-2.5703,-2.5703,-2.5703,-2.5703,-2.5702,-2.5668,-2.5654,-2.5634,-2.5576,-2.5536,-2.5505,-2.5505,-2.5524,-2.5562,-2.5593,-2.564,-2.5673,-2.5622,-2.5601,-2.5823,-2.6715,-2.6882,-2.721,-2.8531,-2.8666,-2.8844,-2.9717,-2.9794,-2.9871,-3.0321,-3.0398,-3.0398,-3.0398,-3.0417,-3.0467,-3.0506,-3.053,-3.0907,-3.1862,-3.3175,-3.4179,-3.4668,-3.4668,-3.4648,-3.4648,-3.3457,-3.2773,-3.2773,-3.155,-3.0905,-3.0905,-3.132,-3.1247,-3.071,-3.0751,-3.0728,-3.06,-3.0559,-3.0487,-3.0398,-3.0398,-3.0398,-3.0398,-3.0398,-3.0398,-3.0398,-3.0398,-3.0679,-3.1141,-3.1545,-3.2218,-3.3083,-2.5303,-2.5303,-2.5303,-2.5303,-2.5303,-2.5322,-2.537,-2.539,-2.5428,-2.5486,-2.5485,-2.5533,-2.5592,-2.5599,-2.5635,-2.5685,-2.5672,-2.5675,-2.5661,-2.5621,-2.5572,-2.5563,-2.5466,-2.539,-2.539,-2.539,-2.5432,-2.5574,-2.5584,-2.5625,-2.5684,-2.5684,-2.5703,-2.5703,-2.5703,-2.5703,-2.5703,-2.5703,-2.5703,-2.5703,-2.5703,-2.5703,-2.5703,-2.5703,-2.5703,-2.5703,-2.5703,-2.5703,-2.5681,-2.5641,-2.5618,-2.5582,-2.5486,-2.5466,-2.5486,-2.5451,-2.5513,-2.5601,-2.5601,-2.5659,-2.5675,-2.5592,-2.5582,-2.5562,-2.548,-2.6036,-2.6687,-2.7122,-2.8046,-2.8863,-2.9151,-2.964,-3.0063,-3.0179,-3.0206,-3.0263,-3.0398,-3.0487,-3.0525,-3.0525,-3.0739,-3.1183,-3.1951,-3.3645,-3.4648,-3.4492,-3.5293,-3.5703,-3.5566,-3.4043,-3.3262,-3.3398,-3.1914,-3.1191,-3.1328,-3.2024,-3.1893,-3.0922,-3.1023,-3.0891,-3.0574,-3.0577,-3.0525,-3.0398,-3.0398,-3.0398,-3.0398,-3.0398,-3.0398,-3.0398,-3.0398,-3.0398,-3.0475,-3.1218,-3.1987,-3.291,-2.5303,-2.5303,-2.5303,-2.5303,-2.5303,-2.5303,-2.5303,-2.537,-2.5409,-2.5409,-2.5464,-2.5525,-2.5592,-2.5649,-2.5678,-2.5611,-2.5605,-2.5587,-2.5526,-2.5522,-2.5492,-2.5438,-2.5409,-2.537,-2.5303,-2.5303,-2.5341,-2.5423,-2.5534,-2.5605,-2.5605,-2.5664,-2.5703,-2.5703,-2.5703,-2.5703,-2.5703,-2.5703,-2.5703,-2.5703,-2.5703,-2.5703,-2.5703,-2.5703,-2.5703,-2.5703,-2.5703,-2.5703,-2.5703,-2.5699,-2.5654,-2.5601,-2.564,-2.5582,-2.5511,-2.5567,-2.5585,-2.5601,-2.5601,-2.5659,-2.5661,-2.5541,-2.5499,-2.5476,-2.5351,-2.5467,-2.6217,-2.842,-2.7892,-2.7479,-2.892,-2.8767,-2.8632,-2.9267,-2.9406,-2.9713,-3.0467,-3.0583,-3.0602,-3.066,-3.1451,-3.2027,-3.216,-3.371,-3.4394,-3.3633,-3.4375,-3.4551,-3.3789,-3.2871,-3.2676,-3.3379,-3.2519,-3.2363,-3.3066,-3.3122,-3.2702,-3.1811,-3.1774,-3.133,-3.0505,-3.0498,-3.0467,-3.0398,-3.0398,-3.0398,-3.0398,-3.0398,-3.0398,-3.0398,-3.0398,-3.0398,-3.0398,-3.0533,-3.1121,-3.191,-2.5303,-2.5303,-2.5303,-2.5303,-2.5303,-2.5303,-2.5341,-2.539,-2.5423,-2.5489,-2.5548,-2.5576,-2.5652,-2.5659,-2.5641,-2.5601,-2.5563,-2.5533,-2.5499,-2.5468,-2.5421,-2.539,-2.537,-2.5322,-2.5303,-2.5303,-2.5101,-2.4659,-2.5259,-2.5551,-2.5605,-2.5664,-2.5703,-2.5703,-2.5703,-2.5703,-2.5703,-2.5703,-2.5703,-2.5703,-2.5703,-2.5703,-2.5703,-2.5703,-2.5703,-2.5703,-2.5703,-2.5703,-2.5684,-2.5664,-2.5629,-2.56,-2.5588,-2.5563,-2.5572,-2.5596,-2.5625,-2.5667,-2.5667,-2.5683,-2.5681,-2.5578,-2.5561,-2.5524,-2.5428,-2.5428,-2.5755,-2.6851,-2.7293,-2.7717,-2.8446,-2.9081,-2.9602,-2.9926,-3.0012,-3.0159,-3.0554,-3.0625,-3.0684,-3.0806,-3.115,-3.1359,-3.1359,-3.243,-3.299,-3.2637,-3.3437,-3.3769,-3.3418,-3.3066,-3.3029,-3.334,-3.2994,-3.2973,-3.3294,-3.374,-3.3506,-3.2564,-3.3019,-3.2288,-3.0506,-3.0506,-3.0467,-3.0398,-3.0398,-3.0398,-3.0398,-3.0398,-3.0398,-3.0398,-3.0398,-3.0398,-3.0456,-3.0948,-3.1064,-3.1121]}]]